GFSGL_925_spd_000.txt.gz
Wind_Speed
11 13 15 15 12 13 15 14 13 12 11 9 9 9 10 12 16 11 12 13 12 11 11 13 14 14 15 16 16 17 19 19 14 20 21 20 21 20 21 21 21 22 22
12 14 15 12 13 14 14 13 13 13 11 10 11 12 16 12 14 14 15 15 14 15 15 16 17 17 17 17 17 18 18 19 20 19 22 21 22 22 22 23 24 23 23
13 12 12 12 14 14 14 13 13 12 11 12 14 14 14 17 18 16 14 16 18 19 18 17 16 15 16 16 16 18 19 20 21 22 23 23 23 23 25 25 26 26 26
10 12 13 13 11 11 10 10 11 13 15 17 18 19 18 17 17 18 17 19 19 18 15 14 15 16 18 18 19 20 22 23 23 23 24 25 24 24 26 26 26 26 27
8 12 8 7 8 11 13 14 15 15 16 16 17 16 17 18 16 15 17 17 17 18 18 18 18 18 18 21 23 23 23 24 24 23 23 23 22 22 23 24 26 25 26
9 5 6 9 11 12 13 15 17 17 15 16 16 17 18 16 13 12 14 18 21 22 22 22 22 22 23 22 21 23 24 25 25 23 22 21 24 22 20 21 21 21 13
8 6 8 10 12 13 15 17 17 17 17 18 17 16 15 16 16 19 19 21 23 24 24 23 23 23 22 22 22 20 22 23 25 26 26 26 26 23 22 22 21 21 21
10 10 10 11 11 14 16 16 17 18 18 17 16 17 19 19 17 17 20 22 22 23 23 23 24 24 22 18 20 21 21 22 23 24 27 28 27 25 24 24 25 25 24
13 12 12 11 12 14 15 16 18 18 18 17 17 19 20 21 18 19 20 21 22 23 23 22 21 21 21 19 20 22 23 24 24 27 30 29 29 29 28 24 22 20 18
12 13 12 11 11 14 15 18 18 19 19 17 18 19 20 20 18 20 19 21 21 21 20 20 20 21 22 20 20 19 23 24 23 21 20 21 32 29 29 29 28 24 21
10 12 13 11 12 13 16 19 20 20 19 14 16 18 18 17 21 18 19 19 20 21 21 21 19 15 10 13 16 20 22 20 21 21 22 22 21 22 23 24 27 28 25
13 15 13 11 11 14 17 20 21 21 17 15 18 18 19 17 19 17 20 21 20 22 21 20 9 16 14 14 14 13 15 17 17 17 16 17 18 19 20 20 22 23 26
15 13 12 11 12 15 18 20 19 17 14 16 19 20 21 20 19 18 21 21 21 21 16 13 15 13 12 11 8 11 11 10 11 12 13 14 14 15 16 16 19 20 21
15 12 11 11 12 15 16 16 15 14 12 16 18 19 20 20 19 21 22 22 19 15 17 8 10 11 9 9 8 7 7 9 10 11 12 12 13 13 14 14 15 15 18
12 10 10 9 11 13 13 12 11 10 9 13 14 17 18 19 19 21 21 20 17 16 11 8 9 10 10 10 10 9 9 11 11 11 11 11 11 10 10 7 8 10 12
9 8 8 9 10 10 11 13 8 7 9 8 9 11 15 15 17 18 19 15 15 12 8 9 10 11 12 13 14 13 11 11 12 12 11 10 11 10 11 6 5 8 9
6 6 7 7 8 8 10 11 11 10 9 7 9 11 13 15 15 17 18 13 13 11 10 11 11 12 13 14 14 13 13 13 12 11 12 11 12 11 11 9 4 5 6
7 8 7 6 5 8 9 9 10 12 13 12 10 10 13 14 13 15 16 11 11 12 11 12 12 13 13 14 14 14 13 13 12 12 11 12 12 11 10 10 10 10 6
8 7 6 4 5 7 7 9 9 11 12 12 12 11 12 12 10 12 13 12 11 12 12 12 12 12 13 13 14 14 13 14 14 13 12 12 12 11 9 10 11 8 9
7 5 3 4 6 7 7 8 10 10 10 10 11 11 13 12 12 12 12 12 11 11 11 11 11 12 12 13 13 14 14 15 15 14 14 13 12 10 10 10 10 10 9
6 5 4 4 6 7 6 7 8 9 9 9 9 8 9 9 10 9 10 11 11 11 11 11 11 11 12 12 13 13 14 14 14 14 14 14 12 11 10 9 9 8 8
6 4 4 4 5 6 6 6 7 8 8 8 8 7 6 7 7 7 8 9 10 9 10 10 10 10 11 12 12 13 13 13 14 15 14 13 13 11 10 10 10 9 8
4 4 5 4 5 6 7 6 7 7 8 7 7 7 6 6 5 5 6 7 8 8 8 8 9 10 11 10 11 11 12 13 13 14 14 13 12 12 10 10 10 10 10
7 7 6 4 5 7 7 7 7 6 6 7 7 6 5 4 4 4 4 5 6 7 7 7 7 9 10 11 11 11 11 13 12 11 12 12 12 11 10 9 9 9 9
7 6 5 5 6 7 8 8 7 7 7 7 7 6 5 5 4 4 4 4 5 6 6 6 6 8 8 10 11 12 12 13 14 13 10 10 10 10 10 9 9 8 9
5 6 6 6 7 7 8 7 7 7 7 7 6 6 6 5 5 4 4 5 5 5 5 5 6 7 8 8 11 11 12 12 13 12 11 10 10 10 9 9 9 8 9

GFSGL_925_spd_003.txt.gz
Wind_Speed
13 14 14 15 16 17 19 19 20 20 21 19 16 14 13 14 18 18 17 18 17 18 18 19 19 18 18 19 19 19 20 21 13 20 20 19 18 19 20 18 16 18 20
11 14 16 15 17 18 17 17 17 18 17 17 17 18 19 16 15 16 19 19 20 20 20 22 23 23 22 21 21 21 21 21 21 19 21 21 21 20 19 19 20 21 21
12 14 15 15 17 15 15 15 15 15 17 18 19 19 20 20 20 20 20 20 20 22 23 24 24 24 23 21 20 21 20 20 20 21 20 22 22 22 22 21 21 20 22
14 14 16 15 13 13 13 15 17 18 20 21 20 21 20 21 22 22 17 20 24 26 23 23 22 22 23 22 21 21 21 21 22 23 23 23 23 23 23 21 21 21 21
16 16 16 12 13 15 15 17 18 19 19 19 19 20 20 21 15 13 15 20 24 26 27 27 26 24 20 21 24 26 24 23 23 22 21 22 21 20 20 20 19 18 18
17 17 15 15 14 15 15 17 19 19 19 20 21 22 20 21 16 15 16 20 26 27 28 28 28 27 23 20 17 19 24 25 24 23 23 21 23 22 21 20 19 17 10
19 18 17 14 15 15 16 18 18 19 20 21 22 21 20 21 16 20 21 22 25 27 27 28 27 26 25 24 25 25 20 20 24 24 25 26 25 24 23 22 21 20 19
19 19 17 15 16 16 17 19 19 21 21 22 21 19 21 23 20 19 18 24 26 27 27 26 26 26 26 19 19 21 21 22 21 22 26 26 24 24 24 24 22 22 21
20 19 12 18 17 17 18 19 20 22 22 21 18 19 23 25 25 17 21 24 24 25 25 24 23 24 25 23 21 22 23 23 22 24 28 31 32 31 29 25 20 18 15
18 16 16 16 16 18 18 20 21 23 21 19 17 19 22 24 19 19 17 21 23 24 23 23 23 24 25 24 22 22 21 21 20 20 20 20 22 24 30 30 25 21 20
14 12 17 17 17 17 18 21 22 22 20 12 15 19 22 18 19 17 15 20 23 24 24 23 22 7 10 12 14 16 20 20 20 22 22 22 22 23 23 22 30 28 25
9 13 17 18 15 16 19 21 21 22 16 16 17 19 20 18 17 16 18 22 22 24 23 22 13 20 18 17 15 14 14 16 16 17 17 18 17 17 19 20 21 24 29
15 18 18 16 15 17 18 20 20 17 15 16 19 19 20 20 20 17 21 23 23 23 18 21 15 14 16 14 9 11 12 12 10 12 13 13 12 12 14 16 17 18 21
17 18 17 14 12 15 16 17 14 15 13 16 19 19 20 21 21 20 24 24 21 19 19 16 13 13 13 13 10 8 7 7 9 11 11 12 12 12 14 16 17 15 16
16 16 14 12 12 15 15 12 12 8 6 12 14 15 19 20 20 22 22 22 18 19 18 11 11 13 14 12 10 9 8 9 10 10 11 12 12 11 13 11 8 9 11
14 13 11 11 11 12 12 13 10 8 11 12 8 9 13 16 19 19 20 19 16 16 11 11 13 14 13 13 14 13 12 13 12 12 12 11 11 12 14 13 5 7 9
11 11 11 10 9 8 9 11 12 9 12 8 7 8 9 15 17 17 19 17 12 13 12 12 13 14 16 16 16 16 15 14 13 12 12 11 11 11 13 12 10 7 7
9 11 8 9 7 7 8 9 9 10 13 11 9 11 10 13 15 14 16 13 12 12 12 13 14 15 15 16 16 15 16 14 14 13 11 11 11 12 10 11 11 10 10
7 9 8 7 5 7 7 7 8 9 12 12 13 11 14 16 11 9 12 12 12 12 13 13 13 14 14 15 15 15 15 14 14 14 14 13 12 12 11 11 11 11 11
8 6 7 6 6 6 6 6 8 9 11 11 12 12 13 14 13 12 10 11 11 11 12 12 12 13 13 13 14 15 16 15 15 15 15 13 13 11 10 11 10 10 10
8 6 7 8 7 6 7 7 7 8 10 10 11 7 11 9 11 10 10 10 10 10 10 11 11 12 12 13 14 14 15 15 16 16 16 16 14 13 12 10 10 10 10
8 7 6 7 6 6 6 8 7 8 9 10 10 8 7 8 9 8 9 9 8 8 8 9 9 10 11 12 13 14 15 15 15 17 17 18 15 14 13 11 11 11 11
7 7 7 8 6 6 8 8 8 8 9 10 9 10 9 9 9 8 8 8 8 8 8 7 8 9 10 10 11 11 13 14 14 15 15 16 16 15 13 12 11 12 12
7 8 10 9 7 7 8 8 9 9 9 10 9 9 9 9 9 8 8 8 8 8 7 7 7 8 9 10 10 10 11 13 13 14 12 14 13 13 13 11 12 10 11
8 9 9 9 9 8 8 9 9 9 10 9 9 9 9 9 9 8 8 8 8 8 8 7 7 8 8 9 11 11 12 12 12 13 11 12 12 12 11 10 12 11 10
8 9 9 9 9 10 8 9 9 9 9 9 9 9 9 9 9 9 8 8 8 8 8 7 7 8 8 7 11 12 12 12 12 11 11 10 11 11 11 10 11 10 10

GFSGL_925_spd_006.txt.gz
Wind_Speed
15 15 16 13 12 13 13 13 15 16 18 20 20 20 20 20 19 17 19 17 17 20 21 19 18 19 20 19 20 22 23 20 10 18 20 20 20 18 15 18 20 18 14
15 15 17 15 15 17 16 15 16 16 16 18 20 20 21 20 20 20 21 20 21 19 21 23 23 20 21 20 19 20 20 20 22 17 19 21 23 22 21 20 16 14 18
14 14 16 14 15 15 17 15 13 16 18 19 20 21 21 21 21 21 20 16 19 21 23 27 27 25 23 22 21 20 19 17 19 20 18 21 23 24 24 23 20 19 17
17 14 13 12 10 12 14 14 16 18 19 20 19 19 21 22 22 14 14 18 20 21 23 29 31 28 26 25 20 18 15 19 21 22 22 21 21 21 23 25 25 24 23
17 14 16 15 11 12 9 12 16 18 17 17 20 21 22 21 11 16 16 17 19 22 24 26 28 30 30 26 20 20 19 17 17 18 19 20 19 18 17 16 17 15 13
18 20 20 22 14 9 11 13 16 17 17 19 19 20 19 16 16 17 21 23 21 22 26 27 29 30 29 24 17 19 21 23 21 19 18 17 20 21 20 18 18 14 4
23 19 12 10 11 9 12 13 18 17 19 19 20 18 14 15 13 20 20 22 19 23 26 27 28 25 27 24 19 17 14 14 20 22 20 21 22 25 24 22 18 17 15
30 16 14 11 10 15 7 10 18 18 19 20 16 14 15 15 22 26 21 19 21 22 25 27 28 27 23 22 20 18 18 19 18 18 21 26 25 25 23 21 19 18 20
32 19 18 6 14 10 9 12 18 19 20 13 14 15 17 22 23 21 17 17 19 22 25 25 26 26 27 25 24 21 20 20 20 22 25 27 27 28 29 25 21 17 13
28 17 15 15 13 12 12 15 16 16 15 14 13 15 19 24 19 17 15 15 19 22 23 24 24 24 10 11 12 14 16 17 15 17 21 21 21 22 23 21 25 20 18
21 17 16 15 16 16 13 15 14 16 14 11 15 22 21 19 16 16 13 17 19 23 24 24 24 17 16 16 16 18 18 18 20 20 21 22 22 22 21 22 22 25 22
18 17 17 17 17 14 14 14 18 15 12 15 19 20 18 17 19 19 16 21 23 25 25 23 25 21 17 20 17 14 14 15 18 19 19 20 20 21 21 19 19 21 25
17 21 18 18 17 11 16 16 15 11 12 14 15 18 18 20 21 17 24 24 24 24 23 24 22 16 16 16 15 15 15 13 15 9 12 14 14 16 16 16 17 19 21
17 18 18 16 16 14 14 15 12 11 9 11 13 13 16 18 19 22 25 25 24 22 24 22 16 17 16 21 13 12 11 9 10 12 12 14 14 14 15 14 17 18 18
15 16 18 13 14 14 14 9 8 8 9 10 10 10 13 15 18 22 21 23 24 22 21 15 16 19 20 17 18 17 16 15 14 14 15 15 14 15 15 16 18 10 10
11 14 15 15 13 13 10 11 14 15 12 14 11 11 11 11 18 20 19 21 18 17 15 14 14 17 17 16 15 15 16 15 16 15 14 14 14 15 16 18 19 9 12
8 12 13 14 12 10 9 10 12 14 14 14 12 11 8 11 17 18 19 20 13 14 14 14 14 16 17 17 16 15 16 17 17 19 15 14 14 15 16 15 18 16 15
10 9 8 9 9 8 11 14 13 11 13 14 11 11 5 13 18 14 15 15 15 14 14 14 15 16 16 17 18 19 21 17 19 20 18 17 15 16 14 14 15 14 15
13 11 7 8 11 10 11 11 11 11 12 14 12 8 9 21 14 12 12 12 14 14 14 14 15 16 16 17 19 20 21 19 18 19 20 20 19 15 14 14 13 14 14
15 6 3 7 9 9 8 9 11 10 11 12 13 8 11 18 13 13 13 11 12 14 14 14 15 15 15 16 18 19 19 19 19 20 20 22 22 17 17 13 14 13 13
12 5 6 11 10 8 9 10 10 9 11 12 12 11 10 11 9 11 11 10 11 13 13 14 14 14 15 15 16 17 18 18 18 19 19 21 23 19 20 14 15 14 13
9 10 10 9 9 8 8 10 13 12 11 11 11 12 12 9 6 9 10 10 11 11 12 13 12 12 13 13 15 15 16 16 16 17 17 19 21 20 20 16 13 15 15
10 10 10 11 12 9 9 11 12 12 12 10 12 12 10 10 8 9 9 11 10 11 11 12 12 12 12 11 11 12 14 16 16 15 15 17 18 18 19 18 17 15 15
10 10 12 13 13 11 10 12 10 13 13 13 12 12 11 10 9 10 11 10 10 10 11 13 11 11 13 12 13 14 13 15 14 15 11 16 16 16 14 15 14 18 14
11 12 12 13 13 12 11 11 11 12 13 13 12 12 11 12 11 11 10 10 10 11 11 13 12 11 11 10 12 16 14 14 14 12 11 12 13 13 11 13 13 15 15
10 11 13 13 13 13 12 12 9 13 13 13 13 12 13 13 12 12 12 11 12 10 12 11 13 10 11 9 12 16 14 14 13 10 9 12 11 12 13 12 13 13 14

GFSGL_925_spd_009.txt.gz
Wind_Speed
15 14 12 13 6 6 8 7 9 13 15 13 16 18 18 17 18 20 21 22 21 18 15 17 19 22 23 24 23 20 16 14 12 21 19 18 19 19 17 14 13 14 14
15 13 13 11 12 14 10 9 8 6 8 8 12 16 17 19 20 20 15 8 14 18 18 23 24 24 26 28 27 24 22 20 16 12 14 18 20 22 21 20 17 11 14
18 14 14 13 15 19 11 10 2 4 8 12 10 11 15 18 19 14 11 15 18 19 21 23 27 28 28 25 27 26 25 17 14 12 9 16 20 22 25 23 22 21 15
20 15 19 21 23 13 4 4 8 10 12 11 10 14 16 17 15 12 13 15 18 21 23 24 26 25 26 26 26 26 25 22 20 18 15 13 14 18 19 16 19 16 14
27 29 32 22 7 10 4 4 14 13 8 10 15 15 15 10 11 13 15 19 23 25 23 23 25 26 25 25 22 19 19 17 18 17 17 15 13 14 13 14 16 20 18
30 33 27 10 12 9 12 18 16 5 11 16 14 14 7 9 10 14 21 24 24 20 23 27 27 23 21 22 21 16 15 14 17 18 15 12 13 13 19 19 18 15 4
30 24 23 16 17 14 10 18 9 9 11 15 9 7 8 10 10 21 21 20 20 19 22 27 27 22 24 23 22 20 18 14 12 13 13 16 18 19 21 21 17 14 14
19 23 20 15 14 12 10 8 9 10 12 4 7 9 11 18 20 16 17 16 17 20 22 25 24 25 24 23 24 23 20 19 19 19 18 21 20 22 21 20 20 17 20
16 16 15 12 12 13 16 18 14 11 2 7 8 13 18 19 16 13 18 17 17 20 21 22 23 25 23 19 15 17 18 20 20 16 16 15 15 17 20 21 19 16 14
13 13 15 16 15 16 12 16 8 7 5 8 12 16 17 15 15 18 15 16 20 20 21 22 22 22 19 18 15 18 18 20 18 18 19 21 22 24 24 22 22 15 14
13 14 16 18 20 19 12 8 11 5 7 11 13 15 16 16 21 14 16 20 20 20 21 21 23 23 24 16 18 19 20 17 16 18 19 20 18 17 17 17 21 23 19
15 15 14 16 17 14 13 13 7 7 10 13 16 19 18 19 20 16 20 20 20 22 21 24 27 22 19 18 17 15 12 14 14 15 14 16 16 14 14 15 18 19 22
16 12 16 15 14 12 12 10 7 9 12 12 15 16 17 18 19 20 22 20 20 22 22 21 18 18 17 19 17 15 13 14 10 9 8 10 13 12 12 11 9 11 16
10 12 14 12 13 13 11 8 8 12 12 12 14 15 15 17 20 22 23 24 23 20 21 16 18 19 21 18 20 18 18 17 14 13 13 14 13 13 12 11 13 12 7
9 13 11 13 14 13 10 6 10 12 11 13 13 12 13 14 16 19 20 22 21 17 16 16 17 19 19 19 19 20 19 18 17 15 15 14 14 14 13 14 15 8 6
11 9 11 11 12 10 7 7 10 14 12 14 12 10 9 10 14 17 17 19 16 17 15 16 15 18 16 17 18 19 20 17 18 18 16 14 14 15 15 15 15 15 12
9 11 8 8 7 6 7 12 16 13 12 14 13 8 7 8 15 13 14 15 14 15 15 16 17 18 17 16 18 19 21 18 19 19 19 18 17 17 15 17 17 17 15
10 12 9 9 10 8 9 11 11 12 14 15 11 7 4 9 12 12 11 15 16 15 16 15 17 17 17 16 19 18 21 20 21 20 20 21 21 18 16 16 16 15 14
13 15 16 9 6 6 8 9 10 11 12 11 12 5 5 12 11 11 11 12 12 14 15 15 16 17 17 17 19 19 19 19 19 19 20 22 23 20 18 16 15 14 14
14 15 6 5 4 6 10 7 12 11 11 12 11 10 10 10 10 10 10 10 12 12 12 13 13 14 16 15 17 19 18 20 19 19 19 21 22 21 21 16 16 15 15
13 3 4 7 9 7 9 9 9 12 13 12 12 11 11 10 9 8 9 10 11 12 12 13 12 12 14 15 15 16 17 19 18 18 17 19 20 23 21 20 15 15 14
11 11 8 9 10 11 11 9 12 13 13 13 11 12 12 12 11 9 10 11 11 11 12 13 14 11 12 13 12 15 15 18 18 18 16 17 18 20 18 18 17 16 16
13 12 11 11 12 13 12 11 10 12 11 13 13 14 12 12 11 12 12 12 11 11 11 13 14 12 12 13 11 14 16 16 15 14 14 15 16 18 15 15 15 15 16
13 12 12 11 14 15 14 15 13 10 13 14 14 16 12 12 11 12 12 12 11 11 12 13 13 14 12 12 10 13 17 15 13 12 10 11 14 14 13 13 14 13 13
17 15 14 13 14 15 15 14 15 14 11 13 13 13 13 13 14 13 12 12 12 12 12 12 13 13 12 11 10 13 17 14 13 10 8 9 10 10 12 10 12 12 13
19 18 17 14 15 16 16 14 14 12 13 14 14 13 13 14 14 13 12 13 13 13 13 13 11 12 11 10 11 14 14 13 11 8 7 8 10 10 9 10 10 10 11

GFSGL_925_spd_012.txt.gz
Wind_Speed
15 16 16 16 16 18 16 13 12 9 6 5 5 5 8 8 9 10 12 10 3 6 9 14 18 20 21 24 23 22 19 18 11 18 15 20 17 17 16 16 15 13 12
19 18 19 16 17 17 13 12 11 10 5 7 13 8 8 10 13 12 12 9 7 8 12 17 21 22 25 26 25 24 21 22 21 8 8 12 13 15 16 18 19 16 12
22 22 21 24 28 24 13 6 3 4 8 24 19 9 12 12 13 13 7 6 9 13 17 19 20 21 24 25 26 24 22 22 22 19 13 11 14 18 19 18 13 13 9
21 22 22 22 19 13 10 12 15 14 14 21 13 12 14 12 12 9 9 11 14 19 21 17 19 20 23 25 25 23 22 20 20 20 17 12 10 12 12 11 12 13 15
16 16 15 18 19 15 18 20 14 17 17 13 10 16 13 11 9 10 12 18 21 20 19 18 19 20 21 20 20 20 17 16 16 15 12 9 10 9 8 8 12 17 20
13 11 14 16 13 16 15 14 19 18 5 13 15 9 3 8 8 15 19 18 18 18 17 21 21 21 19 19 19 19 20 15 15 12 10 8 12 12 11 13 12 10 3
5 9 15 14 15 16 14 13 17 12 14 13 1 2 5 9 11 15 15 15 16 17 19 21 21 20 22 23 23 21 22 20 18 17 15 13 13 14 14 15 13 12 11
6 11 12 12 14 15 13 14 12 6 15 4 2 6 9 11 11 11 14 15 15 17 20 22 22 22 21 21 24 15 16 17 17 19 19 19 19 18 17 18 17 15 14
8 8 12 12 15 16 18 14 14 9 5 3 4 7 9 7 12 12 15 17 20 23 21 21 21 22 21 21 24 17 18 19 15 12 13 11 11 12 12 13 16 14 11
8 12 12 14 15 17 16 9 2 3 6 4 6 9 8 12 15 13 15 19 22 19 20 20 19 20 23 22 17 17 15 21 19 16 16 16 18 19 19 19 21 15 12
9 13 12 9 13 14 5 8 4 8 5 4 8 8 10 14 16 16 18 18 18 19 19 19 22 21 20 21 18 16 15 17 17 15 16 16 13 11 12 12 15 21 19
15 14 8 10 10 8 5 3 7 4 3 5 8 9 11 15 17 17 17 17 17 19 18 21 20 20 19 17 18 15 14 9 11 11 12 11 11 11 9 9 11 13 21
11 7 7 9 6 7 4 4 5 3 4 7 9 10 11 15 18 18 19 18 17 16 17 15 16 16 17 17 16 15 15 16 13 12 10 10 11 10 8 7 7 9 13
11 7 9 7 7 5 5 3 3 4 6 8 9 9 10 13 17 18 19 21 17 16 16 14 17 17 15 17 18 20 18 17 14 12 11 11 11 11 9 7 9 5 5
10 8 7 6 7 6 2 3 6 7 6 9 9 8 10 13 15 17 16 18 17 17 13 15 18 20 18 19 21 21 20 20 19 17 15 13 12 12 11 11 10 8 4
15 14 7 5 5 2 1 1 6 7 7 9 9 7 9 10 12 14 12 14 14 14 14 15 16 19 18 16 18 21 22 20 20 19 17 15 15 14 13 13 13 11 11
17 13 9 7 5 4 3 4 9 9 7 8 8 7 7 7 12 10 9 11 13 12 14 14 15 16 16 15 17 16 17 19 18 18 18 19 17 16 15 15 14 13 13
15 12 12 12 8 7 6 6 8 8 10 9 9 7 6 7 9 8 9 11 14 14 13 12 14 14 15 14 17 17 18 19 19 18 19 19 19 18 16 16 14 14 12
14 12 12 12 8 6 7 6 5 8 9 8 9 8 7 8 8 8 10 10 10 11 12 12 11 11 14 13 14 15 17 18 16 15 18 19 19 19 17 17 16 13 14
13 11 11 5 6 7 8 8 6 6 7 9 10 9 9 9 10 9 9 9 8 9 10 11 11 10 12 13 12 14 16 18 18 16 16 17 17 18 18 15 15 13 14
13 10 8 9 11 11 12 9 8 7 11 11 12 10 9 11 11 11 10 10 9 9 10 10 11 11 11 13 11 14 15 16 15 15 14 16 16 17 16 14 13 13 12
13 11 11 12 12 11 12 12 13 9 10 10 11 8 10 12 12 12 12 11 10 9 9 10 10 12 10 11 11 12 16 16 15 14 13 13 14 15 14 13 12 11 13
16 16 16 14 14 13 14 13 14 13 12 10 11 12 13 13 11 12 11 10 10 10 9 10 10 11 10 10 10 10 14 16 14 12 12 12 13 14 13 12 11 10 12
15 16 16 15 14 15 15 15 16 16 15 13 11 11 10 8 10 11 11 10 10 10 10 10 9 10 11 9 10 10 13 14 12 10 8 9 11 12 12 10 10 9 10
17 18 20 20 19 20 17 16 16 18 16 17 12 11 11 9 9 10 10 11 11 10 11 11 10 10 10 10 10 10 12 12 12 9 7 7 8 9 9 8 10 9 9
18 20 23 24 24 23 21 18 18 19 16 14 14 14 12 12 11 11 10 11 11 11 10 10 11 9 9 10 9 9 11 11 10 9 8 7 7 9 5 7 8 7 7

GFSGL_925_spd_015.txt.gz
Wind_Speed
7 10 12 15 18 22 22 22 13 11 8 10 8 12 19 13 9 11 13 15 14 11 12 14 17 18 19 22 23 24 24 19 13 18 21 24 17 11 13 16 16 16 12
9 12 13 13 16 20 19 14 14 17 23 18 15 16 18 15 11 14 14 13 13 11 14 17 21 21 21 21 23 23 22 22 21 19 20 21 18 18 15 16 15 12 12
10 13 16 19 18 16 17 18 19 22 22 18 19 22 15 14 14 15 13 12 11 14 18 21 21 19 21 24 24 25 23 21 21 21 21 22 21 16 17 15 14 14 13
13 16 16 14 14 15 17 18 21 19 18 17 21 17 12 19 15 12 10 12 15 20 21 21 19 20 21 24 25 23 19 19 19 17 17 17 17 17 13 12 12 12 15
11 11 11 10 10 14 19 19 18 19 16 19 9 10 19 13 8 8 12 18 20 21 22 21 21 20 22 22 21 20 23 19 18 12 12 12 11 12 12 9 9 12 15
11 11 11 11 13 14 16 15 14 18 15 9 15 15 4 4 8 12 16 17 18 21 23 22 23 21 21 22 23 22 22 22 17 15 13 13 13 12 12 13 10 6 2
14 14 11 12 13 15 17 15 16 14 11 9 6 2 4 7 10 12 13 15 17 18 20 23 23 20 22 23 22 23 23 19 19 20 18 17 14 18 13 14 13 11 9
14 11 11 15 16 18 17 16 12 8 12 4 3 2 6 9 10 11 13 15 17 21 21 19 21 22 21 22 24 25 20 18 16 15 18 21 23 21 20 19 17 15 15
9 11 13 15 18 18 19 18 12 8 4 5 1 4 8 9 11 10 13 17 20 20 17 21 18 20 20 24 20 21 19 19 18 16 17 18 13 9 15 16 15 12 11
11 13 15 17 14 15 18 8 2 3 4 3 2 5 6 8 11 11 13 16 18 17 22 20 17 18 22 22 18 21 16 19 18 19 16 14 15 17 18 17 17 14 12
14 18 17 12 13 14 11 10 8 7 6 1 3 3 4 8 11 11 14 15 18 18 18 19 20 20 20 18 17 18 17 15 13 14 14 14 11 10 13 16 18 22 18
20 20 14 11 10 9 7 3 6 6 4 2 3 3 4 7 11 12 14 15 17 16 18 18 19 19 17 16 17 18 14 14 14 13 11 11 10 10 9 9 11 15 19
22 19 12 9 9 7 5 7 7 5 2 3 4 4 4 7 11 12 14 14 14 15 15 14 15 16 15 15 16 16 16 17 16 15 13 12 12 11 9 7 8 11 15
18 12 9 8 9 7 7 6 6 3 4 4 5 5 6 8 11 14 14 15 16 16 14 12 15 16 14 15 17 17 18 19 18 16 15 13 13 13 10 7 8 7 9
16 15 13 10 7 6 3 6 3 4 6 6 6 6 7 8 10 13 13 14 15 14 12 12 16 19 19 18 19 19 20 21 21 20 18 16 15 14 13 12 9 5 2
16 19 17 7 7 5 6 6 5 6 7 6 8 7 7 7 9 10 9 10 12 12 9 12 15 17 18 15 18 19 20 21 20 19 18 17 16 16 14 14 12 10 11
17 19 14 9 8 8 8 9 7 8 7 5 5 6 7 6 7 7 6 8 10 11 9 10 11 13 16 14 16 15 17 18 16 16 17 18 17 16 15 15 14 12 11
16 16 14 11 11 14 11 11 10 7 7 7 6 6 6 6 6 6 7 9 9 9 9 9 9 10 13 12 14 15 17 17 16 15 16 18 18 15 15 16 13 13 11
17 14 13 10 13 12 10 12 11 9 8 9 9 8 7 8 8 7 7 9 8 8 8 8 9 9 10 11 11 13 14 16 14 13 15 16 16 16 16 14 14 11 11
18 15 12 10 8 11 12 12 14 11 9 10 12 10 9 9 10 9 9 9 9 8 7 8 8 9 9 10 10 12 14 15 15 14 13 14 15 14 14 14 13 13 12
19 15 14 11 12 14 13 15 16 13 11 12 13 11 11 12 12 11 10 11 10 9 8 8 8 9 9 9 10 9 12 14 13 13 12 12 13 14 12 12 10 9 11
22 20 15 15 15 14 13 13 13 15 18 14 11 10 11 13 14 13 12 10 9 9 9 9 9 8 9 9 9 9 10 13 13 12 11 11 11 12 12 11 10 9 12
23 22 19 18 16 16 16 15 15 17 16 18 15 14 14 14 15 15 12 10 9 9 9 10 9 9 8 8 9 9 9 13 12 11 10 10 11 11 11 11 10 10 11
21 18 18 17 17 16 17 19 18 16 18 19 20 18 15 13 12 12 11 10 10 9 10 10 10 10 9 9 9 8 8 11 11 10 8 9 9 10 9 8 8 8 9
21 17 19 19 19 22 23 22 23 21 21 21 20 21 19 15 14 14 13 12 11 11 10 10 10 10 10 9 9 8 9 10 10 8 8 8 8 9 7 7 8 7 7
21 20 19 21 23 24 25 26 28 27 24 24 22 22 18 16 16 15 14 13 13 12 12 11 11 11 10 9 9 8 8 9 9 9 9 8 7 8 7 5 6 6 5

GFSGL_925_spd_018.txt.gz
Wind_Speed
4 7 10 12 11 11 13 15 17 18 20 21 22 16 12 14 20 15 15 16 17 16 14 14 16 19 23 24 23 23 22 18 16 28 26 27 28 28 25 22 17 15 14
3 7 11 11 11 10 11 16 18 21 20 22 18 16 16 23 17 14 16 18 15 14 14 17 21 25 25 24 23 24 23 22 21 21 26 26 25 25 23 22 23 19 17
6 10 11 9 9 10 13 18 20 20 21 17 14 17 19 14 9 13 17 13 12 14 18 22 23 23 24 25 26 24 23 21 22 20 24 24 24 26 26 24 21 18 16
9 10 10 10 10 12 15 18 20 20 18 17 15 19 10 9 14 14 9 10 15 20 21 22 24 24 24 25 23 21 21 21 20 20 22 22 18 21 20 17 20 18 15
12 13 15 13 12 14 15 18 20 18 18 17 15 10 11 12 7 6 10 16 19 20 23 25 24 22 24 24 24 22 21 20 19 19 18 17 15 15 14 14 14 14 15
15 17 16 13 14 15 17 20 19 18 16 14 13 12 3 2 5 8 14 17 19 21 23 24 25 22 19 20 22 22 23 25 21 19 19 17 18 17 15 13 11 6 3
16 18 15 13 15 18 18 19 19 16 12 9 8 1 2 5 8 11 15 17 18 21 23 21 19 18 20 21 22 23 24 23 20 19 17 17 18 20 19 12 12 9 8
13 14 13 14 16 19 19 19 20 17 12 10 2 1 4 7 11 12 12 15 19 21 19 18 20 20 19 20 26 22 23 22 20 18 19 22 22 22 23 21 17 13 14
13 13 13 14 18 19 17 19 20 10 4 4 3 4 5 8 11 11 12 15 17 19 16 19 17 18 19 23 23 17 22 19 16 16 17 18 19 19 20 16 18 14 11
12 13 17 19 18 16 17 18 10 7 6 7 4 4 6 8 9 10 11 14 17 18 20 18 16 17 21 20 20 20 19 16 18 19 18 17 16 18 17 18 17 10 5
14 19 22 21 15 14 16 15 14 10 8 6 3 5 6 7 9 9 11 14 17 18 18 19 18 18 20 19 18 19 18 18 16 15 14 12 12 12 12 14 18 21 16
18 19 23 17 11 13 14 12 7 7 7 4 5 6 6 6 7 9 10 11 14 15 19 17 18 18 17 16 15 16 16 16 17 16 15 14 14 14 12 11 12 15 19
14 18 19 11 9 12 12 10 9 8 6 5 8 8 7 6 6 8 11 10 14 14 15 13 14 15 14 14 15 15 17 18 18 16 15 15 16 15 14 12 11 12 15
12 15 16 14 13 11 10 11 11 8 6 8 9 10 9 8 6 7 10 11 15 14 15 13 13 14 13 14 16 17 19 18 16 16 17 18 15 15 13 12 9 9 10
15 16 17 17 16 9 8 7 8 8 9 11 11 10 10 9 7 8 9 11 12 14 14 12 14 17 18 17 19 19 20 20 20 19 19 19 17 17 17 18 15 10 5
14 15 18 17 11 9 8 9 10 9 9 11 12 12 11 10 8 7 7 8 9 12 10 11 13 14 16 15 17 19 20 21 19 18 18 18 17 17 17 18 17 14 11
13 17 18 17 12 12 13 13 14 11 10 9 10 10 11 10 8 7 6 8 8 10 9 10 10 11 13 13 13 15 18 19 16 16 16 18 18 15 17 15 17 16 13
15 17 19 16 15 13 15 18 13 15 15 11 9 10 10 11 10 8 7 9 9 8 8 9 11 11 11 12 11 13 14 16 16 15 16 16 17 15 15 16 15 14 14
18 18 18 17 15 13 15 13 12 16 17 14 12 11 11 10 11 11 10 11 11 10 9 9 10 10 11 11 11 10 12 13 13 13 13 14 15 14 14 14 14 13 12
20 17 17 17 17 13 14 15 16 17 19 17 15 16 12 12 14 14 13 13 13 12 11 11 10 10 11 10 11 10 11 13 13 13 12 12 12 13 12 13 13 13 13
23 19 20 20 18 15 15 18 18 18 20 20 18 15 14 15 16 15 14 14 14 13 12 12 11 10 10 11 10 10 10 12 13 12 12 11 12 14 13 12 12 10 12
18 22 23 22 21 18 17 19 19 19 17 20 21 19 15 16 16 17 17 16 14 13 13 13 12 11 10 10 11 11 10 10 12 12 11 10 11 12 13 12 12 11 13
21 22 22 22 21 21 19 19 20 20 21 22 22 21 21 20 20 20 19 18 15 14 14 14 14 12 11 10 10 10 10 10 11 12 11 10 10 11 12 12 12 11 12
22 22 23 21 18 20 19 19 21 22 23 23 23 25 25 25 23 21 19 17 16 16 15 15 15 13 11 12 11 10 10 10 10 10 10 10 10 10 10 9 10 10 10
21 20 22 21 20 19 21 23 25 27 28 28 28 28 28 26 26 24 21 19 19 17 17 15 14 13 12 11 11 10 10 9 9 9 9 9 9 8 10 7 8 8 8
19 19 21 21 20 21 24 26 28 29 29 30 30 31 29 29 28 27 23 21 20 19 17 16 16 14 13 12 11 11 10 9 9 9 9 9 8 7 8 8 6 6 7

GFSGL_925_spd_021.txt.gz
Wind_Speed
5 3 2 6 8 8 9 10 13 18 19 19 17 17 15 14 14 16 15 12 13 14 11 11 13 14 17 19 19 20 20 20 21 33 29 29 29 27 26 25 26 25 21
3 1 5 7 10 9 9 10 14 19 20 19 17 13 11 14 16 15 9 9 13 10 10 12 16 18 20 21 20 21 22 22 24 29 29 27 25 25 25 24 23 21 22
2 5 9 10 10 11 10 13 17 21 20 17 15 12 16 15 11 8 9 13 6 8 12 16 18 19 22 22 22 24 22 22 22 25 29 27 25 23 24 20 21 23 21
6 10 12 13 13 12 12 15 18 20 18 15 13 14 12 8 10 7 6 5 9 12 14 16 18 19 21 23 23 23 22 20 22 23 26 26 23 22 20 18 18 18 20
10 14 15 15 14 12 13 16 19 19 16 15 11 10 11 4 3 3 6 9 11 14 16 17 17 19 20 18 19 20 21 22 22 21 23 22 22 19 18 19 17 18 18
11 14 15 14 12 12 15 18 18 17 15 12 8 8 1 2 3 8 10 11 13 14 17 19 17 16 16 18 18 18 18 24 24 24 23 21 20 19 19 19 14 13 10
12 11 12 11 12 14 17 17 15 14 14 10 9 3 1 2 8 10 13 10 12 15 16 16 16 16 17 17 18 21 21 20 22 24 24 23 21 20 19 19 16 12 13
9 11 12 12 14 16 17 14 14 16 11 7 4 4 3 5 9 11 13 10 12 14 15 15 16 17 16 18 22 20 18 20 19 17 19 22 21 21 20 19 15 16 15
10 11 11 13 16 16 14 12 14 13 7 5 5 6 4 5 9 11 11 10 13 15 14 15 16 16 16 20 20 19 20 20 16 18 20 21 21 21 20 18 17 14 14
9 10 14 16 17 16 12 11 13 10 8 7 6 5 5 7 8 9 9 11 14 16 15 15 13 14 18 19 19 18 19 19 21 19 17 15 13 14 15 15 16 14 13
10 14 14 15 16 11 10 12 12 9 7 8 7 5 6 8 8 9 9 11 12 15 15 16 14 15 18 17 15 13 17 20 18 16 16 14 13 12 10 7 11 16 17
13 12 11 16 13 9 10 11 10 7 6 7 7 7 8 9 9 9 10 10 11 14 15 15 15 17 17 14 12 14 15 14 14 14 14 13 13 13 12 11 10 12 15
12 9 10 12 12 10 11 11 8 7 8 7 7 7 8 8 8 10 10 11 10 12 12 14 14 15 14 11 12 13 12 12 13 14 14 15 15 14 14 11 10 11 13
11 10 12 12 15 14 13 10 9 8 9 8 8 9 9 9 8 8 8 9 11 11 12 11 11 12 11 10 11 11 12 11 11 12 14 15 14 14 13 14 10 7 9
9 10 12 11 14 14 11 9 8 8 8 9 11 10 10 10 10 9 7 9 10 10 13 9 8 10 11 11 11 11 12 13 12 13 14 15 14 14 15 15 13 11 9
8 10 11 12 13 11 9 9 11 11 12 11 12 13 13 15 13 11 9 9 10 11 8 8 8 9 10 11 11 12 11 13 13 12 12 13 14 14 15 14 13 11 10
10 12 13 14 14 12 11 11 13 11 13 14 12 12 14 15 13 12 10 10 11 10 8 8 8 8 8 9 10 10 12 12 12 10 11 12 13 13 13 13 13 12 11
13 15 15 15 13 12 13 13 12 14 11 11 12 13 13 13 14 13 11 10 11 9 9 9 8 7 8 8 9 9 10 11 11 11 10 11 11 11 12 12 12 12 11
14 13 16 17 16 15 14 13 12 11 12 13 12 14 14 14 14 15 14 14 14 12 11 10 9 8 8 8 8 8 8 9 11 10 9 10 11 11 11 11 11 11 11
13 18 22 18 15 15 14 14 12 12 13 14 15 16 12 14 13 15 16 15 15 14 13 12 10 9 9 8 8 7 8 8 9 9 9 9 9 9 10 10 10 11 11
14 15 18 15 20 17 16 15 13 13 15 16 17 17 18 15 15 16 16 16 19 16 14 13 12 10 10 9 8 7 7 7 7 8 8 8 8 9 9 8 8 8 9
18 18 16 17 19 16 15 16 15 15 16 17 17 16 20 22 19 18 17 18 20 21 19 16 14 12 11 10 8 7 8 7 7 7 7 8 7 8 8 8 8 8 8
20 18 15 16 17 17 15 16 16 16 16 17 17 17 16 19 20 22 21 22 22 22 21 20 19 17 15 14 13 11 9 8 7 9 9 8 7 7 8 8 8 8 8
16 17 15 16 16 16 15 15 17 21 20 19 19 21 21 20 21 25 29 27 24 22 22 22 21 19 16 15 14 12 11 10 9 8 8 8 7 7 7 7 7 7 7
16 16 17 17 16 16 15 15 17 19 20 20 22 23 25 26 27 27 29 30 29 25 24 23 22 20 18 16 15 13 11 10 9 8 8 7 7 7 6 6 6 6 6
17 19 18 15 14 15 14 15 15 17 18 20 21 21 24 25 27 29 31 30 31 29 25 24 23 21 19 17 15 13 12 10 9 8 7 7 7 5 5 5 5 5 5

GFSGL_925_spd_024.txt.gz
Wind_Speed
7 5 5 2 3 5 7 8 9 12 16 18 18 18 17 17 17 18 20 19 14 14 16 18 18 20 23 24 25 26 27 27 23 34 33 31 29 29 28 26 27 28 28
9 7 4 3 6 8 10 10 10 13 17 18 17 16 15 15 16 21 15 10 10 14 16 15 19 23 24 24 25 25 27 28 27 30 31 29 28 28 28 28 26 26 27
9 8 5 8 10 11 11 11 12 15 17 17 16 16 16 16 15 8 9 9 11 11 12 16 20 21 22 22 23 25 24 24 24 26 29 28 27 26 26 24 24 24 24
10 7 9 10 11 12 12 12 13 15 17 16 15 15 13 12 12 8 7 9 9 12 14 17 17 18 19 21 21 21 20 21 23 25 26 26 25 23 23 22 21 21 20
9 8 10 10 11 12 11 12 14 16 15 15 14 13 11 8 5 4 7 10 13 15 15 15 16 16 16 15 17 19 20 21 21 23 24 24 24 23 21 21 21 21 22
8 9 9 9 10 11 11 13 16 16 15 14 14 11 9 5 4 6 9 12 14 15 15 16 16 15 14 18 16 17 19 23 25 25 24 24 25 24 22 20 20 20 10
8 7 8 9 10 11 12 15 16 15 14 14 12 9 8 5 6 8 12 12 13 13 14 15 16 15 16 17 18 20 23 20 20 23 27 24 23 23 22 21 21 20 20
6 8 9 9 10 12 14 16 15 14 14 14 11 8 8 6 7 9 13 10 11 12 13 14 15 16 16 16 20 22 21 21 21 20 22 25 25 25 23 21 22 23 23
7 8 9 9 12 14 16 15 14 13 13 11 11 9 8 6 8 9 10 10 11 13 13 13 14 15 14 17 20 21 21 20 18 18 21 22 23 22 19 20 20 19 17
7 8 9 12 14 15 16 13 12 12 11 11 11 10 9 6 9 8 8 9 11 13 13 13 12 11 15 18 19 19 19 19 22 22 20 18 18 17 15 15 15 17 17
7 9 11 12 13 14 13 11 12 12 11 10 9 10 9 8 8 9 8 7 10 12 14 14 13 14 17 18 16 15 17 21 21 19 17 17 15 16 16 14 12 14 16
8 11 11 11 11 12 12 12 12 11 10 9 10 10 11 10 10 9 8 8 9 10 13 14 15 17 17 17 13 15 16 16 16 15 16 16 16 17 16 16 16 15 14
10 12 12 12 12 11 13 14 14 12 11 11 12 13 12 9 9 10 10 9 9 10 12 14 17 15 15 13 11 12 13 13 14 14 15 16 16 17 18 17 15 13 14
12 13 12 12 12 14 13 12 12 12 11 11 12 12 13 11 10 9 8 7 7 10 10 13 13 13 12 11 11 10 11 12 12 13 14 15 15 16 17 17 17 15 9
12 11 11 11 13 14 13 11 12 12 11 11 11 11 11 11 10 9 10 8 9 10 13 10 10 10 10 9 9 9 10 11 12 11 13 14 15 15 16 16 16 16 12
10 10 10 12 14 14 14 14 14 14 15 16 15 13 11 13 14 14 12 10 9 9 10 11 10 10 10 10 9 10 9 11 11 12 12 13 14 14 16 15 14 14 13
10 12 12 13 14 14 14 14 15 13 15 19 20 18 15 14 15 14 14 11 10 9 11 11 10 10 11 10 9 9 9 10 10 11 11 12 13 14 14 13 14 13 13
11 13 13 14 14 16 15 16 17 17 14 14 16 17 16 15 15 15 14 12 12 13 12 12 11 10 10 10 9 9 9 9 9 10 10 11 11 12 12 12 12 13 13
12 13 13 15 18 19 17 17 18 18 14 15 14 12 14 18 17 16 16 19 16 15 14 13 12 11 10 10 9 9 8 8 9 9 9 10 10 11 11 11 11 11 11
13 12 12 16 19 20 16 18 18 19 15 15 14 15 13 11 13 15 17 19 18 17 16 15 13 12 11 10 9 9 8 8 8 8 8 9 9 9 10 11 10 11 10
15 15 15 17 18 19 19 19 19 20 16 15 16 16 17 17 16 16 15 17 18 19 18 16 14 13 12 11 10 9 9 8 7 7 7 7 8 9 9 9 10 10 10
18 18 19 19 17 18 20 19 18 19 18 17 16 17 17 17 20 22 21 21 20 20 20 18 17 15 13 12 11 10 9 9 8 7 6 6 7 7 8 8 8 9 9
18 19 20 21 18 18 20 19 19 19 19 18 18 18 17 19 20 21 23 23 24 22 22 20 20 17 16 15 13 12 10 9 8 7 6 6 6 6 7 7 7 7 8
17 17 19 20 21 19 19 19 18 19 19 20 20 21 21 23 24 26 27 27 27 27 26 23 21 20 18 17 14 13 11 9 8 7 6 5 5 5 5 6 6 6 6
16 17 20 21 22 19 17 17 16 16 17 18 20 21 23 24 25 27 28 29 29 29 28 27 23 21 22 21 18 15 13 13 10 8 6 6 5 5 5 5 5 5 5
17 17 18 21 20 15 13 14 14 15 16 16 18 20 21 23 24 24 25 26 27 29 29 28 28 25 22 21 21 20 17 14 12 11 8 7 6 5 5 5 5 5 4

GFSGL_925_spd_027.txt.gz
Wind_Speed
12 12 10 9 8 7 7 7 9 9 11 13 15 16 16 16 16 16 18 19 22 21 14 12 16 15 18 21 25 25 25 25 20 29 30 30 29 28 28 28 29 30 31
12 10 11 11 9 9 9 10 11 12 13 14 16 15 16 17 14 15 19 17 12 14 13 14 15 17 22 25 24 25 26 27 27 27 29 27 28 28 28 29 29 27 28
12 12 15 12 10 10 11 12 13 14 15 15 16 16 16 15 16 10 12 12 12 13 12 13 17 20 21 20 21 23 25 25 24 23 26 26 26 26 28 26 26 25 26
13 13 14 11 10 11 13 14 14 14 15 17 16 16 15 14 13 11 9 9 10 12 14 16 18 17 17 16 21 20 21 22 22 23 25 24 26 26 26 25 23 23 23
14 16 14 10 10 12 13 13 14 13 16 16 16 16 11 12 9 6 7 8 12 16 17 16 15 14 16 14 14 19 19 20 21 22 22 23 22 23 24 25 24 24 23
15 16 11 9 11 12 12 12 14 15 16 16 16 16 10 10 8 8 8 10 14 16 15 14 14 14 12 17 15 13 17 22 24 24 23 23 27 26 23 23 23 22 13
15 13 10 9 11 11 12 13 15 16 15 16 16 12 11 7 9 8 9 10 14 13 13 14 15 14 14 15 16 18 20 23 23 24 26 24 24 25 26 26 24 23 23
13 10 8 9 10 11 12 15 16 17 16 16 15 10 10 8 11 9 10 11 12 11 12 13 14 14 12 13 17 20 21 21 20 19 21 25 26 27 24 24 25 26 25
9 8 8 8 9 11 14 16 16 16 15 14 14 9 10 9 12 10 10 10 11 12 12 13 11 13 12 17 17 19 21 20 19 20 21 24 25 27 27 26 23 19 17
5 6 6 8 12 14 15 16 16 15 15 13 12 10 11 8 9 12 9 8 10 12 11 11 11 6 12 14 16 18 20 20 23 23 23 21 20 19 18 18 21 19 18
2 5 8 11 12 13 14 14 15 15 14 12 10 9 12 9 9 11 10 7 10 11 11 12 10 13 16 16 15 14 16 21 20 19 20 19 18 17 17 18 18 17 17
6 8 11 12 12 13 13 14 15 16 14 11 10 9 12 11 12 14 13 11 10 10 12 12 12 16 17 15 14 13 19 16 17 17 17 16 16 17 19 21 23 20 21
9 11 12 13 13 14 13 15 16 15 15 12 10 11 11 10 12 14 14 12 10 9 11 12 16 15 14 13 9 15 13 13 15 16 16 16 17 18 20 20 23 21 23
11 12 12 12 12 13 15 15 10 12 14 12 11 12 10 11 9 9 11 11 9 10 12 9 14 13 12 13 13 11 11 11 13 15 15 17 17 17 18 19 22 23 24
11 12 12 11 12 15 16 15 11 12 15 13 12 10 9 12 12 13 11 9 9 9 11 11 11 10 11 11 11 11 11 11 12 13 14 15 16 16 16 18 18 20 18
10 9 10 12 13 15 16 15 16 16 18 19 19 17 17 15 14 16 16 16 15 12 10 12 12 9 10 11 11 11 11 10 11 11 13 14 15 16 16 17 15 16 16
8 10 12 13 15 15 15 15 16 17 15 19 19 21 22 22 16 16 16 15 14 12 12 13 13 10 10 12 11 11 11 10 10 11 12 12 13 15 17 15 14 14 15
11 13 14 15 14 16 16 18 19 20 18 16 18 17 21 22 21 19 17 14 16 17 16 14 13 12 11 12 11 10 10 10 10 10 11 11 11 13 14 15 14 14 14
14 15 14 14 16 18 20 20 19 19 18 19 18 14 16 20 21 20 18 19 19 17 16 17 16 13 12 12 11 9 9 9 10 9 10 10 10 11 12 12 14 13 15
18 17 18 16 17 17 17 18 18 19 19 19 19 16 12 12 15 18 21 22 22 22 18 19 18 15 13 11 10 10 10 10 9 8 8 9 9 10 11 10 12 14 13
21 19 18 17 18 20 20 18 18 19 19 18 20 16 16 17 17 18 18 19 22 22 21 20 19 17 14 13 13 12 11 10 9 8 8 8 8 9 9 10 10 11 12
21 18 17 18 21 22 23 20 18 19 20 20 19 18 18 20 20 21 20 21 22 23 22 21 21 20 18 17 16 13 12 11 10 9 8 7 7 8 8 9 9 9 10
22 20 18 19 21 23 23 20 20 19 19 20 20 20 17 19 22 22 22 24 25 24 25 25 24 23 22 21 19 17 14 12 10 9 8 7 7 7 7 8 8 8 9
22 22 17 16 19 23 23 22 21 20 20 19 19 20 20 22 22 24 26 26 27 29 29 29 27 27 25 24 23 23 18 14 11 9 9 8 7 6 6 7 7 6 7
25 21 18 19 19 19 21 21 19 17 16 16 17 17 17 18 20 21 24 25 26 27 29 30 31 31 31 29 26 25 20 18 16 12 10 9 8 7 6 6 6 6 5
27 24 22 19 16 13 12 12 11 12 12 14 16 17 17 18 19 20 22 23 24 24 25 27 30 34 33 31 31 28 24 22 20 17 13 10 9 8 7 6 5 6 6

GFSGL_925_spd_033.txt.gz
Wind_Speed
25 22 19 16 14 10 8 6 8 6 12 11 8 8 8 8 12 7 7 10 10 13 11 9 8 6 5 7 6 7 7 11 9 17 20 21 25 25 29 26 26 26 25
26 22 17 15 13 11 9 12 10 15 13 12 11 10 6 8 11 10 6 6 9 8 6 7 8 8 7 8 10 9 11 16 13 15 22 25 26 27 26 27 26 27 25
26 23 18 15 13 13 10 12 14 8 9 10 9 6 7 11 12 7 4 3 4 6 6 8 12 11 11 10 9 13 15 15 15 17 21 23 24 25 27 27 25 23 29
27 23 17 13 14 8 14 8 5 8 6 5 8 10 14 15 12 11 8 6 5 5 6 10 11 8 7 10 13 11 12 12 15 19 19 21 21 25 23 23 20 22 26
30 23 16 11 4 12 3 5 10 8 8 12 14 17 16 12 13 13 11 11 9 10 10 11 7 8 11 12 7 9 10 13 16 19 17 19 21 20 18 18 20 25 29
31 21 14 16 8 4 7 5 9 14 13 14 15 16 15 13 13 13 12 11 8 8 10 8 10 11 11 5 4 5 9 14 19 17 17 18 21 17 17 22 22 20 12
19 15 10 3 3 7 2 7 10 12 15 17 18 17 16 14 13 13 12 10 8 7 7 9 9 10 12 11 12 17 18 20 14 18 22 15 18 21 22 23 22 20 22
15 13 12 13 9 5 8 6 13 13 14 17 19 18 14 13 12 13 12 11 8 7 8 7 9 11 11 13 17 17 20 18 15 14 17 24 22 21 22 24 26 28 28
19 18 14 10 11 6 5 10 13 16 17 19 19 18 15 12 12 12 13 11 10 9 10 12 11 9 12 11 14 18 21 19 13 14 16 16 18 19 19 20 16 17 16
21 18 15 11 7 8 10 12 11 18 20 19 13 14 11 11 13 14 15 14 12 11 10 10 10 12 10 12 16 18 17 16 16 18 19 19 19 17 16 17 18 16 18
21 15 8 2 8 11 11 14 14 18 19 18 18 10 12 15 14 15 16 17 15 11 12 14 12 11 10 13 16 14 13 13 17 17 18 20 19 21 20 20 20 20 20
9 6 4 7 8 10 13 18 21 18 15 19 16 16 16 17 17 16 17 19 16 14 13 13 13 12 14 16 11 11 12 13 16 17 17 18 19 23 23 22 20 20 20
2 3 6 8 11 12 15 13 15 18 20 23 17 17 18 19 18 19 19 19 19 18 16 12 10 12 13 15 13 15 15 16 15 16 18 14 17 19 21 22 22 20 22
4 8 9 12 15 11 13 16 16 19 13 15 17 19 19 20 18 21 20 20 21 20 19 16 14 14 15 14 15 13 12 11 11 11 11 16 16 17 21 22 23 22 20
8 10 12 13 15 16 16 16 17 13 17 21 22 22 23 22 22 21 18 19 20 21 18 17 17 16 17 15 15 13 12 12 11 10 12 12 15 17 20 21 21 20 16
12 13 15 16 16 17 18 19 15 20 21 19 22 25 27 26 23 20 21 19 17 17 18 20 20 18 17 19 18 15 13 13 10 8 10 10 13 15 18 19 19 19 16
17 18 17 17 18 19 19 21 21 24 21 22 23 23 23 25 25 25 24 21 19 18 19 21 21 20 20 20 20 17 15 13 9 8 9 11 12 13 15 17 17 19 16
19 20 22 24 24 27 26 26 26 23 25 26 27 23 22 21 24 27 29 22 21 21 23 24 24 23 22 22 21 19 16 13 11 11 12 12 9 11 13 14 16 17 18
22 25 27 31 33 34 32 31 31 27 27 29 30 27 24 23 23 22 28 26 25 24 27 27 26 26 26 25 23 22 21 18 15 12 12 11 10 10 10 13 14 14 16
23 25 27 30 31 29 30 31 28 27 26 24 25 28 28 23 20 20 24 27 27 29 28 28 28 28 26 25 22 20 22 20 16 13 12 12 10 9 10 10 13 13 13
24 23 25 26 27 28 29 25 24 25 25 23 26 27 25 22 22 22 24 29 31 30 30 29 29 29 29 28 28 23 22 23 18 14 14 14 12 12 11 8 11 11 10
25 26 27 27 28 28 28 29 27 29 27 21 25 25 24 21 22 22 23 29 31 25 26 27 29 28 27 27 27 26 26 26 23 19 18 17 15 12 9 9 8 7 7
28 28 29 30 28 28 28 28 29 31 20 16 20 24 25 18 17 19 20 26 26 25 26 25 27 28 28 28 29 29 29 31 28 22 20 19 17 14 11 9 7 6 6
24 24 26 30 31 29 27 27 26 16 15 13 15 15 6 7 9 11 11 12 13 17 22 24 25 26 27 27 28 30 32 30 28 25 21 19 19 16 12 10 7 4 3
25 26 25 27 27 30 34 30 24 15 6 5 7 9 11 11 11 13 14 16 17 16 13 12 16 20 20 24 26 28 31 32 30 27 25 21 20 17 16 13 10 7 5
25 23 26 25 26 27 28 29 29 27 24 20 17 15 14 15 14 15 16 17 19 20 18 19 20 22 19 25 18 23 27 32 33 30 28 23 21 18 18 13 10 8 6

GFSGL_925_spd_036.txt.gz
Wind_Speed
29 29 28 25 21 20 17 10 8 8 4 10 15 16 10 8 7 10 9 10 10 8 9 8 7 5 6 6 6 5 4 4 6 13 20 23 27 28 25 23 23 21 21
35 33 30 26 21 19 11 9 10 6 12 17 16 13 11 8 9 12 12 11 10 10 9 7 8 7 9 8 8 7 6 8 8 13 19 24 27 23 24 24 22 22 22
37 34 30 25 23 18 16 16 12 12 16 12 11 11 10 11 12 13 12 12 11 10 8 8 9 11 12 10 8 9 8 8 12 14 18 25 25 24 26 25 23 23 25
38 37 36 32 26 22 18 12 9 8 4 6 10 11 13 12 12 12 14 15 13 11 10 10 11 10 9 8 10 8 8 11 13 16 21 20 18 24 22 20 20 23 29
34 27 24 22 19 18 11 7 7 3 2 6 8 11 15 17 17 16 18 17 14 11 11 11 11 8 8 9 8 8 9 10 15 18 16 15 17 17 16 19 22 25 30
26 22 18 16 8 11 10 2 3 4 5 6 10 14 16 19 16 18 19 18 15 12 11 10 10 10 12 11 9 8 9 11 15 15 14 14 15 17 21 21 22 19 11
26 22 21 20 17 10 10 4 6 2 7 11 16 17 19 21 20 19 18 17 15 13 12 10 11 11 11 11 11 11 11 13 16 14 16 16 19 23 23 23 21 19 20
20 18 16 17 17 12 10 9 1 7 13 18 16 18 21 21 17 17 18 16 15 14 13 11 12 12 13 12 12 12 15 18 15 11 12 18 19 21 21 22 24 21 20
23 22 21 20 19 12 4 8 11 15 11 10 18 18 18 17 16 17 18 19 18 16 13 14 15 15 12 13 13 13 17 18 11 8 10 14 16 15 15 18 18 16 18
25 27 24 15 6 6 9 11 12 9 15 15 15 14 18 16 14 16 19 19 20 18 15 15 15 14 13 13 12 15 17 15 10 11 13 15 15 16 16 14 16 15 16
16 8 5 6 7 8 8 9 10 12 17 20 18 16 17 14 16 18 20 23 24 21 18 17 15 15 16 14 13 16 15 11 12 14 17 18 18 19 17 17 17 17 17
5 1 3 4 7 8 10 10 13 11 11 14 18 20 18 16 18 19 20 23 23 22 22 19 16 15 16 15 15 15 12 13 16 18 19 20 17 17 18 19 19 17 16
3 2 3 6 8 8 11 13 12 15 16 17 17 17 19 20 20 20 21 22 24 26 25 22 18 16 14 17 16 15 15 17 18 20 20 18 15 15 17 20 18 16 16
3 6 7 9 11 10 10 15 16 16 17 15 15 19 23 24 22 21 22 24 27 30 26 25 21 20 17 18 18 17 16 15 16 17 17 14 13 14 16 17 19 20 17
8 10 11 12 14 16 18 18 18 18 18 18 21 23 22 25 27 24 23 23 27 25 23 25 23 23 22 22 21 19 17 16 15 17 15 12 13 13 14 16 16 19 16
14 16 18 19 20 21 22 25 22 23 23 24 23 22 25 25 26 26 24 24 24 28 24 25 25 27 26 25 24 21 18 19 17 16 14 12 11 11 12 14 15 17 18
19 21 22 23 24 26 27 28 27 35 31 31 28 26 23 25 23 25 24 24 26 27 22 26 27 28 27 26 24 22 20 19 16 15 14 11 9 8 10 13 14 16 18
18 19 22 26 29 30 30 29 27 26 27 28 33 32 29 25 23 23 24 25 24 27 28 29 30 29 27 26 25 22 20 18 18 18 14 10 8 9 10 12 12 14 17
20 21 22 22 22 24 26 26 26 27 27 28 29 31 30 23 21 22 23 23 22 23 27 25 29 30 28 26 24 22 20 20 21 21 17 12 10 9 10 10 11 11 13
21 23 26 25 25 25 25 26 26 25 28 27 26 27 29 22 22 21 19 17 21 27 27 30 29 29 27 25 23 23 22 22 23 24 20 15 12 10 10 9 8 10 11
27 26 24 22 22 25 27 28 27 26 27 28 29 27 31 22 21 22 22 23 23 25 28 31 31 29 28 25 24 24 24 24 21 24 23 18 14 12 10 8 7 7 7
21 22 21 21 23 22 27 28 29 29 29 28 29 28 28 20 21 22 21 20 22 25 27 30 30 28 25 25 25 24 25 27 27 26 25 21 16 13 12 9 8 7 5
20 21 21 20 22 25 25 25 29 33 30 31 30 21 14 15 18 16 8 5 9 13 20 25 28 25 24 23 24 25 25 26 26 27 27 25 21 17 14 12 9 7 4
18 17 23 21 22 23 23 25 26 30 35 35 28 19 17 14 12 10 10 11 13 14 14 11 7 16 22 22 23 23 24 24 25 26 25 25 24 19 17 14 11 8 5
17 19 24 22 21 22 23 23 23 25 26 27 27 25 25 24 22 19 16 14 13 14 14 15 16 17 16 11 20 22 22 22 23 25 26 24 24 22 20 17 14 11 8
18 19 22 23 20 22 22 22 23 23 23 24 23 24 24 23 23 22 21 20 20 17 16 16 16 17 17 20 22 18 23 22 21 22 26 26 27 24 22 18 15 13 10

GFSGL_925_spd_039.txt.gz
Wind_Speed
32 32 30 29 30 30 28 27 27 27 27 24 17 15 15 17 17 14 11 12 13 12 11 10 10 9 9 10 10 10 9 10 8 12 18 21 21 25 23 20 20 19 17
34 32 32 33 31 29 30 33 30 26 24 16 15 15 15 16 14 13 11 14 16 15 12 11 11 9 11 13 12 12 12 10 12 15 21 21 25 26 23 22 21 19 19
35 35 35 34 34 31 28 25 23 18 13 12 11 11 15 14 12 12 14 18 19 18 14 13 12 12 14 14 14 12 12 12 11 15 19 23 28 26 24 22 21 22 24
35 35 33 30 26 24 21 20 20 9 7 5 5 6 11 10 12 15 19 20 20 18 15 14 13 14 15 13 11 13 13 12 12 14 21 22 21 23 19 17 23 21 26
31 30 29 26 24 22 19 15 10 12 7 3 2 5 11 13 20 24 21 19 20 16 14 16 14 13 12 12 13 13 12 12 12 15 19 17 17 17 15 21 21 25 25
28 26 24 21 21 19 18 15 12 10 5 1 8 15 18 18 15 15 17 21 20 19 18 16 14 13 13 13 13 12 11 11 13 15 18 14 18 16 21 19 21 17 10
24 23 23 22 22 20 16 14 10 4 6 14 14 16 13 14 17 17 18 22 22 19 18 17 15 13 13 14 13 13 12 12 13 16 18 18 17 19 19 20 19 20 19
22 21 23 26 24 22 19 12 3 10 14 13 13 12 16 17 14 14 16 19 20 19 19 17 15 13 14 15 16 16 15 14 15 17 14 14 15 17 18 19 21 22 21
23 24 23 24 22 17 8 6 12 11 13 13 14 13 12 13 15 14 15 19 20 21 18 19 18 16 14 16 17 16 15 16 17 12 11 12 12 13 15 18 19 17 18
26 27 20 13 8 6 6 7 8 11 13 12 14 16 17 18 16 13 13 17 24 23 22 22 20 18 15 15 17 16 15 17 14 11 11 12 13 15 16 14 16 16 16
16 9 3 2 6 7 7 8 9 11 13 17 19 16 16 18 17 16 17 21 24 26 27 24 23 19 17 16 17 17 17 15 13 13 15 16 17 17 16 15 16 18 17
7 3 1 4 4 6 9 11 11 13 13 16 19 21 20 18 17 17 18 22 23 27 27 27 25 22 19 17 17 18 16 16 15 17 19 20 20 17 16 16 17 17 17
4 3 3 5 8 9 11 14 14 14 18 21 20 22 22 18 20 22 23 22 24 28 28 29 27 23 21 19 19 17 17 18 19 21 21 21 17 15 16 16 16 16 18
5 6 7 9 11 12 13 15 18 21 22 24 24 25 25 27 26 23 22 22 23 26 29 30 32 28 24 20 20 20 21 19 21 21 20 19 18 15 15 14 16 17 19
8 10 12 14 16 19 20 22 23 25 25 27 29 29 30 31 30 24 22 23 23 23 25 28 25 25 25 25 25 25 23 20 21 20 19 18 16 15 16 12 14 15 16
12 15 18 20 22 23 26 30 29 31 32 32 33 35 38 38 33 29 25 23 23 22 23 22 22 25 25 26 27 26 24 22 21 21 19 18 16 14 14 11 12 13 15
16 18 21 23 24 24 24 22 25 33 29 31 31 31 33 38 42 33 31 25 23 20 23 22 25 24 27 27 27 27 25 23 21 20 19 19 15 13 12 12 12 13 14
18 19 20 20 20 21 22 23 23 25 29 33 30 30 32 36 36 38 31 26 22 17 20 23 26 26 29 28 27 26 24 21 19 18 18 18 16 14 13 12 11 12 12
20 21 22 22 22 21 21 22 23 25 26 29 32 32 31 34 36 34 28 22 20 19 19 23 28 28 29 29 27 27 23 21 19 19 18 20 18 15 14 12 11 10 10
19 18 18 19 19 19 19 20 23 26 28 28 29 30 32 31 26 27 29 22 19 17 17 22 27 30 30 30 25 23 22 21 20 21 21 22 21 17 16 12 10 9 7
18 17 19 18 17 19 20 21 21 21 25 28 32 34 34 32 29 25 24 20 20 19 18 22 27 28 29 29 25 22 20 21 21 22 22 22 23 20 17 14 10 9 7
17 16 18 18 17 18 19 18 20 21 23 26 30 35 39 28 28 24 21 15 14 11 10 17 25 27 27 26 25 23 23 22 22 23 22 22 23 22 17 16 13 10 7
15 16 19 18 18 19 19 21 19 22 23 24 26 28 31 31 31 29 26 17 13 8 8 11 10 12 20 23 22 21 21 21 21 22 22 24 23 24 21 19 15 12 9
13 15 18 18 18 20 21 20 20 22 22 22 23 24 25 25 26 28 28 25 22 18 15 14 13 13 10 6 11 20 18 17 18 19 19 22 24 25 24 21 17 13 10
14 15 16 17 17 20 21 19 23 24 22 22 23 23 23 23 23 27 27 28 26 24 20 16 14 15 14 14 14 13 12 17 17 16 18 19 20 23 25 24 20 16 13
13 14 13 14 17 20 20 20 24 23 23 24 24 22 23 22 22 27 25 28 28 26 23 20 18 17 17 15 12 12 14 18 17 20 19 21 20 22 26 25 21 18 16

GFSGL_925_spd_042.txt.gz
Wind_Speed
36 35 33 32 32 32 30 33 36 36 35 30 25 10 12 13 12 9 16 15 17 18 18 17 15 12 13 13 13 13 15 16 10 10 12 14 19 19 22 21 19 20 19
34 32 32 31 31 27 26 29 31 32 30 23 12 16 15 9 10 18 19 17 17 20 21 18 17 14 15 15 16 17 18 16 15 15 18 16 20 22 23 21 19 17 20
30 30 30 27 24 26 27 28 26 25 22 15 20 13 12 12 15 19 19 18 19 21 21 21 18 15 17 17 17 18 19 17 16 17 18 17 21 21 23 22 20 24 24
24 22 24 24 26 26 22 19 20 18 17 15 9 5 4 6 13 19 17 21 24 23 25 23 19 19 20 19 18 19 17 17 16 16 19 21 20 20 20 17 22 22 23
18 19 20 23 21 18 18 20 17 17 13 15 13 10 12 13 15 17 20 27 25 25 26 24 22 20 19 19 18 17 18 18 16 16 17 16 17 15 14 17 20 25 23
17 18 19 19 17 20 22 22 21 18 16 8 8 12 13 16 15 17 20 21 22 26 26 25 23 20 19 18 18 18 19 19 18 15 17 15 18 17 17 17 18 16 11
15 16 20 20 21 22 21 19 16 10 2 9 12 14 13 15 15 17 18 19 21 24 25 24 22 21 18 18 17 18 18 18 17 16 18 20 16 15 16 18 15 17 20
18 18 20 23 24 22 19 14 6 0 7 11 11 11 13 15 14 12 15 16 18 19 22 22 21 20 17 18 17 19 20 20 18 17 18 18 14 12 14 17 20 23 19
22 22 22 24 24 18 10 4 10 8 10 11 13 12 15 15 15 16 17 16 16 18 21 22 22 21 21 18 19 21 23 22 18 16 16 13 11 12 13 16 20 14 16
24 26 24 16 11 3 6 10 8 8 11 12 14 16 18 21 18 17 17 17 18 19 21 24 24 25 22 20 21 21 22 22 17 15 13 12 12 13 14 14 16 14 14
19 14 9 3 2 5 6 7 8 10 13 15 18 19 18 19 21 21 18 19 21 23 25 25 25 26 25 23 22 22 23 18 16 15 14 14 15 16 16 14 15 16 15
10 7 5 3 2 4 7 9 11 13 15 18 19 24 25 24 21 19 17 19 22 24 27 26 25 24 24 24 24 25 21 18 17 16 17 18 19 18 16 14 15 16 17
9 8 6 6 7 8 11 13 14 15 18 23 25 28 31 30 24 21 22 24 24 26 28 27 26 25 25 26 26 26 21 21 20 19 22 22 20 17 15 15 16 16 17
11 11 11 12 13 13 14 15 17 20 24 25 24 23 29 32 33 31 30 26 23 24 27 27 28 28 30 29 28 28 24 25 24 23 23 21 18 17 16 14 15 15 17
11 12 13 14 15 17 18 19 20 21 21 24 24 25 25 28 30 31 33 33 30 25 22 24 24 25 22 25 27 29 28 26 25 25 21 21 19 17 16 13 12 12 13
14 14 15 17 18 19 20 22 22 21 22 23 26 27 33 31 36 37 35 34 34 34 23 21 21 23 21 22 24 26 30 29 29 26 23 21 20 18 16 13 11 11 13
14 15 17 18 18 18 19 19 24 26 19 21 23 26 27 32 35 36 36 34 34 33 25 22 21 19 21 21 23 24 26 26 23 23 23 22 21 18 15 14 12 12 13
14 14 16 17 17 18 19 19 19 21 27 32 29 29 30 33 35 35 36 35 30 25 24 21 20 21 22 23 24 25 28 23 20 20 21 20 20 18 17 15 13 12 11
15 15 16 16 16 16 18 17 17 19 19 23 31 35 34 41 36 32 29 25 24 24 21 20 22 22 22 22 26 26 25 24 21 20 21 20 20 19 19 16 13 11 10
14 13 15 16 15 17 16 18 17 19 20 20 22 27 34 37 35 38 31 27 24 23 21 18 20 19 19 24 26 26 23 23 21 20 21 21 20 22 21 18 14 12 10
13 12 16 16 16 16 18 16 17 16 19 20 21 25 29 27 27 29 32 37 31 23 19 18 18 17 20 22 24 24 23 22 20 22 23 23 23 23 23 20 15 13 10
12 13 14 14 15 17 17 17 16 18 19 20 22 24 26 24 24 26 28 30 33 31 26 19 10 7 11 17 20 22 22 23 22 21 22 23 23 22 22 21 17 15 12
11 13 13 13 13 15 17 18 17 21 21 21 23 23 23 23 24 24 27 28 32 30 27 24 19 16 11 9 7 16 21 21 22 22 23 23 23 23 22 23 21 18 14
11 12 13 13 13 16 18 18 18 21 21 22 24 24 22 24 24 24 28 27 31 30 27 24 23 20 17 13 11 10 8 12 19 18 18 21 23 24 24 24 24 20 15
11 12 12 12 14 16 19 19 20 22 22 23 25 25 24 27 23 27 29 27 28 31 29 27 24 24 19 15 12 11 10 11 11 14 16 16 17 19 23 26 26 22 18
10 11 13 12 12 16 19 21 21 22 23 23 24 25 25 28 23 28 29 29 31 32 30 29 26 24 21 16 14 12 12 11 13 14 13 18 18 18 19 23 27 25 21

GFSGL_925_spd_048.txt.gz
Wind_Speed
19 18 17 17 18 19 19 19 20 21 23 28 26 24 26 29 24 16 16 11 12 15 14 16 17 16 16 16 15 15 16 16 18 20 19 19 16 19 21 20 21 22 23
14 13 13 12 12 13 14 14 18 19 20 20 24 29 25 28 20 16 12 12 17 17 16 18 18 17 18 19 19 18 18 20 20 22 22 22 20 18 20 21 21 21 22
8 8 7 6 6 8 10 11 12 14 16 19 23 16 19 20 17 16 18 21 24 18 17 20 20 18 21 22 21 20 21 21 19 21 23 21 21 19 20 20 20 21 20
5 5 5 5 5 6 6 7 7 8 11 15 16 17 18 13 11 12 18 22 16 18 19 20 21 23 25 25 24 21 21 21 21 22 22 22 21 19 18 19 20 18 21
7 7 7 7 7 6 7 7 9 10 12 14 17 15 12 10 13 18 20 18 17 19 21 22 23 25 26 27 26 25 21 20 22 22 21 21 21 20 17 17 19 20 20
11 10 11 11 11 11 12 13 13 15 15 14 13 11 9 14 16 17 16 18 17 20 21 22 23 25 26 30 31 32 27 24 24 22 22 21 23 19 18 18 18 18 17
15 14 13 14 14 15 15 16 16 16 16 11 7 8 12 14 14 15 15 16 19 20 22 22 23 23 20 22 23 26 29 28 27 26 25 25 22 20 19 18 18 18 20
16 15 15 16 17 17 16 15 12 11 5 3 8 10 10 11 11 13 15 16 18 21 22 23 24 23 23 21 21 23 24 25 23 26 26 26 22 19 17 18 18 20 21
16 16 15 15 16 15 13 10 5 0 4 4 5 6 8 10 12 14 16 17 21 24 24 24 25 24 23 22 22 25 26 26 25 27 27 23 23 23 22 18 18 18 18
17 17 16 14 12 10 6 3 1 2 2 3 4 6 9 11 13 16 16 18 22 25 26 27 27 27 26 25 24 25 26 30 23 24 20 20 23 21 22 19 19 18 18
17 16 13 11 9 7 5 3 2 2 3 5 6 8 10 12 14 16 18 17 20 24 26 27 26 26 28 30 30 27 31 28 24 23 24 20 18 18 18 19 19 20 19
15 14 12 9 7 5 4 3 3 4 6 7 8 10 11 13 14 17 20 23 23 24 26 28 30 30 30 33 33 31 32 31 26 21 19 21 19 18 19 19 19 19 19
13 12 10 9 7 5 4 4 4 6 7 8 10 11 12 14 16 18 21 27 29 32 30 32 35 34 33 36 34 31 29 27 25 22 23 23 21 19 17 17 17 18 19
13 11 9 8 5 5 4 4 4 6 7 8 9 11 12 14 15 18 23 26 28 30 31 31 32 33 33 32 30 27 28 27 25 25 24 24 20 16 17 16 17 16 16
11 9 7 6 5 4 4 4 4 5 5 6 7 10 12 13 15 21 23 27 30 35 35 31 30 28 29 28 26 26 24 23 25 25 22 20 19 19 16 16 16 15 16
10 8 6 5 5 4 4 2 5 5 4 3 7 8 9 12 18 22 23 25 29 31 25 23 25 25 27 28 26 24 22 21 20 20 21 21 19 19 17 16 16 16 16
9 7 6 5 4 4 3 3 5 3 6 4 7 9 9 16 21 23 24 27 22 25 21 23 25 26 26 26 25 22 18 17 18 18 20 20 21 19 19 17 16 15 16
9 9 5 4 4 3 3 4 5 6 8 8 9 10 11 17 21 20 23 23 22 21 22 24 24 27 26 32 29 23 18 15 16 16 19 19 20 20 17 17 18 16 15
7 6 4 4 3 3 3 4 5 6 7 9 11 11 13 18 16 15 17 17 20 21 22 24 25 26 28 31 34 15 16 15 13 17 16 17 21 19 17 16 17 17 13
7 7 5 3 3 3 4 5 6 7 8 10 11 13 16 19 17 17 17 17 19 20 22 23 25 26 27 27 31 26 13 11 12 15 16 18 20 18 16 16 17 14 14
4 4 4 3 3 4 5 5 6 8 9 10 11 12 13 15 16 16 17 17 18 20 21 22 24 24 25 26 27 27 29 9 8 11 13 15 17 17 16 16 16 15 13
5 3 3 3 3 4 5 6 7 8 9 11 13 13 14 14 15 16 17 18 19 19 20 21 23 22 22 22 24 23 21 22 11 9 11 13 15 16 15 16 15 14 14
4 3 2 2 3 4 5 7 7 9 10 11 13 14 15 15 16 17 19 19 19 20 20 21 22 22 21 21 20 18 18 20 19 17 14 11 14 15 16 17 17 15 15
4 3 3 2 3 4 5 7 8 9 10 12 13 14 15 16 17 18 19 19 20 20 21 22 22 22 22 23 21 20 17 16 20 17 16 13 12 15 16 17 17 17 16
2 2 2 3 4 5 6 8 9 10 11 12 13 14 16 17 18 18 19 20 20 21 23 25 22 23 23 25 25 22 19 22 18 15 14 12 11 13 16 16 17 17 17
2 3 3 4 4 5 7 8 10 11 12 13 14 15 16 17 18 19 20 20 21 24 26 24 24 25 26 24 22 21 23 20 17 15 14 10 12 10 13 15 17 17 18

GFSGL_925_spd_051.txt.gz
Wind_Speed
23 24 22 21 19 18 19 19 23 17 17 19 19 20 25 24 21 20 19 16 15 11 11 14 15 17 17 19 18 19 19 18 17 20 21 19 19 19 20 20 20 22 26
18 17 18 19 16 18 19 18 17 17 19 21 23 21 20 23 22 18 18 13 13 13 13 17 19 19 20 21 20 20 21 19 19 22 23 22 21 20 21 21 22 24 24
16 15 11 13 11 9 11 12 11 14 15 14 15 18 18 20 16 17 16 13 11 16 18 21 19 18 21 21 21 25 22 21 22 23 25 22 22 22 22 23 22 21 24
10 9 11 10 8 7 7 7 7 8 9 10 14 16 15 15 18 16 10 13 17 20 22 21 20 20 24 24 26 24 25 24 25 24 25 22 24 23 21 21 22 22 20
12 12 11 11 11 10 10 11 11 10 11 11 12 12 14 16 13 13 12 14 18 18 19 21 22 24 27 25 25 26 26 26 24 23 22 24 23 21 19 20 20 21 22
15 14 14 14 14 13 13 13 13 12 12 13 12 12 11 8 9 11 12 11 12 16 16 21 22 21 24 27 30 31 33 33 30 26 24 23 26 22 23 23 20 19 17
17 17 16 16 16 15 15 15 14 13 12 11 10 8 5 6 9 9 9 10 12 15 18 19 22 23 23 25 27 28 30 33 35 33 28 28 27 26 23 24 20 20 21
18 17 17 17 17 16 15 14 13 11 9 5 2 3 3 5 6 6 9 10 14 17 20 21 24 26 26 27 28 27 27 26 26 28 27 28 25 28 26 22 19 18 21
18 17 17 17 16 15 14 12 9 6 1 1 2 2 3 3 2 5 9 13 16 19 21 23 26 28 29 31 28 26 29 30 28 29 28 29 30 27 23 16 17 17 18
18 18 17 15 14 14 11 7 3 3 2 2 1 2 3 5 5 5 9 12 16 20 21 24 26 29 31 33 34 30 29 31 28 28 25 23 28 30 31 26 22 19 19
18 17 16 14 12 9 7 5 4 3 1 1 2 3 5 6 7 8 11 11 14 18 22 25 26 29 32 33 28 30 33 32 31 29 27 24 21 21 22 23 21 20 19
16 15 13 11 9 7 6 5 3 2 1 2 3 5 5 6 8 10 12 14 20 21 24 26 29 32 37 41 41 38 38 36 30 28 27 21 24 21 22 23 24 22 22
15 13 12 11 9 7 5 3 2 3 4 4 5 6 7 8 9 12 17 20 20 22 24 29 36 38 36 33 31 31 31 29 28 25 24 24 25 25 22 19 20 22 20
15 13 11 10 8 5 5 3 3 3 3 3 4 6 7 9 9 12 17 20 21 23 27 32 37 34 32 32 32 31 29 28 29 28 27 25 22 21 22 21 19 17 16
14 12 10 8 6 6 5 5 4 5 3 3 3 5 6 7 9 14 18 20 23 26 31 29 26 25 26 25 26 28 27 26 25 28 25 20 19 19 22 19 19 17 16
13 10 8 8 6 4 4 6 3 1 5 3 4 4 6 7 12 16 18 19 23 22 24 22 22 24 25 27 27 28 32 26 23 23 22 20 19 18 20 20 18 18 17
10 10 8 7 6 4 2 1 1 2 4 3 4 6 5 9 14 17 17 20 19 17 18 20 21 22 25 26 28 29 30 35 23 20 21 18 17 17 18 18 18 19 16
8 8 7 6 4 3 2 1 2 3 5 4 5 7 8 10 17 16 16 19 16 16 18 20 22 23 24 26 28 29 33 41 24 19 18 17 17 16 18 18 18 17 16
5 5 4 5 4 3 1 0 2 3 5 7 8 8 8 14 17 13 13 14 16 18 19 21 22 23 24 26 28 29 32 36 17 12 12 14 17 17 16 17 18 16 16
6 6 4 3 2 1 1 2 3 4 6 7 8 10 11 15 14 14 14 15 16 17 19 21 23 24 25 26 26 28 30 33 36 11 12 17 17 16 18 17 16 14 17
4 3 4 2 2 0 2 3 4 5 7 7 8 8 10 13 14 14 15 15 17 19 20 21 23 24 24 25 25 26 28 30 31 32 21 8 12 15 17 15 14 15 14
3 2 1 0 0 1 3 4 5 6 7 8 10 10 10 11 13 15 16 16 18 18 20 22 23 24 24 24 24 25 25 26 27 27 29 26 16 13 14 14 15 16 15
2 1 0 1 2 3 5 5 6 7 8 9 10 11 12 13 14 15 16 18 19 19 21 22 24 24 24 24 23 24 22 24 25 25 27 25 24 16 14 14 15 14 16
2 1 2 2 3 5 6 7 8 8 9 10 11 12 13 14 15 16 17 18 19 21 22 23 24 26 25 25 25 24 25 24 24 25 22 22 23 22 13 15 15 15 15
2 3 3 5 6 7 8 8 9 10 10 11 11 12 13 14 15 16 17 19 20 22 23 25 27 24 26 27 29 27 25 23 26 26 20 20 21 20 22 15 16 16 16
3 4 6 7 8 8 9 10 10 11 11 12 12 13 14 15 16 17 18 19 20 23 27 25 25 25 27 27 25 24 27 28 26 23 20 19 19 20 19 13 16 16 18

GFSGL_925_spd_054.txt.gz
Wind_Speed
34 38 33 34 27 28 25 19 19 19 14 12 16 17 17 23 23 24 22 20 18 15 11 10 10 12 16 20 20 19 20 19 15 17 18 18 20 23 17 17 18 21 21
30 29 30 29 25 22 18 20 19 17 14 11 13 17 20 19 21 22 20 15 15 12 14 11 15 15 20 22 20 21 22 20 23 21 24 23 23 25 23 20 22 21 23
18 24 24 22 19 18 17 15 15 14 12 14 17 18 17 18 19 18 16 16 15 15 15 17 17 19 20 20 20 21 21 24 26 27 24 25 26 27 25 23 24 23 23
16 23 27 23 19 15 12 10 9 9 9 9 9 9 11 14 16 15 15 15 17 16 16 17 20 20 23 25 25 26 26 27 29 28 27 27 26 26 26 26 22 20 21
25 22 21 18 14 12 10 9 9 8 9 9 10 10 11 11 12 13 15 14 12 13 15 18 20 25 26 27 26 26 25 27 28 24 23 24 24 24 21 20 13 14 19
20 21 20 17 17 18 16 15 15 13 13 13 11 11 11 9 9 10 7 9 10 12 15 16 17 20 23 25 28 33 36 34 30 26 26 24 25 21 23 18 14 13 5
19 19 19 21 20 20 19 19 17 17 16 15 13 10 10 7 5 5 7 9 8 11 15 16 17 18 21 23 25 27 30 31 33 39 30 30 27 31 25 19 17 16 17
21 21 20 21 21 20 20 20 17 16 15 13 9 5 3 3 3 3 2 4 7 11 14 16 19 21 21 23 28 31 31 30 31 32 36 36 36 33 26 23 21 21 19
21 21 21 21 22 20 19 17 17 13 10 8 6 6 4 7 6 4 1 4 7 11 14 15 17 22 22 26 32 33 33 32 32 33 36 36 35 32 28 24 18 14 13
21 22 22 21 21 23 20 15 12 11 10 9 10 7 5 10 7 1 4 5 7 14 19 22 23 23 26 30 33 28 29 31 29 31 31 34 34 29 28 27 27 18 13
22 22 22 22 19 18 16 13 12 11 12 9 8 6 5 6 6 4 7 9 12 17 18 20 22 25 29 35 35 37 36 36 36 33 33 32 29 28 27 25 26 29 22
23 21 20 19 17 15 15 13 11 11 10 10 9 7 6 7 7 6 8 11 15 16 18 21 23 30 34 33 32 32 32 34 30 28 27 28 27 26 23 23 27 27 26
22 21 20 18 16 15 15 11 11 11 9 8 6 5 6 5 6 8 12 15 15 16 18 21 28 29 30 33 32 33 33 31 29 25 25 26 28 28 28 26 26 26 27
20 19 18 17 15 13 13 9 12 10 8 6 6 5 3 4 5 10 15 18 18 19 22 27 26 26 22 27 27 28 28 25 26 26 25 27 28 27 25 25 25 25 19
18 16 15 15 14 14 14 11 8 7 6 6 7 4 2 2 4 9 13 17 18 21 23 24 23 20 22 23 26 26 29 29 27 29 32 25 25 27 24 19 21 20 18
17 17 15 13 10 13 12 10 8 5 5 3 3 2 0 2 6 10 14 15 17 17 19 19 18 20 20 22 24 27 28 28 30 33 32 32 22 17 13 16 20 19 17
20 16 16 13 12 10 8 7 9 5 3 0 1 3 4 6 8 13 12 13 14 15 13 17 18 20 21 21 23 25 29 30 32 32 34 35 20 19 16 15 19 19 16
20 17 15 14 12 9 7 5 2 2 1 4 4 1 4 5 11 13 10 12 12 14 14 16 18 20 21 21 24 26 29 31 32 37 37 30 17 15 14 16 18 18 17
18 16 14 11 10 8 5 3 1 0 2 2 3 3 6 4 13 10 8 9 11 14 15 15 18 19 21 23 24 26 26 29 32 34 32 36 8 11 12 13 17 20 18
16 15 12 10 8 5 3 1 1 2 4 5 5 7 8 13 18 11 10 11 12 12 15 17 18 19 22 22 24 25 27 28 30 30 30 33 37 15 13 12 15 14 19
11 10 10 7 5 4 2 1 2 4 5 6 7 9 8 11 12 11 11 12 13 13 18 18 18 20 22 23 23 25 25 28 27 28 28 30 30 27 16 12 16 21 19
10 8 7 5 3 2 1 2 3 5 7 8 8 8 10 11 10 11 12 13 15 18 16 18 21 21 21 21 25 26 25 27 27 28 29 31 32 31 27 25 13 15 17
7 6 5 4 3 2 3 3 4 7 6 8 9 11 11 11 11 13 13 16 17 16 19 21 23 21 22 28 24 23 25 26 29 30 29 30 32 30 28 27 14 15 16
6 5 4 2 1 4 4 4 6 8 7 8 9 11 11 12 13 14 15 15 17 18 22 20 20 27 24 24 24 27 28 28 27 28 24 32 31 27 27 27 27 14 15
4 4 3 3 4 5 5 7 7 8 8 9 11 11 12 14 14 14 16 17 19 21 18 25 24 22 26 28 27 26 25 26 28 32 33 29 27 28 27 26 25 16 16
4 3 3 5 6 6 7 7 8 9 9 10 11 12 14 14 15 17 17 19 18 20 26 22 24 25 26 27 28 27 30 32 32 30 26 25 25 25 23 24 23 19 19

GFSGL_925_spd_057.txt.gz
Wind_Speed
42 40 43 42 40 34 29 24 23 20 19 18 15 19 23 23 21 23 23 24 23 20 17 13 12 11 10 13 16 19 22 23 17 17 20 20 22 24 25 24 23 25 25
42 29 29 28 19 23 25 23 24 22 18 14 14 15 17 19 20 22 24 23 20 17 15 12 13 11 11 14 20 20 22 23 25 21 25 29 32 33 34 33 30 30 28
20 34 34 40 35 29 26 23 19 18 16 15 13 14 16 19 20 19 17 16 14 13 13 14 12 11 12 16 19 21 23 24 24 27 26 29 34 35 35 34 33 33 33
26 27 29 29 30 28 22 19 16 15 15 14 15 18 18 16 14 14 13 13 13 13 12 10 12 13 18 20 22 23 25 27 27 27 26 27 28 31 32 32 32 31 38
27 28 30 31 28 24 20 17 16 15 14 15 15 14 14 13 14 14 13 12 12 9 9 10 13 17 18 22 24 24 25 26 28 30 25 25 26 26 25 30 31 27 19
31 29 28 25 23 21 20 18 16 16 16 17 18 17 15 13 13 12 12 10 9 8 8 10 10 13 17 18 21 24 29 33 32 29 28 23 28 28 33 31 31 20 8
28 26 25 26 24 21 22 21 21 22 22 20 19 19 16 14 13 12 10 8 7 5 5 9 12 10 9 12 16 19 20 21 22 26 28 27 29 32 34 31 29 26 22
24 26 28 29 29 27 26 25 25 24 23 21 18 16 15 12 10 9 7 5 3 1 1 3 8 12 16 21 25 29 31 32 31 30 28 30 31 35 37 33 32 29 25
25 25 28 31 30 32 32 30 26 25 22 16 13 14 13 14 12 9 7 7 5 4 6 9 12 14 17 21 25 30 33 36 35 32 31 34 39 41 35 31 27 23 14
25 25 27 28 29 30 28 27 23 19 17 16 13 16 17 18 13 11 8 4 1 5 8 10 12 14 16 20 22 25 29 33 35 39 37 33 31 32 33 32 30 26 12
31 30 30 31 31 29 25 22 19 18 21 23 21 20 18 15 11 6 2 2 5 8 11 14 16 17 20 19 18 22 26 32 34 33 32 31 31 29 28 29 30 31 18
31 31 32 32 28 25 22 21 18 23 19 18 21 21 18 13 7 2 2 5 8 9 11 13 17 19 17 16 17 19 21 25 26 29 26 27 30 29 29 26 29 30 28
31 29 28 24 24 22 21 23 23 21 22 19 22 21 19 11 6 1 5 8 9 10 11 14 17 16 15 15 19 20 20 22 22 23 23 24 27 33 34 30 27 29 27
27 25 24 22 24 23 22 25 24 22 20 19 17 17 14 8 2 5 8 10 12 14 15 16 15 15 14 19 20 20 20 22 22 22 25 30 31 30 30 28 25 24 23
26 25 26 26 28 27 23 19 19 15 13 16 13 10 7 3 2 7 9 11 12 13 12 15 17 17 19 18 17 18 21 23 24 25 27 30 30 30 32 28 26 23 19
23 24 22 25 24 23 22 20 14 12 9 8 7 5 4 3 2 7 10 9 10 10 13 12 14 15 18 17 18 20 21 22 24 27 27 29 30 33 34 21 6 8 13
28 23 22 21 19 19 16 18 16 10 8 6 5 5 3 2 4 9 9 7 9 8 11 12 12 16 17 15 17 19 23 23 26 25 27 29 32 35 32 21 16 14 14
25 22 22 21 20 21 18 13 11 9 7 5 4 3 5 2 4 8 7 7 7 10 10 12 14 17 17 17 18 21 23 24 25 27 28 29 30 32 37 18 17 14 14
26 22 19 16 13 10 8 8 6 5 4 5 5 8 10 2 6 14 5 7 8 9 9 12 16 16 17 20 22 22 23 25 24 28 26 27 28 31 31 25 13 17 18
21 16 13 12 10 9 6 5 4 4 3 3 2 5 7 6 12 11 6 7 9 8 12 15 14 16 20 22 23 20 26 25 22 26 25 27 27 28 29 30 26 12 16
15 14 11 9 7 5 4 3 3 2 2 2 3 2 4 7 8 6 5 8 9 12 14 14 16 20 21 21 17 25 28 24 25 23 24 27 26 28 29 28 25 24 14
12 10 8 7 4 3 0 1 2 2 3 2 2 4 6 6 6 6 8 10 12 13 13 16 19 20 20 19 25 24 24 23 23 24 28 26 25 26 27 28 27 28 18
10 8 5 3 2 2 2 2 2 3 5 7 8 8 8 8 8 9 10 10 11 13 15 18 20 20 22 24 18 22 22 27 25 25 27 24 27 28 28 25 25 24 25
7 6 4 3 2 4 3 5 7 7 6 5 6 8 7 8 10 10 10 12 14 16 18 19 19 25 19 22 24 23 22 23 24 25 28 29 29 28 25 25 25 25 23
6 4 4 6 6 7 6 6 5 6 8 8 8 9 10 12 12 13 14 16 19 19 18 22 26 22 22 22 22 20 22 26 29 28 27 28 29 27 26 25 25 24 25
7 7 7 8 8 8 9 9 8 9 11 10 11 13 12 12 13 15 18 19 17 19 25 28 24 22 21 23 23 25 28 29 27 26 26 27 26 26 24 25 26 24 24

GFSGL_925_spd_060.txt.gz
Wind_Speed
44 44 37 35 33 29 32 32 28 35 33 25 23 27 28 26 27 27 25 24 22 23 23 21 18 16 14 11 9 10 15 18 13 16 19 21 21 23 24 26 24 28 31
33 27 24 23 29 36 35 31 30 23 24 22 17 16 19 22 24 23 23 21 22 21 20 18 16 13 12 9 8 13 17 21 19 16 18 22 27 26 30 31 34 37 40
30 31 34 39 41 41 39 35 38 30 21 23 20 19 21 22 23 23 21 19 18 17 17 16 14 12 10 10 11 14 16 19 22 21 21 24 28 29 31 32 31 32 36
33 36 42 40 37 34 35 36 34 30 27 24 19 21 22 22 20 19 17 17 17 16 14 13 12 9 11 11 13 14 16 19 22 26 24 24 23 26 27 28 32 36 37
38 36 35 31 29 31 30 27 26 30 27 22 22 21 21 20 20 19 17 18 16 14 13 10 8 7 9 10 13 17 19 23 25 22 22 22 22 25 24 27 30 34 37
29 26 29 30 31 30 29 29 29 26 22 21 20 20 20 18 17 17 17 16 15 14 10 6 4 4 7 9 7 5 6 10 13 15 17 19 23 24 25 28 27 22 14
29 29 30 31 31 32 31 28 26 25 23 21 21 20 19 18 17 17 17 16 12 8 6 5 2 2 4 7 10 13 16 19 16 17 19 20 24 23 24 27 25 26 28
28 27 30 32 31 30 29 28 26 25 25 25 23 22 22 21 19 17 15 13 12 9 7 5 4 4 7 12 15 17 18 19 18 18 20 25 26 28 28 29 30 33 31
27 29 31 33 31 29 30 30 29 30 29 28 25 23 22 20 17 17 16 15 14 10 5 3 4 6 9 11 13 15 18 19 19 19 21 23 25 26 25 27 24 21 23
24 25 27 28 30 31 32 33 32 30 27 26 23 20 21 21 18 16 15 13 10 6 2 2 4 5 7 9 10 13 16 19 23 24 24 25 24 26 26 25 29 22 22
26 28 29 30 31 31 33 31 31 28 25 26 24 23 25 22 18 15 11 9 5 3 1 2 3 6 7 6 7 11 15 20 22 23 22 21 22 24 25 24 24 28 23
29 30 31 31 33 35 33 28 27 25 29 29 29 25 21 18 16 12 8 4 2 2 2 2 5 5 4 5 8 13 15 19 23 24 23 22 24 28 30 33 32 28 32
29 27 28 29 28 27 27 25 26 30 31 26 27 25 20 15 12 7 4 1 1 0 1 3 4 4 4 8 10 12 15 19 21 20 20 22 25 31 33 32 33 26 29
28 26 27 26 22 19 20 23 28 26 26 25 23 22 20 14 8 5 2 1 1 3 3 4 5 4 6 9 11 12 14 16 17 17 21 25 26 27 29 26 29 31 25
29 26 24 24 23 23 21 19 19 17 21 24 21 21 19 11 6 2 0 1 3 4 3 4 6 7 9 10 9 10 14 15 16 19 20 24 25 27 28 28 31 30 26
27 25 26 28 27 27 27 24 19 14 12 11 12 9 8 7 4 3 4 3 4 3 4 6 6 10 13 10 10 11 12 14 16 19 20 23 24 26 28 33 30 28 11
29 27 25 25 24 23 21 21 19 15 13 10 8 7 5 5 3 5 5 3 3 4 6 5 8 11 12 9 10 11 13 15 18 18 18 23 22 24 27 28 29 33 17
32 30 28 25 23 20 17 15 11 9 7 4 4 4 4 1 2 5 6 3 4 6 5 5 9 11 9 10 12 15 16 20 24 20 23 22 21 24 25 26 28 28 16
32 30 27 23 19 17 15 12 9 7 5 5 6 8 8 3 3 7 4 1 1 2 4 7 9 10 13 16 18 19 17 23 25 19 24 20 24 24 23 24 27 29 30
25 21 20 17 14 13 11 9 6 5 5 5 6 10 9 4 5 5 4 3 4 4 7 9 9 12 15 18 19 17 22 24 22 18 21 20 26 24 22 24 26 27 25
21 18 16 15 13 12 10 9 6 5 4 3 2 2 2 3 4 4 3 5 6 8 9 9 11 15 17 18 17 21 21 19 20 19 21 24 24 24 21 24 25 25 24
19 17 16 13 11 9 7 5 4 3 3 3 2 1 2 4 2 2 3 4 6 7 8 11 14 16 16 18 20 18 19 20 22 20 23 24 25 22 26 24 25 23 24
16 15 13 11 9 8 7 5 4 4 3 3 2 2 2 2 3 4 4 5 8 10 13 15 16 18 20 22 17 19 19 21 20 20 24 27 24 27 27 25 23 23 22
15 14 13 10 9 8 6 6 6 5 4 4 4 3 4 6 7 6 9 10 12 15 15 16 18 22 23 20 18 17 17 17 19 22 24 26 27 28 27 26 24 23 24
14 13 13 12 11 10 9 8 8 8 8 7 6 7 8 8 8 10 12 15 16 15 16 18 23 23 20 18 18 17 17 19 21 22 23 23 25 27 28 27 25 24 23
14 13 13 12 12 12 12 11 10 9 9 8 9 9 8 9 10 13 15 15 16 19 23 25 24 20 18 19 18 19 21 21 19 20 21 21 24 25 26 26 24 23 24

GFSGL_925_spd_063.txt.gz
Wind_Speed
38 33 32 30 29 28 31 34 37 36 37 30 26 26 32 28 32 36 33 32 29 27 24 23 21 19 18 16 13 11 9 9 8 9 13 18 21 22 25 26 26 26 26
34 31 29 27 26 32 40 42 41 37 34 26 28 29 31 30 33 28 27 27 28 25 23 19 17 17 15 13 9 9 8 11 13 11 13 16 19 24 27 30 31 31 32
32 33 32 33 31 41 44 47 35 41 39 35 34 30 30 28 26 22 23 23 22 22 19 19 19 16 14 11 9 8 10 11 13 15 12 16 20 22 26 27 29 31 31
36 39 40 51 56 56 48 44 38 37 42 35 33 34 31 28 25 22 22 21 18 16 15 15 15 15 13 10 10 10 10 10 13 16 17 15 19 20 23 26 30 32 33
38 39 44 48 41 36 34 35 37 34 34 31 31 30 27 25 24 22 20 19 19 18 16 15 14 10 8 9 8 9 9 13 16 16 14 15 17 16 20 23 27 31 33
38 41 41 36 32 34 34 34 33 30 29 29 32 29 27 26 22 20 21 21 20 20 19 15 12 9 8 8 6 6 5 6 8 10 15 16 17 18 20 23 23 24 22
36 33 31 31 31 32 32 30 29 29 28 28 27 26 23 19 18 18 19 21 20 19 16 13 11 9 7 5 5 7 9 11 11 11 15 17 19 21 23 26 22 24 27
25 26 26 26 24 26 26 26 27 27 27 25 23 22 21 20 20 20 21 22 19 15 13 13 10 7 4 6 8 10 10 10 9 10 12 16 18 20 22 25 27 27 29
22 24 25 26 25 26 25 26 26 26 23 23 23 24 24 23 21 21 20 19 17 15 11 8 5 3 5 7 7 9 10 12 13 14 16 17 19 18 19 23 20 21 24
22 23 25 25 26 26 28 25 24 23 23 24 24 23 25 23 17 16 16 17 16 12 8 4 2 3 3 4 5 6 9 12 17 19 18 17 16 17 17 17 22 22 22
23 24 24 24 25 27 26 24 25 26 28 27 25 21 21 20 17 15 14 13 11 9 6 3 2 3 3 1 2 4 6 11 14 15 17 18 17 19 22 21 21 21 24
25 25 24 24 23 23 26 27 28 30 29 26 25 23 21 19 16 14 11 8 6 5 4 3 1 1 1 0 2 6 8 10 14 16 16 15 17 21 26 27 27 26 26
24 23 24 24 25 27 30 29 26 27 28 24 25 24 21 17 15 12 8 5 3 2 2 1 1 1 2 2 4 6 8 12 15 17 14 17 20 26 27 28 27 26 29
24 23 24 26 26 24 25 27 27 26 24 24 22 22 22 17 13 9 6 4 3 2 2 2 2 2 2 4 6 7 10 12 15 14 17 21 22 24 23 24 27 31 28
26 26 26 26 26 24 20 18 22 21 25 29 25 27 25 16 10 7 5 4 2 2 4 5 3 1 4 5 6 7 10 12 13 15 18 20 21 24 23 24 24 27 22
28 26 26 28 26 27 30 28 18 15 14 16 17 19 14 14 12 7 6 6 3 3 5 5 3 1 3 3 4 6 8 10 12 15 18 16 21 21 23 26 22 22 24
32 29 28 26 23 23 21 23 25 23 21 16 14 14 12 13 9 7 5 5 4 2 4 5 3 1 2 2 4 6 9 10 13 18 19 16 22 19 22 24 22 23 26
26 24 23 22 24 24 24 23 21 19 16 16 10 11 11 10 8 5 3 4 5 2 4 4 2 3 3 4 6 8 12 13 17 19 18 17 21 19 22 21 21 21 25
28 26 27 26 24 23 20 17 16 14 12 13 13 10 8 6 4 2 0 3 6 5 3 3 4 5 7 8 11 14 13 15 19 17 16 17 20 22 22 22 21 22 24
29 25 23 22 19 18 15 14 12 11 10 9 10 12 10 4 1 1 0 2 3 3 3 4 5 6 9 12 14 14 16 19 18 18 17 20 20 21 22 20 21 24 22
25 22 21 19 17 16 14 13 12 10 9 7 6 5 3 1 1 1 2 2 2 3 4 4 7 10 12 14 16 17 18 18 18 18 19 19 21 22 22 20 24 22 22
24 23 21 20 17 15 13 11 10 9 8 7 5 3 1 2 1 1 0 2 3 3 6 10 12 13 14 17 18 19 18 19 18 17 18 20 23 24 21 22 24 24 21
23 22 20 18 16 15 14 12 11 9 7 6 5 5 5 4 3 3 3 5 7 10 12 14 15 17 18 19 19 17 17 18 18 17 19 22 24 23 23 24 23 22 20
21 21 19 18 16 15 14 13 12 10 9 8 7 5 6 6 6 6 7 10 12 13 14 16 17 19 22 21 18 16 16 16 15 18 20 22 25 25 24 23 23 24 24
20 19 18 16 15 14 13 12 11 10 9 8 7 7 6 5 5 8 11 12 13 15 17 18 21 22 21 18 17 17 15 16 17 18 19 20 22 24 25 25 25 25 24
18 17 16 15 14 13 13 12 11 10 9 9 8 7 4 5 8 11 12 14 18 20 21 22 21 20 19 18 16 15 17 17 18 16 17 20 21 22 23 24 25 24 23

GFSGL_925_spd_066.txt.gz
Wind_Speed
32 32 31 31 30 31 30 29 29 31 36 37 37 36 40 37 37 31 31 30 31 34 30 32 29 25 22 18 16 15 13 11 6 4 8 12 15 17 17 17 18 21 23
34 33 34 38 37 38 37 40 43 42 42 42 43 43 40 30 27 27 29 32 27 30 29 27 25 21 19 18 18 15 11 9 6 6 6 11 14 14 17 18 18 20 22
33 35 33 37 39 40 45 49 40 42 42 40 36 38 40 35 31 26 27 33 30 28 27 27 24 21 20 19 16 13 11 7 5 4 3 5 14 14 19 22 23 23 24
35 36 37 37 43 44 47 42 35 33 33 33 36 39 38 35 31 28 24 27 28 26 24 21 20 20 19 17 14 11 8 7 5 5 9 13 15 18 17 18 23 27 30
34 35 41 41 40 41 37 40 36 33 34 33 36 38 37 32 29 23 23 27 25 22 18 16 16 15 15 14 13 10 8 6 6 8 9 9 12 13 15 15 22 25 27
36 40 36 36 36 38 35 33 33 33 34 33 35 37 36 31 25 21 25 24 23 22 21 20 18 16 14 12 10 8 6 5 4 5 7 8 11 12 16 18 22 16 9
35 31 31 33 34 34 31 30 33 33 33 32 34 32 29 27 23 24 22 23 23 23 23 22 19 15 12 10 8 5 4 4 4 5 6 7 10 12 16 20 20 17 18
28 27 29 31 29 31 32 31 30 30 29 27 26 24 25 19 18 20 21 23 22 21 21 18 16 13 10 8 6 4 2 1 2 3 5 8 11 14 15 14 18 23 25
25 27 30 30 30 29 26 27 27 26 23 22 23 23 22 23 23 23 26 26 25 21 17 15 12 11 8 6 4 3 2 1 2 4 6 8 9 10 10 14 15 16 19
23 23 27 28 28 26 26 24 23 22 23 23 22 22 26 26 22 23 24 25 23 20 16 13 10 7 5 2 3 2 1 2 7 9 9 9 9 9 10 12 14 14 15
20 21 20 21 22 22 23 23 25 26 27 27 28 26 27 25 22 20 17 19 20 20 16 12 8 5 6 5 3 1 2 5 9 10 12 12 12 14 15 15 15 15 17
21 19 17 18 20 22 25 25 27 29 30 29 32 28 24 22 19 18 17 16 15 15 14 10 8 7 8 7 3 2 4 6 9 10 11 11 13 14 17 19 19 20 22
22 21 20 19 19 21 25 26 26 27 25 22 23 23 23 21 20 17 15 14 12 11 10 9 9 9 7 4 2 2 4 6 8 10 9 11 13 15 17 19 18 20 23
24 22 22 23 22 21 22 25 28 26 23 22 21 21 21 19 19 17 15 13 11 9 9 8 7 6 4 1 1 2 4 7 8 8 10 14 15 14 16 16 20 22 25
23 23 23 25 25 25 22 18 20 19 21 26 25 27 27 20 15 13 11 10 8 7 8 9 7 4 2 1 1 4 6 8 9 10 12 14 14 15 17 15 17 21 18
27 23 25 28 27 25 24 22 13 10 11 16 22 25 18 19 15 10 7 8 8 8 6 7 5 2 0 1 3 5 7 8 8 10 13 14 15 16 18 17 18 18 20
22 20 18 22 21 21 22 23 26 29 25 20 18 17 15 15 11 11 11 10 8 5 3 2 3 1 1 1 4 5 7 9 11 13 14 15 15 16 17 18 19 18 20
25 23 23 21 25 24 23 22 21 20 19 21 16 16 16 15 12 9 8 7 4 2 2 3 3 3 3 4 5 7 10 13 13 16 17 17 17 16 16 17 18 19 19
27 27 28 27 27 26 24 21 20 19 19 20 18 15 12 10 8 5 4 2 2 3 4 4 4 5 5 7 8 11 13 14 17 19 18 17 16 18 18 20 19 20 21
32 30 30 26 25 23 22 20 19 18 16 14 13 16 10 5 5 4 2 1 3 4 3 3 3 5 7 9 11 13 15 18 19 18 18 17 17 17 20 21 20 17 20
29 29 28 28 25 23 22 20 19 18 17 15 13 9 6 5 5 4 3 3 2 0 1 2 5 8 10 11 13 16 18 19 20 20 19 19 18 19 20 19 19 18 20
30 28 27 25 23 23 21 19 18 17 15 13 11 9 7 8 8 6 5 4 3 3 5 8 10 11 13 15 17 19 21 21 20 19 19 18 19 21 22 20 19 20 19
28 27 24 23 22 21 20 18 17 15 14 12 11 10 9 8 6 5 4 4 6 8 10 11 14 16 17 18 19 21 21 21 20 19 19 20 21 21 20 21 20 21 19
25 24 22 21 20 20 19 18 16 14 12 11 10 8 7 6 5 4 5 7 9 10 12 15 17 19 22 23 22 19 18 18 17 17 19 21 23 23 23 22 22 22 23
23 22 21 20 19 18 17 16 15 13 11 9 7 6 3 2 3 6 8 9 12 15 17 19 20 20 20 21 20 19 18 16 17 19 20 21 20 22 23 24 24 24 23
20 20 19 18 18 16 16 14 12 11 10 8 7 4 4 5 7 9 12 15 17 18 20 19 19 21 22 21 19 17 17 18 18 17 18 18 20 22 23 23 24 22 23

GFSGL_925_spd_069.txt.gz
Wind_Speed
35 34 35 37 40 41 39 39 42 40 40 38 36 34 34 31 31 29 28 25 27 28 30 33 30 31 29 28 26 22 20 15 10 7 11 11 10 7 8 7 9 12 11
38 38 37 36 40 41 44 48 49 51 48 46 43 41 36 32 32 31 30 32 29 30 33 29 31 31 28 24 22 22 19 17 7 9 10 7 7 7 12 11 10 10 11
33 36 36 36 35 38 41 38 34 31 30 31 33 37 37 36 36 35 32 36 34 37 34 32 30 26 23 22 21 20 17 15 13 8 6 9 9 11 9 9 10 11 12
34 35 36 38 40 40 38 36 34 33 32 30 32 35 31 28 34 36 34 37 34 34 30 25 26 25 24 22 21 22 19 15 13 12 9 6 6 6 7 9 12 11 15
33 35 40 36 36 35 34 34 32 30 31 29 30 30 27 30 32 33 34 32 31 29 24 20 21 21 20 22 25 23 19 16 14 11 6 5 7 6 7 7 12 14 16
33 35 29 31 32 36 36 35 33 31 30 27 27 28 29 32 35 33 35 31 28 28 25 21 19 20 21 21 19 17 15 15 12 8 6 6 7 6 7 9 11 12 7
31 29 29 30 31 31 30 30 32 31 28 28 28 29 30 32 33 32 29 29 29 28 25 26 25 23 22 21 18 14 11 9 8 7 5 5 5 5 7 10 10 11 14
28 29 28 29 29 28 28 28 27 25 27 27 31 31 31 30 27 25 28 28 27 25 27 28 27 23 19 18 15 12 9 6 4 4 3 3 5 6 8 10 12 14 16
28 29 28 28 27 27 26 24 25 26 26 25 25 25 24 19 22 29 29 28 27 26 24 22 22 21 19 14 12 12 9 7 4 3 3 5 6 7 8 7 10 12 13
22 22 23 23 22 22 23 23 22 21 20 18 17 17 18 24 28 27 29 32 32 29 25 22 17 15 14 13 11 10 10 7 4 2 2 4 4 5 6 5 7 11 12
15 17 19 20 22 22 21 21 20 18 18 19 20 18 22 26 26 24 29 32 33 29 24 19 16 13 12 11 9 8 7 7 3 2 2 3 3 4 5 7 8 10 13
22 22 21 20 19 17 19 19 20 23 24 24 27 26 24 24 24 22 21 21 24 25 21 15 15 14 12 11 9 7 5 3 2 1 2 2 4 5 7 9 12 13 15
25 24 22 22 20 20 23 24 23 23 24 21 22 21 20 22 21 20 19 20 18 19 16 16 17 16 13 10 7 4 3 1 0 1 2 4 6 8 10 11 13 14 17
25 23 23 22 23 20 20 21 23 23 20 22 20 20 21 23 23 21 23 21 18 18 19 18 15 11 8 9 6 3 2 1 1 2 4 6 7 8 10 11 14 15 19
22 22 25 25 25 24 21 18 21 19 26 30 24 27 26 18 15 20 20 19 16 14 16 14 11 8 6 5 4 2 0 1 2 3 5 7 9 10 11 11 13 15 18
19 17 19 20 22 24 25 28 18 14 15 21 26 28 22 25 22 19 17 16 13 16 11 10 8 6 4 3 2 2 2 3 4 6 7 9 11 12 12 13 13 15 18
17 19 24 21 19 22 24 23 27 31 29 23 22 25 25 23 20 19 17 17 13 9 8 7 6 4 3 2 2 2 4 5 6 8 9 11 12 13 13 14 15 16 18
26 25 27 22 22 26 26 25 22 22 25 26 25 25 23 22 19 17 16 12 8 6 5 4 4 3 2 1 2 4 6 8 10 10 12 12 13 13 14 15 15 16 18
29 26 25 27 26 24 25 24 23 22 23 25 23 22 21 19 17 13 9 7 6 5 4 3 2 1 0 2 4 6 8 10 11 13 14 13 13 13 15 15 16 17 19
32 31 28 27 24 24 22 21 19 18 18 17 15 13 11 10 10 9 9 8 7 6 4 3 3 2 3 5 7 9 11 13 14 14 15 15 14 14 15 16 17 18 19
30 31 28 27 25 21 21 19 18 18 17 16 15 12 11 10 10 9 9 9 7 5 5 4 4 4 6 8 10 12 13 15 16 16 15 15 14 15 15 15 16 18 19
27 27 26 24 21 22 19 17 17 17 17 16 15 14 13 12 11 10 9 8 6 5 5 5 5 6 8 10 12 13 15 15 15 14 14 14 14 14 15 16 16 16 18
25 25 24 24 22 21 20 17 16 16 16 15 13 11 11 10 9 8 7 5 5 5 6 7 9 11 11 12 13 13 15 15 14 14 14 14 15 15 15 17 17 17 18
22 21 21 20 19 18 17 16 15 16 13 12 11 10 9 9 8 6 5 5 5 7 10 12 14 15 15 15 13 13 13 13 13 13 13 15 17 16 16 17 17 18 20
20 20 19 17 17 16 16 14 13 12 11 9 8 8 7 6 5 5 5 8 10 12 13 14 14 13 14 18 18 17 15 15 13 14 15 16 17 18 18 18 18 19 19
18 18 17 16 16 14 13 12 10 10 10 9 8 7 6 5 5 7 8 9 11 12 13 11 13 16 18 17 15 15 15 15 15 14 14 15 16 16 16 17 18 19 19

GFSGL_925_spd_072.txt.gz
Wind_Speed
34 34 34 35 36 37 38 38 40 37 37 38 36 35 37 36 34 31 32 32 32 31 29 25 26 26 27 27 25 26 28 24 12 9 14 17 17 12 11 10 10 10 12
33 34 35 33 34 36 39 40 39 40 38 39 38 37 37 38 36 35 34 33 32 32 29 25 28 30 30 30 28 33 31 28 17 15 19 15 16 12 12 11 9 12 13
31 33 33 34 36 38 38 37 36 37 37 36 37 38 39 39 39 39 36 33 31 29 26 27 30 28 29 35 33 29 27 26 23 14 11 11 11 11 10 9 10 11 13
33 34 35 37 39 37 36 36 37 37 37 37 38 38 37 36 34 32 34 35 38 40 41 38 36 38 41 37 33 30 28 25 20 16 13 10 9 9 9 9 11 12 12
34 35 38 36 34 33 33 34 35 35 36 36 36 37 36 35 35 35 32 33 38 38 39 39 37 39 36 37 35 32 30 28 20 16 12 8 9 11 11 9 10 11 13
34 36 33 32 33 34 33 32 33 34 35 34 34 35 34 33 36 38 33 32 35 35 36 34 32 31 28 31 31 30 30 26 19 13 12 11 13 10 9 9 9 10 10
33 31 31 30 31 32 31 32 33 34 32 32 32 32 32 32 33 36 33 34 34 34 34 32 28 27 29 30 26 26 22 19 16 14 12 10 8 8 8 9 10 11 13
29 29 29 30 30 28 28 30 29 28 30 29 29 30 27 29 33 30 30 34 29 26 27 28 30 29 30 30 27 22 18 14 12 10 11 8 6 6 7 8 9 11 14
29 31 30 29 28 28 28 26 24 23 22 23 23 28 31 34 31 29 30 29 24 22 23 25 29 30 28 25 25 18 14 11 11 11 11 11 9 9 8 5 9 10 12
27 28 26 27 26 27 25 24 24 23 24 24 23 22 21 20 18 22 29 27 25 24 22 22 25 25 22 15 19 21 17 11 7 4 3 2 3 4 7 6 8 11 12
19 20 22 23 23 20 22 23 23 22 19 16 14 11 11 14 22 27 26 24 27 26 26 24 21 22 19 16 14 11 14 12 10 6 5 4 4 5 5 6 8 10 13
10 14 14 15 19 22 25 21 20 25 24 22 19 17 16 17 20 21 21 22 27 30 26 22 19 18 17 17 13 14 14 11 6 4 3 3 4 6 7 9 10 12 15
13 15 20 20 19 17 23 24 26 18 19 19 22 20 21 22 22 21 25 27 25 25 21 23 21 18 15 14 14 13 10 5 4 2 2 4 6 7 9 11 12 13 16
16 20 17 21 21 17 17 19 21 22 19 20 20 19 21 24 24 28 26 25 24 25 23 23 19 13 11 12 9 7 5 3 1 2 4 6 7 8 10 11 14 15 16
18 19 21 21 22 24 21 15 16 18 19 23 23 26 24 20 19 25 26 25 24 22 20 16 11 9 7 6 5 3 2 0 1 2 4 7 9 11 13 13 14 15 17
16 17 19 19 20 21 24 28 20 20 19 24 29 31 24 28 26 24 23 23 23 18 12 10 8 7 6 5 4 3 1 1 2 4 7 9 10 12 14 14 15 16 18
19 16 20 21 19 19 19 22 28 35 34 27 27 30 29 28 26 25 25 21 16 12 9 8 6 5 4 3 2 0 1 2 4 7 9 10 12 14 15 16 16 17 18
25 25 19 22 26 23 21 19 24 24 27 27 29 30 27 26 26 23 18 16 13 11 9 8 7 5 4 2 1 2 4 6 8 9 10 12 13 15 16 17 17 17 18
28 27 24 27 26 28 27 24 26 24 25 26 26 26 25 24 20 15 12 10 10 9 8 7 6 5 4 3 3 5 6 8 9 11 12 13 14 15 17 17 18 18 18
31 31 28 26 24 23 24 24 21 21 20 18 17 15 13 13 13 12 11 11 10 9 8 7 6 5 4 5 6 8 10 11 13 14 15 16 16 16 17 18 18 19 19
26 28 26 27 24 23 23 20 19 19 18 17 16 15 15 13 12 12 11 11 10 8 7 6 5 5 6 8 9 11 12 13 14 14 15 15 15 16 16 17 17 18 19
22 22 21 21 20 20 20 19 18 18 16 16 15 15 15 13 12 11 10 9 8 7 5 5 4 6 7 8 9 11 12 13 13 13 14 14 14 15 15 16 17 18 18
21 20 20 21 20 19 19 18 17 16 16 14 13 12 11 10 9 8 8 7 6 5 5 5 5 6 7 8 9 9 11 11 12 12 13 14 14 14 15 17 17 18 18
19 20 20 19 19 18 17 16 17 16 14 12 11 10 9 8 8 7 6 5 5 5 6 6 6 7 7 8 8 9 10 10 11 12 12 13 15 15 16 17 18 18 19
18 18 17 17 15 15 14 14 13 12 10 9 9 8 7 6 6 5 4 5 5 6 6 7 6 7 8 11 12 11 11 11 11 12 12 13 15 16 18 18 18 18 19
17 17 15 14 15 14 13 12 11 10 9 9 8 6 6 5 4 5 5 5 6 7 7 7 8 10 12 11 10 11 13 13 12 12 11 13 15 16 16 17 18 19 20

GFSGL_925_spd_078.txt.gz
Wind_Speed
32 33 33 33 33 34 34 32 36 34 36 39 43 41 40 37 39 38 38 36 35 35 36 34 34 35 33 34 34 34 33 30 19 24 28 21 22 26 28 27 25 28 28
30 32 33 33 34 36 37 37 35 36 36 39 37 42 43 43 39 40 38 38 38 35 35 35 36 36 36 36 35 36 34 36 28 21 25 29 30 34 33 29 28 26 26
28 30 31 33 33 35 36 35 35 36 37 37 39 40 42 44 43 43 43 42 40 38 38 38 37 37 35 34 35 33 34 34 33 26 22 29 33 34 34 32 30 28 27
27 30 32 34 35 35 33 33 34 37 36 37 40 39 41 41 43 43 43 43 43 42 42 41 41 40 37 36 37 36 31 30 32 31 29 22 25 22 30 26 24 33 30
30 29 34 32 31 31 33 34 35 35 36 38 37 40 38 40 41 42 44 43 42 42 43 44 43 44 44 41 39 34 34 30 26 28 26 14 18 16 28 25 23 21 21
30 34 31 31 32 34 34 34 35 37 38 38 39 40 39 41 41 45 43 40 39 39 38 40 43 42 42 44 48 44 39 33 33 30 28 22 27 25 23 23 18 8 4
30 33 31 31 33 35 35 34 37 38 37 40 39 39 41 42 43 46 47 43 37 37 39 35 36 40 42 40 36 37 31 37 35 28 19 7 9 13 20 16 11 8 1
26 29 31 32 34 33 34 37 37 36 37 36 38 38 38 40 40 44 43 46 40 39 34 35 37 36 38 35 33 22 11 7 8 12 16 17 15 14 16 13 13 9 10
26 24 29 30 29 30 31 35 35 32 33 35 33 34 36 35 36 36 37 40 37 33 31 30 30 33 30 25 20 19 20 21 19 20 18 17 15 13 11 10 7 8 4
35 33 27 30 31 31 33 31 30 31 31 28 29 33 35 34 35 36 35 38 32 26 19 17 12 15 14 16 21 27 27 21 20 20 19 17 12 8 5 8 9 5 0
31 31 31 24 29 32 31 30 28 27 26 28 23 15 16 20 23 27 31 33 34 24 20 18 17 20 21 22 23 25 27 24 21 20 18 13 13 12 9 6 2 0 1
25 25 28 29 20 5 23 20 22 25 24 21 18 15 10 7 8 14 19 23 26 28 28 28 28 28 28 29 29 28 27 24 21 18 15 14 13 10 6 4 1 4 6
21 23 26 20 22 17 11 15 16 18 21 20 19 18 14 11 10 9 13 21 25 30 30 33 31 33 34 31 27 23 19 18 17 16 14 10 10 5 1 3 5 6 7
17 22 24 26 26 24 19 12 12 13 14 12 13 17 20 21 20 24 26 29 41 41 33 31 31 31 31 29 23 20 19 17 16 14 10 8 6 6 5 4 5 8 11
17 19 23 24 25 25 33 26 20 13 12 19 19 20 22 24 17 22 30 25 31 32 34 28 25 22 24 23 23 18 19 16 16 13 11 10 8 7 6 7 8 10 11
17 20 21 23 22 23 22 32 42 40 34 31 27 34 24 38 37 30 35 36 33 26 27 23 20 17 18 20 19 17 18 16 13 11 10 8 8 9 10 11 12 13 14
20 21 22 20 25 20 22 21 25 41 49 46 42 36 36 39 38 30 26 29 24 23 23 23 23 21 22 21 20 17 15 13 11 11 11 10 9 9 10 11 12 13 14
26 26 24 22 25 22 26 18 26 22 30 35 36 37 34 32 30 25 28 32 28 26 23 21 22 21 20 19 17 15 13 11 10 8 7 6 7 8 11 11 12 14 14
25 24 25 24 24 25 26 23 24 23 28 27 27 31 31 33 34 32 30 26 23 22 24 24 22 21 20 17 13 11 9 8 7 8 8 9 9 9 10 10 12 14 15
29 28 26 25 24 23 24 22 23 26 25 24 22 22 25 29 29 28 28 27 25 23 22 21 18 16 15 13 11 10 10 10 10 9 8 8 7 7 9 10 11 13 14
24 25 25 24 23 23 22 23 24 26 26 25 26 28 26 26 23 23 23 24 23 20 19 17 16 14 13 12 11 10 8 7 7 6 7 7 8 9 10 11 11 13 15
24 24 25 25 24 23 23 22 22 23 22 22 24 25 24 24 22 20 20 18 15 15 14 15 13 12 9 9 8 7 7 6 6 6 7 7 8 9 10 12 13 14 16
22 22 21 21 22 23 23 22 21 22 21 20 20 20 21 21 19 17 17 15 14 12 10 10 8 8 5 6 7 5 6 5 4 4 4 6 7 10 10 12 13 15 16
21 20 19 20 20 20 20 19 20 21 18 18 18 17 17 17 15 14 12 9 11 10 8 9 8 8 6 2 2 0 4 7 7 5 5 5 6 8 10 13 14 16 17
21 19 19 19 18 18 18 19 18 18 17 17 17 16 15 13 12 11 10 8 7 8 8 6 5 4 6 8 7 5 7 10 11 9 3 2 7 8 10 13 15 16 17
20 19 19 18 18 18 17 17 16 15 14 14 13 11 11 11 9 9 8 6 7 7 4 5 4 7 8 5 6 9 12 10 6 7 7 5 7 11 13 14 16 18 20

GFSGL_925_spd_081.txt.gz
Wind_Speed
34 34 33 32 32 30 33 36 35 34 39 40 40 41 41 40 44 43 41 40 39 38 37 37 40 40 36 35 36 36 32 28 20 29 32 35 33 32 31 33 34 34 32
35 35 35 34 35 32 31 35 36 35 39 44 41 39 41 41 42 42 41 39 38 38 38 36 39 36 34 34 35 35 34 34 31 27 34 34 35 38 38 37 35 36 35
32 38 35 35 36 38 36 34 31 36 35 39 41 41 40 41 42 42 43 41 41 41 40 38 41 37 38 36 36 34 35 36 34 33 32 33 36 37 36 35 39 40 39
33 33 34 36 37 36 36 37 39 38 38 37 41 42 42 43 44 44 42 43 43 43 42 43 42 39 43 39 39 37 38 34 30 30 28 24 27 33 32 25 28 34 32
31 31 34 35 36 34 37 38 38 39 40 40 39 40 40 41 45 44 44 43 44 44 44 44 45 46 46 44 37 38 34 34 29 24 24 22 19 19 22 29 29 25 26
27 33 30 35 37 39 39 36 36 38 40 38 41 42 41 43 45 46 44 42 42 42 43 43 44 46 49 49 48 48 42 36 31 27 30 27 27 26 25 23 19 11 5
16 20 25 29 34 38 36 34 38 39 36 38 38 38 40 43 44 47 50 45 40 41 41 40 40 42 45 47 46 47 45 41 42 37 32 33 27 31 29 23 23 19 10
23 22 25 17 27 31 32 36 38 37 37 37 38 37 36 40 42 47 45 50 43 40 42 42 42 45 45 43 38 31 24 23 26 28 28 27 20 22 25 25 23 18 13
22 24 23 26 26 22 30 36 38 34 34 36 36 36 37 39 39 41 44 47 43 40 40 42 44 44 41 40 34 25 15 9 8 9 12 16 17 17 19 23 18 18 5
26 24 22 25 27 25 21 31 34 34 35 33 32 34 39 40 37 40 42 43 36 36 35 30 33 35 35 36 35 31 27 26 28 28 27 26 23 19 16 14 12 10 7
26 23 21 22 23 25 29 22 28 31 31 30 31 28 28 31 36 38 38 38 41 36 30 22 19 16 21 23 23 29 33 34 28 27 25 23 22 20 17 16 13 8 6
24 23 21 21 23 25 27 24 20 16 31 25 23 15 11 11 12 15 26 31 31 28 17 19 21 22 23 23 24 31 32 31 30 26 26 22 22 18 16 11 8 6 4
22 22 24 21 25 25 29 30 25 22 8 8 13 15 14 14 14 11 9 15 22 30 34 38 39 39 37 35 33 31 29 26 25 23 21 21 16 11 6 6 5 5 3
19 20 22 23 24 30 31 30 27 25 17 14 14 15 20 22 24 26 31 39 40 43 35 32 40 42 39 34 29 28 27 26 23 23 19 16 16 14 11 7 6 5 4
16 18 19 21 22 25 37 34 32 35 20 16 16 17 17 23 24 27 34 25 40 36 39 34 28 26 28 29 26 26 24 21 23 20 18 16 13 11 11 8 8 8 7
14 17 19 19 20 21 23 34 46 47 45 39 38 30 33 30 34 38 40 37 32 34 32 28 21 22 20 21 23 23 23 19 18 17 16 13 12 10 9 9 9 9 8
19 19 19 21 19 18 20 21 25 38 47 41 41 43 31 31 24 35 36 36 32 34 29 25 22 22 24 23 20 21 19 18 15 15 12 12 10 10 10 10 10 11 9
23 25 24 24 22 22 21 21 22 24 27 27 36 36 37 29 31 28 32 38 34 30 26 25 22 23 22 23 21 18 17 15 14 14 14 12 11 11 12 11 12 14 14
24 25 25 26 26 22 19 22 21 23 23 23 24 30 29 34 30 31 27 30 27 26 26 26 24 23 22 21 20 18 17 17 15 13 12 12 11 10 11 11 12 12 13
29 26 25 24 24 23 22 24 23 25 25 23 23 23 26 32 31 27 28 29 27 25 23 22 21 21 19 18 17 16 15 13 12 12 11 10 9 9 10 10 11 13 13
26 26 25 25 23 22 23 24 23 23 22 23 24 26 26 26 23 23 23 25 24 23 22 19 19 18 16 15 14 14 13 11 10 9 7 7 7 8 8 8 9 11 13
24 24 24 23 22 23 23 23 22 21 20 19 21 22 22 24 21 20 21 20 20 19 17 15 16 15 13 12 10 10 9 9 7 5 4 4 5 6 7 7 9 11 13
25 25 23 20 19 21 22 21 20 19 19 19 19 20 20 20 20 20 20 17 17 15 13 12 11 10 8 8 6 5 5 6 5 5 5 4 2 3 5 7 9 11 14
24 22 21 22 23 23 23 22 22 21 21 21 21 20 18 17 17 16 15 15 16 14 12 11 10 10 8 5 2 3 4 6 7 7 6 5 5 4 4 6 10 13 12
22 23 23 22 21 22 23 22 22 21 21 20 18 18 17 14 13 13 12 10 10 12 10 7 8 9 7 5 7 7 8 9 9 4 3 4 3 2 4 8 10 12 13
20 21 21 20 20 19 18 19 19 16 15 17 15 13 11 12 10 9 9 7 7 6 5 5 6 5 6 6 6 9 9 6 5 4 2 1 3 4 6 9 10 13 16

GFSGL_925_spd_084.txt.gz
Wind_Speed
35 34 30 30 31 33 32 34 34 35 38 37 39 41 40 41 41 43 41 40 42 41 43 44 46 43 38 40 42 37 33 30 19 29 33 38 38 37 37 37 39 43 43
35 33 34 32 32 33 32 35 36 33 37 40 39 42 43 43 44 45 41 37 40 38 37 38 43 41 41 41 40 37 34 34 29 25 28 30 36 42 42 41 48 48 45
28 31 30 31 33 34 34 34 35 35 34 35 39 41 41 42 41 44 44 42 43 41 41 41 42 38 39 39 38 37 35 35 32 29 29 32 32 36 41 41 44 45 45
24 27 30 33 36 37 35 35 36 37 37 37 38 38 40 42 42 42 42 43 44 44 43 46 44 43 44 41 38 39 38 32 31 28 29 30 30 33 36 28 33 43 44
21 25 28 32 34 33 35 38 38 39 42 39 40 41 40 41 42 43 42 41 42 42 42 44 45 47 49 47 41 41 36 34 33 30 29 28 25 20 24 32 31 27 31
13 11 15 21 24 29 33 37 37 40 39 37 40 39 41 44 44 45 43 41 40 41 42 43 44 45 51 52 53 52 44 37 36 31 31 28 32 29 31 29 25 17 5
22 22 18 15 8 25 28 29 36 39 34 39 39 40 41 43 46 48 49 46 40 41 42 41 40 42 44 47 51 51 52 53 48 44 38 38 37 36 32 30 30 25 16
23 21 20 22 19 16 12 23 33 33 34 37 39 40 41 44 45 47 48 49 46 43 42 43 42 42 42 45 45 44 49 53 54 54 51 42 35 26 27 29 27 18 15
24 23 22 20 20 18 18 20 18 28 32 36 39 37 39 43 44 46 49 50 46 46 44 44 43 42 44 46 46 46 40 32 29 28 29 24 22 19 20 21 20 22 5
23 21 20 19 19 19 21 22 21 21 27 35 36 38 39 41 41 44 45 44 39 39 38 41 44 47 45 47 49 40 32 24 21 23 24 24 21 19 18 18 23 17 14
22 21 21 21 19 20 23 21 20 21 22 21 28 25 27 30 31 36 39 44 38 33 37 40 38 36 34 33 36 29 26 31 28 28 25 25 27 27 25 19 19 16 16
20 21 23 25 27 23 24 26 25 22 18 14 9 13 14 12 9 13 25 32 34 30 19 12 12 13 16 17 19 26 39 37 33 30 28 24 23 24 20 17 13 14 12
17 18 22 22 28 26 26 27 26 23 19 16 16 17 20 23 26 26 15 12 14 25 32 36 36 37 39 37 32 31 31 26 28 26 23 23 21 17 19 15 13 12 11
14 16 17 20 24 29 28 27 27 25 19 16 15 16 17 22 21 20 26 32 36 40 33 40 45 44 39 34 32 29 30 24 24 22 24 23 20 18 18 14 12 9 8
13 14 15 17 19 24 34 35 31 37 29 20 19 17 19 21 21 20 20 27 28 32 34 31 26 29 31 30 29 29 26 29 26 23 22 22 18 18 15 12 12 10 10
16 17 17 17 17 18 20 27 41 44 43 38 29 25 29 31 31 34 25 25 32 29 32 25 22 19 25 24 23 25 24 22 23 21 21 18 16 15 12 14 13 13 11
19 18 18 19 19 19 19 17 18 28 38 43 39 37 35 32 32 32 31 28 29 34 29 27 23 19 21 22 21 20 21 21 19 18 17 16 14 14 13 14 13 12 9
22 23 22 20 18 20 19 19 19 19 22 25 31 34 34 33 32 27 27 31 32 30 23 25 26 24 21 18 19 17 19 18 18 17 16 15 13 13 15 12 11 11 8
22 22 22 24 23 23 22 23 23 22 23 22 24 28 27 28 31 32 31 30 26 26 21 25 23 23 23 20 18 17 18 17 16 15 15 15 14 14 15 14 12 14 13
23 22 22 22 22 22 21 21 22 21 22 23 24 22 23 27 30 29 29 28 27 23 23 22 20 20 20 18 18 17 16 15 14 14 14 14 13 13 13 14 15 13 11
20 21 21 21 20 19 19 19 19 20 20 21 22 23 24 26 24 24 24 24 22 20 19 18 18 17 15 14 14 15 15 14 13 11 11 12 11 12 10 10 10 11 13
18 19 20 19 17 18 18 18 19 19 19 19 19 20 20 23 22 22 21 20 19 18 16 15 16 15 13 12 11 11 11 11 9 9 8 7 6 7 6 7 9 10 11
18 17 18 18 18 18 19 19 20 20 20 20 20 20 20 21 20 20 19 17 15 15 14 13 12 11 9 9 8 8 8 7 6 5 4 3 3 4 4 6 7 8 9
16 17 18 18 19 19 19 19 18 18 18 18 17 18 17 17 18 16 14 13 13 12 13 12 11 10 8 8 7 6 6 7 7 6 4 2 0 1 1 2 6 7 10
16 17 18 18 18 19 19 19 18 16 16 15 14 12 11 11 12 12 9 8 8 8 9 9 10 10 8 7 6 8 8 7 5 3 2 2 3 2 1 2 5 8 9
17 16 16 15 16 15 15 16 15 14 12 11 10 9 7 7 8 8 5 4 3 3 4 5 6 7 8 7 8 9 7 6 5 3 2 3 3 2 2 3 5 8 10

GFSGL_925_spd_087.txt.gz
Wind_Speed
28 29 27 27 28 28 27 28 29 29 32 36 36 37 40 37 37 38 37 34 37 38 38 40 45 43 40 40 39 38 32 30 14 30 33 37 36 38 39 38 37 38 40
20 22 24 27 28 28 27 28 30 29 30 33 38 39 40 41 41 40 38 34 38 36 36 36 38 38 38 39 40 39 38 38 33 31 35 33 40 44 44 44 45 44 45
22 25 25 26 27 28 27 28 31 32 32 32 33 34 34 38 39 44 44 42 40 42 42 39 40 39 38 35 34 34 35 34 31 29 33 33 33 37 42 44 45 44 45
22 24 23 24 25 24 26 28 29 34 33 34 36 36 37 37 39 40 41 43 41 41 44 46 42 41 43 39 37 38 35 32 31 29 31 35 33 31 32 30 31 39 44
17 19 20 25 25 29 28 30 32 33 36 36 36 38 39 41 42 41 40 40 41 41 42 43 46 48 48 46 39 40 35 34 34 33 31 31 31 27 28 34 29 34 35
23 20 3 11 20 25 28 29 29 34 36 34 36 36 37 42 43 47 47 41 40 40 42 43 45 47 52 53 54 55 47 38 37 35 33 30 34 34 32 33 32 23 10
21 20 18 14 11 11 5 18 29 33 31 34 36 37 41 42 45 47 49 47 40 41 42 42 40 42 45 45 50 55 57 58 55 47 39 39 36 36 34 31 32 32 33
22 22 21 18 15 15 12 11 12 10 21 32 36 38 40 43 47 48 48 48 44 43 43 44 42 43 42 44 44 41 49 56 61 63 56 50 43 39 39 38 36 28 18
21 20 20 19 16 15 16 16 16 18 19 20 22 33 35 41 42 45 46 47 45 46 45 44 43 45 47 46 45 41 40 40 43 44 46 44 48 50 46 38 23 21 4
18 17 19 20 18 18 17 17 18 17 17 20 21 16 12 13 12 21 37 40 38 40 43 45 47 49 46 48 49 41 33 32 31 18 12 9 7 8 13 20 21 13 8
14 14 18 21 18 20 19 19 18 17 17 18 14 14 15 21 16 17 16 25 30 32 33 28 27 39 49 49 44 39 32 26 21 20 20 21 23 25 25 21 14 16 18
11 16 19 20 19 18 20 22 21 20 18 20 19 19 20 22 28 26 20 13 9 7 10 9 9 4 5 7 5 20 27 32 30 28 24 22 23 27 26 25 25 26 23
12 14 18 22 23 22 24 23 21 19 18 17 17 17 19 21 21 26 30 23 22 31 33 30 26 31 37 38 35 33 30 28 28 24 26 26 25 23 23 24 24 24 22
15 16 18 21 25 28 25 26 28 24 19 17 16 16 17 22 22 22 24 25 30 32 32 30 35 33 34 31 30 33 33 30 29 25 20 22 23 24 22 18 19 20 23
16 14 13 15 19 24 32 32 29 36 29 20 22 21 19 23 27 26 25 25 23 25 29 32 30 27 29 31 31 33 32 30 28 25 24 21 23 23 23 20 19 21 19
13 15 16 16 19 18 17 21 31 35 36 36 33 27 30 29 29 30 30 29 27 26 33 26 26 27 27 27 27 25 31 28 26 24 23 21 20 20 19 20 18 17 15
16 14 15 15 17 17 19 17 14 18 27 33 33 32 30 26 26 27 29 29 28 31 30 27 24 25 26 26 24 24 23 21 18 19 19 19 17 16 18 17 13 12 13
19 20 20 21 22 23 23 22 21 19 18 22 26 29 30 30 29 26 24 28 31 30 26 23 23 24 23 22 22 22 21 19 20 19 17 17 17 17 17 15 12 12 11
21 21 21 22 22 22 23 24 23 22 20 20 25 28 26 25 28 29 28 31 24 24 23 25 24 23 22 21 20 19 18 18 18 17 16 17 16 16 16 14 14 13 12
20 19 20 20 20 21 21 21 21 21 22 23 25 23 21 23 29 28 27 26 25 23 21 21 20 19 18 17 15 15 16 16 16 15 16 14 14 14 13 13 12 12 11
19 19 19 20 20 20 20 20 20 21 21 22 23 21 22 26 24 24 23 23 21 19 18 18 17 16 15 14 13 14 15 14 13 12 12 11 10 12 10 9 9 9 9
16 17 17 18 18 19 19 19 19 20 20 20 20 20 20 23 23 22 21 20 18 17 15 14 15 15 13 13 12 11 12 11 10 8 7 7 7 8 7 7 7 8 10
16 16 17 17 17 17 18 18 18 18 19 19 19 19 20 20 20 19 18 16 16 15 14 13 11 11 10 9 8 7 6 6 5 4 3 4 4 5 5 6 8 10 13
14 15 16 16 16 17 17 17 17 16 16 16 16 16 16 15 14 13 12 11 10 11 12 13 11 10 9 8 8 8 8 8 7 4 3 2 2 3 4 5 7 9 9
15 16 17 16 15 16 16 15 15 14 14 12 12 11 11 11 11 10 8 7 6 7 9 9 10 9 8 8 9 10 8 8 6 6 4 3 2 2 2 3 4 5 7
14 15 14 13 13 13 12 12 11 9 10 9 8 7 6 7 8 7 5 4 5 6 6 6 6 6 8 9 8 8 8 8 7 4 2 1 1 2 2 2 2 5 7

GFSGL_925_spd_090.txt.gz
Wind_Speed
22 21 20 21 19 22 21 22 21 22 26 28 30 31 31 31 31 33 36 38 37 37 38 39 43 37 37 37 38 34 34 31 20 26 29 31 33 34 40 42 39 38 43
21 22 21 19 21 22 20 20 19 21 22 26 29 32 34 35 35 35 36 34 36 37 40 38 39 38 36 38 36 38 38 36 33 27 35 33 35 44 46 45 49 51 49
20 20 19 20 22 24 20 21 22 22 21 21 25 31 33 35 36 38 39 38 38 40 39 39 39 37 36 35 34 34 34 34 32 30 33 36 37 37 41 46 47 45 47
18 18 18 21 23 25 24 21 22 24 27 27 27 27 29 31 34 37 38 38 37 39 41 42 39 40 40 37 36 37 34 31 29 29 31 34 31 32 34 32 32 40 44
13 15 18 20 20 22 23 26 24 24 27 29 31 33 33 34 35 35 36 38 40 39 39 42 44 44 44 43 38 39 33 32 33 32 30 30 30 29 29 35 31 36 35
21 19 18 17 5 9 17 25 27 28 29 30 34 35 36 39 39 39 40 38 37 36 36 38 41 42 49 51 52 55 49 38 37 35 34 32 37 38 35 33 31 27 16
22 18 16 14 12 9 6 3 1 4 16 26 30 31 34 36 39 40 42 42 35 35 40 41 40 41 44 45 49 54 57 57 57 47 39 38 38 37 37 36 34 34 34
24 23 20 16 14 13 11 10 9 8 7 8 9 13 24 29 29 35 41 44 44 41 40 42 41 42 42 43 45 42 47 54 58 62 58 53 47 39 39 39 37 36 29
22 20 19 19 17 15 14 14 14 13 12 11 11 11 11 4 11 13 26 30 36 41 43 43 42 41 45 43 44 40 40 41 44 47 37 35 37 46 49 42 29 20 5
18 17 17 18 18 17 14 14 12 13 11 10 11 14 17 15 23 22 18 14 22 27 33 35 31 37 38 38 43 41 36 36 31 22 16 5 3 3 11 15 23 24 9
15 17 18 20 19 19 16 15 16 15 15 17 16 18 19 23 25 25 20 12 9 9 12 15 16 16 19 22 24 24 19 17 19 19 22 24 24 25 24 19 14 10 14
12 15 18 20 20 19 20 20 20 19 18 19 18 19 23 22 23 28 24 19 14 18 23 23 24 29 25 16 16 18 19 26 27 30 30 28 24 24 30 31 32 31 29
15 18 21 23 23 20 23 21 19 20 19 17 17 17 19 22 22 23 24 28 29 31 27 26 26 28 31 35 32 30 30 27 28 28 23 24 25 23 24 28 32 29 30
16 18 18 22 24 27 25 26 27 23 20 20 18 18 19 22 22 21 21 22 23 27 29 32 34 36 38 37 35 38 33 33 35 27 27 25 27 26 23 21 21 22 26
12 13 15 16 17 23 31 29 28 32 26 21 22 21 19 22 24 24 23 24 25 26 28 32 33 31 31 32 34 31 33 32 27 26 24 24 26 25 24 20 20 20 18
12 15 16 16 15 15 14 19 27 29 30 28 25 23 23 22 23 23 24 24 24 26 33 26 24 25 26 25 25 27 28 26 23 24 23 23 21 18 17 16 16 17 18
13 12 13 14 14 14 17 17 14 17 25 28 29 28 25 21 21 21 24 26 27 31 30 24 23 23 22 24 25 23 22 21 20 20 20 17 16 16 14 13 14 14 15
17 17 18 17 18 19 20 20 20 20 18 23 22 25 25 24 23 19 18 25 31 30 27 24 22 22 22 22 23 22 21 20 21 19 18 18 18 14 14 14 15 14 12
16 16 17 18 19 19 20 21 22 22 22 20 21 21 19 19 23 26 27 31 25 24 24 25 23 23 22 20 20 20 20 20 18 18 17 17 17 17 16 14 15 15 12
15 14 16 17 18 19 19 20 21 21 22 22 23 21 19 21 28 28 28 27 26 24 22 22 20 20 19 17 16 17 17 17 16 16 15 15 14 15 15 14 14 13 12
13 14 15 16 16 16 17 18 18 19 19 21 21 20 21 25 24 24 24 24 23 21 20 19 19 18 18 17 16 15 15 14 13 12 12 12 11 13 12 11 11 12 11
11 13 14 15 15 16 17 17 18 19 19 19 19 19 20 23 23 22 21 21 20 19 17 16 16 16 16 15 13 12 11 10 9 9 8 7 7 8 8 8 9 10 11
11 13 14 15 15 15 17 17 18 18 18 18 18 18 19 20 19 19 18 17 17 16 14 13 12 13 12 11 10 9 9 8 7 5 4 4 4 5 5 6 7 8 10
11 13 14 14 15 16 16 16 16 15 16 16 16 16 16 15 14 14 13 12 13 13 13 13 12 12 11 10 10 9 9 8 7 5 3 2 2 3 3 4 5 6 7
13 14 14 15 15 14 14 14 14 13 12 12 12 12 12 12 11 10 8 8 9 9 9 9 9 9 10 9 9 9 8 9 7 5 4 2 0 1 0 1 2 4 6
12 12 13 12 13 13 12 11 11 9 9 8 8 8 9 9 9 8 6 6 6 6 5 6 7 8 8 7 6 7 8 8 8 4 2 2 2 2 2 2 3 5 7

GFSGL_925_spd_093.txt.gz
Wind_Speed
22 22 19 19 19 20 18 20 20 19 19 19 23 26 28 29 28 30 29 28 32 34 33 34 36 35 33 33 30 32 30 27 18 27 25 26 31 36 37 41 46 45 44
21 18 18 17 18 19 16 17 18 18 18 19 19 20 22 23 26 30 30 31 32 33 33 30 34 36 34 34 35 37 34 35 30 30 36 36 35 38 43 41 45 47 54
18 18 16 16 18 17 15 16 17 17 18 20 20 22 24 24 25 29 33 33 34 34 34 33 31 29 31 31 31 32 31 29 31 31 34 35 34 34 32 41 48 45 43
16 15 13 16 17 15 15 14 15 16 17 19 21 23 23 26 29 33 34 34 33 32 31 32 32 33 34 33 32 34 33 32 31 31 34 35 33 35 32 33 33 35 36
12 10 9 11 12 12 13 15 15 16 16 15 17 20 23 24 24 26 27 27 28 29 32 36 37 37 39 39 35 36 32 32 32 31 30 32 32 31 32 35 34 37 38
23 19 16 16 12 8 5 11 16 19 21 20 20 18 18 20 22 29 28 26 27 29 31 33 38 41 45 46 47 49 43 35 35 35 34 33 38 38 37 36 35 31 18
32 18 17 18 15 12 8 7 7 4 3 1 6 15 21 12 17 27 33 36 32 33 35 34 33 34 37 38 40 49 53 55 56 48 39 38 37 38 38 38 36 35 35
28 21 23 19 15 13 11 12 11 10 9 7 6 6 6 7 11 10 24 32 36 33 32 36 37 37 35 38 41 38 40 48 53 58 55 50 40 35 33 33 35 37 36
23 21 18 16 16 15 15 14 13 13 13 13 13 13 12 13 18 14 13 12 16 25 27 21 20 24 23 29 32 35 34 36 34 40 19 18 19 22 27 36 26 18 17
17 18 12 17 19 18 16 15 14 14 15 15 16 17 20 17 24 19 13 8 7 3 5 8 16 11 12 16 21 22 20 16 17 10 9 5 6 6 8 6 10 13 7
14 13 16 19 20 17 16 15 14 14 15 17 19 19 19 24 25 27 21 16 13 14 18 22 24 21 15 10 6 4 1 9 14 17 20 20 21 23 21 19 15 9 10
14 16 18 19 19 17 17 17 17 16 17 17 17 17 17 17 22 25 24 23 18 20 20 19 20 25 29 26 26 25 26 25 24 27 26 26 24 27 28 30 29 31 30
14 17 19 20 20 20 22 20 19 19 18 19 19 18 18 16 16 19 21 22 23 24 22 21 21 23 26 30 27 25 25 28 28 28 23 24 18 21 16 18 22 25 28
13 14 16 21 21 22 25 25 24 22 22 20 18 18 18 20 19 16 14 15 17 18 20 23 25 27 29 26 28 28 25 22 22 22 20 16 15 16 16 14 11 10 20
12 13 14 15 17 24 30 27 27 31 24 19 20 20 18 20 21 19 16 15 15 17 18 20 22 22 23 23 24 23 21 20 19 16 15 14 14 14 15 14 13 15 17
11 12 13 13 13 14 17 23 28 28 29 27 24 19 19 20 20 19 20 20 19 18 22 22 21 20 20 18 18 18 18 17 15 14 13 12 12 12 12 13 14 14 14
14 12 12 13 13 13 13 13 12 13 20 25 25 23 21 18 16 17 20 23 22 22 24 20 19 19 18 17 16 16 16 14 12 12 12 12 11 12 12 13 13 12 12
17 17 14 14 14 14 13 13 12 13 13 14 17 20 20 19 19 17 18 17 21 24 20 18 17 16 15 15 14 14 13 12 13 12 12 12 12 12 12 12 11 11 10
13 14 14 14 14 14 12 13 13 13 12 11 11 15 17 19 22 22 20 19 17 17 16 16 14 14 13 12 11 11 11 12 11 11 12 12 12 11 11 11 11 12 10
12 13 12 11 10 11 10 11 12 13 13 13 14 14 12 12 18 18 18 16 15 14 13 13 12 11 10 10 9 9 10 10 10 11 11 10 11 10 11 10 10 10 10
9 10 11 11 11 10 10 11 11 11 11 12 12 13 14 13 13 13 13 14 13 12 11 10 10 10 10 10 9 10 9 8 9 8 8 8 9 9 9 9 9 9 9
8 8 9 10 9 9 9 9 9 10 10 10 10 12 14 13 12 12 12 12 11 10 9 9 9 9 10 9 8 7 8 7 7 6 6 6 7 7 7 7 7 8 8
7 8 9 9 9 9 9 10 10 10 10 10 9 9 10 10 10 10 10 10 11 10 9 10 8 9 9 8 9 8 7 7 6 5 4 5 5 5 5 5 6 6 7
8 8 9 8 8 9 9 9 10 10 9 9 8 8 8 8 7 8 8 8 8 8 9 8 9 9 8 7 7 7 7 7 6 5 4 3 3 3 3 3 4 4 5
9 9 9 9 8 8 9 9 8 7 7 7 6 6 6 5 5 4 4 5 5 4 5 6 6 6 7 6 7 8 8 8 6 4 3 2 1 1 1 2 3 3 4
8 9 8 8 8 8 7 6 5 4 4 4 4 4 4 4 4 4 3 3 3 3 4 5 5 5 5 4 5 7 8 9 8 5 3 2 1 2 2 2 2 3 4

GFSGL_925_spd_096.txt.gz
Wind_Speed
24 22 23 22 20 18 18 18 17 17 17 17 22 26 29 31 33 33 30 29 28 27 28 27 26 26 25 22 25 24 22 21 12 25 26 29 30 29 29 27 31 38 43
22 21 20 21 22 18 17 15 16 16 17 21 19 27 26 29 31 30 28 27 33 30 30 29 31 27 26 33 33 27 26 29 24 26 32 36 34 36 40 40 40 38 36
21 19 19 19 19 19 19 16 16 17 17 18 19 21 23 29 29 30 29 30 33 32 29 30 32 29 30 28 30 30 29 31 32 32 33 33 35 36 35 37 39 37 39
16 14 13 15 15 17 16 16 16 16 15 16 17 18 20 22 24 24 25 26 26 29 30 33 35 33 33 32 32 34 33 32 31 31 32 32 32 35 34 34 32 35 37
17 13 6 11 12 12 13 14 15 15 16 14 15 15 16 16 18 23 23 23 25 27 29 31 33 34 35 35 32 32 30 30 29 30 30 30 31 30 31 33 34 34 35
27 24 20 17 15 12 8 8 9 9 10 13 14 14 15 14 18 22 22 23 25 26 27 29 30 33 38 43 44 45 41 33 31 30 29 28 34 35 34 33 32 29 17
23 22 22 23 19 17 13 13 11 11 10 9 6 6 8 3 3 17 25 28 22 22 24 25 25 26 29 32 34 39 45 49 51 45 36 33 33 32 30 31 31 32 32
22 23 20 25 22 19 18 19 16 12 12 12 13 11 9 13 8 3 11 16 20 25 15 13 15 17 16 21 27 30 33 39 41 44 41 38 34 37 34 29 26 22 24
24 23 23 26 24 16 19 21 16 16 15 16 17 16 14 17 15 8 4 1 3 5 5 8 6 8 12 16 20 22 23 16 14 17 14 11 9 14 18 22 19 16 13
21 23 22 21 23 21 18 19 14 16 17 16 18 19 19 19 23 17 13 8 9 9 12 14 19 14 12 12 11 10 10 4 3 3 5 7 10 11 12 8 7 6 6
19 23 25 23 24 17 13 13 12 15 16 16 17 17 19 20 23 24 19 13 12 14 16 19 22 19 17 14 13 12 12 12 15 15 18 21 23 25 25 23 20 13 7
19 19 20 19 19 14 14 13 15 15 16 16 15 15 15 16 21 23 24 21 18 18 16 15 18 23 26 25 23 21 19 18 19 22 23 22 19 22 19 24 22 22 19
17 19 20 18 19 19 17 17 17 17 17 16 16 15 16 14 14 19 21 23 23 23 20 20 19 20 23 27 28 27 25 23 20 19 17 15 14 12 12 13 13 16 17
14 15 18 20 21 21 23 20 19 18 17 15 14 15 15 15 14 11 11 12 16 18 19 21 22 23 25 24 24 25 25 22 19 16 14 12 11 11 13 12 11 6 11
12 13 14 17 20 24 27 23 23 28 19 15 16 14 14 16 16 15 13 14 15 17 18 18 19 19 19 19 20 20 19 18 17 14 13 12 12 11 12 12 11 10 11
11 11 11 12 10 12 15 20 24 25 26 24 22 15 16 16 16 18 20 20 19 16 18 18 18 17 17 16 15 15 16 16 13 12 12 12 11 11 10 11 11 10 10
12 10 10 10 9 10 11 10 10 14 22 23 23 21 19 15 16 18 21 22 19 17 19 17 15 14 13 13 12 12 14 13 11 12 12 11 9 9 9 9 9 9 9
13 12 11 11 11 11 12 10 9 9 10 12 17 18 19 20 20 16 12 13 17 18 16 14 14 13 12 12 12 13 11 11 12 11 11 10 10 9 9 9 9 9 8
12 12 11 12 12 11 10 10 10 10 9 9 8 11 13 14 18 20 18 17 15 15 14 14 13 12 12 12 12 11 11 12 12 11 11 10 10 9 9 8 7 8 6
10 11 9 9 9 9 9 9 9 9 9 10 11 12 11 11 15 16 17 16 15 14 13 13 13 13 12 11 11 10 10 10 10 10 9 9 8 8 7 7 7 6 7
6 7 8 8 8 8 8 8 8 8 9 10 11 12 13 12 13 14 14 14 14 13 12 11 11 11 10 10 10 9 9 8 9 8 8 7 7 6 6 5 5 5 6
5 6 7 7 7 8 8 8 8 9 9 9 9 11 13 13 12 12 12 12 12 11 10 9 9 9 8 9 8 8 7 8 7 6 6 6 5 5 5 5 5 5 6
6 6 6 7 7 7 8 8 8 8 9 9 9 9 10 10 10 11 11 10 9 9 8 8 8 7 7 7 7 7 6 7 7 7 6 6 6 5 5 4 5 5 6
6 6 7 7 7 7 7 7 8 9 8 8 8 8 8 8 7 7 7 6 7 6 6 6 5 6 5 5 5 6 6 6 6 6 6 5 6 6 5 5 5 5 6
6 6 7 6 6 6 6 6 6 6 6 5 5 5 5 4 4 4 4 4 3 2 3 4 4 5 5 5 5 6 7 8 7 4 6 6 6 6 6 5 5 5 6
6 6 6 5 5 5 5 4 4 3 2 2 2 2 3 3 3 3 2 2 2 3 3 4 5 5 5 5 5 7 9 10 9 9 5 5 6 6 6 6 6 6 6

GFSGL_925_spd_099.txt.gz
Wind_Speed
21 20 20 20 20 19 18 19 19 19 19 20 27 26 29 32 33 34 33 27 29 24 22 25 27 23 22 23 27 27 23 22 15 22 21 24 22 26 24 23 28 30 31
18 19 18 16 19 17 18 18 18 16 16 19 20 23 27 30 33 33 33 26 33 30 24 26 28 28 30 25 20 17 19 22 20 22 24 26 31 39 44 46 44 42 36
19 20 18 17 18 16 16 18 18 18 16 16 18 19 20 24 26 29 33 30 24 30 31 28 30 26 28 28 25 24 24 25 26 25 30 30 34 34 35 38 37 37 39
19 19 18 17 16 16 15 15 18 17 18 17 19 18 18 18 20 23 27 25 25 25 27 29 26 25 29 26 28 29 25 24 26 29 32 32 33 34 32 30 30 32 35
24 20 12 14 13 14 16 14 15 12 11 16 14 14 16 17 15 20 23 25 24 25 25 25 26 29 27 30 27 30 31 31 29 28 28 28 28 27 27 28 29 30 30
27 24 20 19 16 13 12 15 14 12 9 10 10 9 9 7 10 19 18 16 21 21 20 21 25 30 36 39 40 40 38 30 28 25 25 24 28 28 29 28 28 25 14
28 28 26 21 20 18 17 20 19 18 17 16 15 14 10 3 7 17 20 20 12 13 11 15 13 8 12 16 21 32 43 45 44 40 33 32 28 17 16 20 23 20 18
30 30 25 23 21 23 25 22 20 19 19 18 16 14 12 13 5 3 8 9 9 9 7 6 6 10 13 18 20 20 14 12 16 17 14 11 14 19 22 23 23 26 26
35 25 25 22 20 22 25 20 23 27 23 24 21 18 17 18 14 11 10 9 10 10 12 13 6 6 8 7 8 7 2 4 6 6 6 8 9 10 12 13 10 12 5
24 19 22 20 23 16 17 21 23 33 21 26 28 23 22 23 20 17 13 12 14 14 16 17 21 16 12 7 4 3 9 6 3 6 13 16 18 19 19 16 8 4 4
21 19 18 23 15 19 21 24 20 25 24 21 21 25 27 22 25 21 19 15 15 18 19 22 23 21 22 21 18 15 13 12 16 17 19 21 22 24 25 23 20 17 9
17 14 17 23 19 18 24 26 22 20 19 22 25 22 19 19 21 26 25 22 19 21 19 19 21 24 26 27 27 22 20 19 19 19 19 19 19 18 18 20 21 19 17
16 17 20 20 24 26 20 20 21 20 19 18 20 14 12 16 17 21 26 26 25 26 22 20 19 20 22 25 23 22 22 20 18 17 17 16 14 13 14 13 14 13 17
16 20 23 26 24 22 24 26 23 18 17 16 15 14 16 19 18 15 15 16 18 20 20 20 20 21 23 22 21 22 21 20 18 16 15 13 12 12 13 11 11 9 10
13 14 16 17 19 24 29 22 22 27 22 18 20 19 17 18 16 17 15 16 17 16 16 16 15 15 16 16 17 17 17 17 17 15 13 11 11 11 12 11 10 9 9
13 14 14 12 12 14 16 18 25 26 26 25 23 18 20 21 20 18 17 17 15 13 15 15 15 15 15 14 15 14 15 15 14 13 13 12 12 12 11 11 11 11 10
13 11 11 11 11 10 10 9 11 17 24 23 23 22 21 17 15 14 17 18 17 16 16 15 15 14 14 14 13 13 14 14 12 13 13 12 11 11 10 10 10 9 9
12 13 12 11 10 10 10 10 10 10 11 13 18 18 20 20 18 16 11 11 15 16 14 14 13 13 14 13 12 12 12 12 12 12 12 11 11 10 10 10 11 11 10
12 11 10 10 10 9 9 10 9 10 11 11 10 12 13 14 17 18 16 14 13 13 13 13 13 12 11 11 10 10 11 11 10 10 10 10 11 10 10 11 9 10 11
10 10 9 8 8 8 9 9 9 9 10 10 11 10 9 9 12 13 14 13 12 12 11 11 11 10 9 10 9 9 9 9 10 10 10 11 10 10 10 9 10 11 11
8 8 8 8 9 8 8 9 8 8 8 9 10 10 11 10 11 11 12 12 11 10 10 9 8 8 9 9 9 9 9 9 10 10 10 9 9 9 9 9 9 9 9
7 7 7 7 7 8 7 7 7 7 8 8 7 9 9 10 10 10 10 10 9 9 8 7 8 9 9 9 9 8 9 9 10 9 9 9 9 9 9 8 9 9 10
7 6 6 6 6 5 7 7 7 7 7 7 7 7 8 8 8 8 8 7 7 7 7 7 7 7 7 8 9 9 8 8 8 10 9 9 9 9 9 9 9 9 10
6 6 6 6 6 6 6 6 6 7 6 6 6 6 6 6 6 6 5 5 5 5 6 6 7 8 7 7 6 7 7 8 8 7 7 8 8 9 8 8 8 8 8
5 5 4 4 4 4 4 4 4 4 4 4 4 4 4 4 3 3 3 4 4 4 4 5 5 5 6 7 7 7 9 10 9 7 7 6 8 8 7 8 8 9 9
4 4 4 3 3 3 3 3 3 2 2 2 2 2 2 3 3 3 3 3 3 3 4 4 5 6 7 6 7 11 13 11 10 9 7 5 7 8 8 9 9 9 10

GFSGL_925_spd_102.txt.gz
Wind_Speed
21 24 18 20 21 17 23 21 22 23 24 23 23 28 30 28 29 30 29 31 31 29 29 28 27 22 23 24 27 22 18 16 8 16 19 16 13 18 24 22 20 25 32
18 20 18 7 20 18 22 21 23 24 22 23 25 25 27 29 31 31 30 30 32 30 29 28 29 26 24 22 23 26 25 23 22 18 22 24 26 28 29 32 37 36 38
18 20 22 11 14 19 18 21 23 22 21 21 23 24 25 28 30 32 31 31 33 33 31 28 25 25 25 26 27 20 23 24 22 20 19 23 26 26 29 33 35 37 36
10 18 18 17 13 17 16 17 22 21 22 22 22 22 22 24 26 30 30 29 28 29 29 32 29 27 28 28 27 28 26 19 21 23 20 21 26 28 29 27 27 31 33
25 25 21 7 16 13 14 17 19 20 18 21 23 21 20 20 19 21 24 26 26 24 26 24 26 27 27 30 26 26 27 28 24 20 23 23 24 20 23 28 25 25 25
30 29 29 24 19 12 6 1 18 16 16 18 23 25 21 16 18 22 21 21 23 20 23 23 23 23 24 23 25 27 24 23 23 23 23 20 16 14 6 9 13 12 4
31 32 32 30 29 25 16 14 17 17 16 20 21 19 16 9 8 14 22 15 10 13 12 10 9 9 16 20 22 22 24 24 35 35 27 23 16 14 18 23 17 11 9
30 31 31 32 31 30 28 25 22 20 21 20 19 17 16 15 8 5 8 12 11 9 7 6 6 4 4 8 8 7 4 2 1 2 2 1 4 8 10 11 12 12 10
28 28 28 28 32 32 31 28 24 26 26 27 25 23 22 23 18 13 12 14 16 18 17 12 7 5 4 1 5 12 12 16 19 17 16 13 10 8 6 3 4 3 2
27 28 28 29 30 32 29 26 23 28 28 28 31 28 27 23 22 19 17 19 22 22 22 22 22 16 10 8 9 12 15 13 12 14 18 19 18 19 17 15 9 6 4
23 24 27 27 30 27 28 23 16 25 28 27 30 30 34 26 28 21 19 22 23 25 27 26 26 27 26 22 18 17 20 19 20 19 21 22 22 23 24 23 20 15 10
23 24 24 29 29 24 25 23 17 20 25 19 26 20 29 35 32 21 24 25 28 21 25 22 25 28 30 30 30 26 24 22 20 20 20 21 20 19 18 20 21 22 19
20 25 26 28 27 28 27 22 16 20 24 16 18 18 23 24 20 28 30 30 28 32 26 21 24 27 30 30 26 25 24 23 21 20 19 18 16 14 13 13 14 11 16
19 20 24 28 29 28 25 26 28 23 18 16 18 18 18 23 20 19 19 19 21 24 21 20 23 28 29 28 27 26 24 22 20 18 16 14 12 13 15 13 12 8 11
17 16 16 18 23 24 30 27 25 29 21 19 22 20 19 20 21 20 19 19 19 19 21 21 21 21 21 22 24 23 22 20 19 17 15 14 15 13 14 13 13 12 14
15 16 17 16 13 17 20 24 25 25 25 25 22 22 22 20 20 20 19 18 17 18 19 18 18 20 21 19 19 21 19 19 17 16 16 16 14 15 14 14 14 14 14
18 17 16 16 15 14 10 13 15 20 22 22 23 22 19 17 15 17 16 18 16 19 20 19 19 20 19 19 18 18 16 16 15 16 16 17 15 14 14 15 15 15 14
15 15 14 14 14 14 14 14 13 12 12 14 17 18 18 18 19 18 14 16 18 20 19 19 19 18 17 17 16 15 15 15 16 15 15 14 15 14 15 14 13 14 13
12 13 11 12 13 12 12 12 13 14 15 14 12 13 13 16 17 18 18 19 17 18 17 18 18 18 16 13 14 13 14 13 13 13 13 12 14 13 13 12 12 12 11
11 11 11 11 10 10 11 11 11 13 14 13 11 11 13 13 16 18 19 18 17 18 17 17 17 15 14 14 11 12 13 11 14 13 13 12 12 11 11 10 9 9 9
7 8 9 10 11 10 10 10 9 10 12 12 11 13 14 14 15 15 15 16 16 15 14 13 10 11 12 11 13 11 10 11 7 11 10 10 10 8 8 6 9 11 10
8 7 8 8 9 9 9 9 9 9 10 10 9 11 12 13 13 13 12 11 9 12 11 11 12 12 10 10 9 9 9 10 11 8 5 9 12 8 8 11 9 9 11
8 8 8 9 7 7 9 9 10 8 9 9 9 9 9 8 10 10 9 9 9 9 8 6 5 5 10 9 8 4 2 1 4 5 3 6 10 10 9 11 11 9 9
9 9 8 7 8 9 8 7 8 7 7 8 8 7 7 7 7 7 5 5 9 6 5 7 10 10 5 3 2 4 4 4 2 3 2 3 8 9 5 9 10 10 11
8 7 6 6 7 6 4 6 6 6 6 6 7 7 7 7 6 5 6 6 4 4 6 4 4 2 4 2 5 8 13 10 7 5 3 2 5 8 10 7 8 9 9
7 7 7 7 7 7 7 6 5 5 5 5 4 4 4 4 3 5 5 2 1 3 3 4 4 7 5 3 7 11 12 10 10 7 4 3 7 6 6 8 9 8 11

GFSGL_925_spd_105.txt.gz
Wind_Speed
20 25 19 19 17 28 33 31 29 24 24 27 28 25 24 23 22 26 24 29 31 30 31 32 31 31 28 25 19 18 16 12 7 9 14 13 10 17 25 27 25 26 29
11 14 18 14 16 28 31 28 25 24 23 27 28 25 26 25 24 26 27 25 27 30 32 31 32 31 25 24 24 25 27 23 19 15 20 22 18 19 20 23 23 24 24
26 8 11 8 15 25 29 26 23 23 25 25 24 26 28 28 26 27 27 30 27 29 31 33 31 29 26 23 25 28 27 23 23 21 22 23 21 19 22 24 28 31 34
31 25 16 3 11 23 26 24 23 24 25 24 23 25 26 27 30 31 29 30 30 29 29 32 31 31 29 30 31 25 23 19 21 23 24 24 24 23 24 26 27 29 29
32 32 27 19 10 15 14 19 21 21 20 21 22 21 21 22 22 27 28 28 30 28 29 30 30 30 30 31 30 32 30 27 26 16 15 17 18 15 20 22 21 19 12
31 32 30 25 21 18 17 20 17 17 15 18 19 17 18 17 20 24 24 25 25 23 25 28 28 27 27 30 29 28 26 26 26 21 17 16 18 16 13 9 6 3 3
35 33 30 26 26 25 24 24 24 21 18 19 17 14 9 9 15 21 21 18 17 15 14 14 19 19 23 16 18 28 24 23 23 22 18 13 10 11 12 13 13 7 3
35 36 34 26 26 29 30 28 30 29 26 26 22 21 18 14 7 11 18 17 16 12 9 8 8 7 7 11 13 10 8 5 2 4 6 6 6 7 6 6 6 4 5
31 30 33 31 26 27 29 26 30 34 32 33 28 25 24 20 12 12 18 21 21 20 16 11 7 4 4 8 13 18 18 18 18 17 16 13 9 5 2 4 3 5 4
25 27 30 27 29 28 31 23 32 35 35 35 34 31 27 24 19 19 18 23 28 27 25 24 19 11 10 11 13 19 25 22 20 20 19 18 18 17 15 11 5 7 6
22 24 27 23 29 26 30 24 28 28 31 33 34 35 33 27 23 21 21 24 28 30 29 29 27 25 20 19 15 15 21 23 23 23 22 22 21 22 23 22 18 14 17
23 24 25 26 26 26 26 26 25 25 27 26 27 26 31 33 26 26 27 25 24 28 29 28 31 25 32 31 29 24 21 21 21 23 24 22 20 18 18 20 23 24 22
25 24 25 26 27 27 27 26 23 27 21 21 21 21 23 23 24 29 29 29 30 36 22 31 25 24 30 26 23 21 22 22 22 22 19 18 15 13 12 13 15 19 21
16 21 22 24 26 26 27 28 23 23 20 19 19 20 24 24 18 19 21 22 25 30 31 30 26 28 26 25 25 24 23 20 18 17 17 16 16 16 17 15 15 17 17
19 13 18 22 21 23 28 25 26 27 22 21 22 24 21 20 18 17 18 20 23 24 25 25 23 22 23 24 23 22 20 19 20 18 16 18 17 16 17 17 17 16 18
18 18 18 12 16 18 20 24 26 26 25 24 23 24 22 20 19 20 18 18 18 19 24 20 19 19 20 19 20 21 19 17 16 17 19 18 17 14 14 16 17 18 16
17 16 15 16 16 11 15 17 17 21 22 22 22 21 20 15 17 17 18 19 18 20 24 22 21 20 19 17 17 18 19 17 15 18 20 18 16 15 18 17 14 15 15
15 15 15 15 15 15 15 11 13 14 15 18 18 18 18 19 19 15 15 17 23 23 22 21 19 17 17 17 17 17 18 17 16 16 17 17 15 15 15 15 16 15 15
15 14 12 13 13 12 12 14 14 14 13 12 14 15 14 15 17 18 18 23 21 20 19 20 18 18 16 16 15 14 15 17 15 14 14 15 15 13 14 13 14 12 12
11 10 11 11 12 11 12 12 12 13 12 13 16 14 12 12 18 19 20 20 20 17 15 16 15 15 14 14 10 9 11 11 12 12 12 13 12 12 12 11 12 14 13
8 7 7 7 9 10 10 11 11 13 15 14 17 15 12 15 16 15 15 15 17 17 14 12 10 11 10 10 9 9 8 7 8 9 11 13 12 12 11 10 9 11 10
8 8 9 9 8 10 12 12 13 12 12 13 12 12 12 14 14 13 12 11 10 10 9 8 9 8 8 7 6 5 5 5 6 5 6 8 9 9 9 12 10 11 10
8 8 6 7 8 7 7 10 11 11 12 11 9 8 8 9 9 10 12 8 8 7 6 5 4 5 4 5 5 5 4 3 4 3 2 4 7 10 7 8 9 8 10
9 9 7 8 7 8 6 9 10 10 10 9 9 9 8 7 6 6 5 6 7 6 5 5 6 5 2 3 6 7 9 6 3 1 1 2 5 7 6 5 6 7 8
8 8 10 9 8 8 8 8 8 8 8 8 8 8 8 7 5 4 4 2 3 4 3 5 6 4 2 3 6 10 12 9 5 3 1 2 1 3 4 4 5 6 7
7 7 7 6 6 7 7 8 8 8 8 6 6 7 5 5 5 4 2 2 1 3 3 4 4 4 5 5 8 12 13 10 7 4 2 3 3 3 4 4 4 4 6

GFSGL_925_spd_108.txt.gz
Wind_Speed
29 13 16 23 28 34 34 34 36 35 32 28 28 26 27 23 22 24 25 25 28 26 30 33 33 34 32 24 22 18 12 9 5 7 13 14 27 20 24 27 28 29 27
28 24 8 4 8 24 31 31 34 34 29 27 26 25 27 24 22 25 25 25 30 28 27 33 28 32 30 32 27 26 23 23 15 13 19 18 13 12 15 16 19 19 22
33 31 22 16 5 20 28 31 32 31 27 23 23 26 26 25 23 22 24 23 25 28 31 28 28 29 29 30 32 30 27 23 21 17 13 17 21 23 23 23 22 22 22
31 31 30 26 18 4 23 29 32 30 25 23 22 23 25 24 24 25 25 24 22 21 24 28 30 31 30 31 32 28 26 21 20 19 20 18 20 19 22 19 22 21 21
29 32 32 29 24 14 6 23 26 25 24 25 21 19 22 21 20 22 24 25 24 25 25 27 29 31 33 34 30 26 25 22 18 18 17 18 16 17 17 22 21 22 16
27 30 30 33 31 26 21 9 25 24 22 24 20 17 16 17 20 20 21 24 26 26 26 26 25 26 28 29 24 22 22 24 22 19 18 13 17 16 16 15 19 14 5
31 30 30 33 34 32 29 27 23 21 21 22 20 15 11 8 13 19 20 18 17 17 16 20 21 19 22 22 23 25 23 24 25 23 18 17 14 14 13 11 10 7 4
30 32 31 31 34 32 34 30 32 26 24 22 21 18 16 12 6 8 15 15 14 12 11 12 14 12 15 18 16 16 13 10 13 17 17 16 14 15 15 14 11 9 6
30 31 34 31 32 33 28 32 32 29 34 27 25 22 22 19 14 13 16 18 17 15 11 8 9 8 9 15 18 20 20 19 16 15 14 11 7 5 8 11 11 12 3
27 28 27 30 30 27 27 28 32 29 30 33 27 30 27 25 20 20 21 22 27 25 21 19 13 14 12 13 18 20 24 20 18 18 17 16 13 11 9 7 8 10 7
23 23 26 25 25 26 25 25 24 25 29 30 25 33 32 30 26 24 22 25 28 29 27 27 24 19 19 18 19 19 23 21 22 19 19 18 18 19 19 15 10 8 11
23 23 23 23 25 23 22 22 25 24 21 20 26 28 26 30 30 30 29 28 27 32 28 28 27 30 34 31 29 26 24 23 20 20 21 19 18 20 20 22 20 21 20
23 23 24 25 25 25 25 23 25 24 21 21 21 19 19 26 33 29 29 28 28 31 28 26 27 28 29 27 26 23 24 21 20 26 21 18 14 13 17 18 17 18 18
18 23 23 23 25 26 24 24 22 21 18 18 19 19 19 22 22 22 21 22 24 28 25 27 29 28 28 26 23 24 26 20 20 23 20 16 14 15 13 11 12 14 15
18 14 19 21 20 21 27 26 23 27 23 21 20 20 16 19 20 17 19 20 21 23 24 25 25 26 27 24 23 23 22 18 19 18 17 16 16 14 15 13 12 13 15
13 16 16 13 18 18 17 20 23 23 22 25 23 22 21 19 18 17 17 16 15 17 23 23 22 22 21 19 19 19 19 17 16 17 16 14 12 12 14 15 15 13 15
16 14 15 14 11 12 14 16 16 16 18 21 21 19 19 17 16 16 17 16 15 17 25 20 20 20 19 19 17 17 18 16 14 16 15 13 12 13 13 14 14 14 13
11 12 13 12 11 10 8 10 11 13 15 16 17 18 18 16 14 13 12 14 20 21 22 20 18 17 16 17 17 17 17 16 17 18 17 14 13 13 14 13 13 11 9
12 11 10 10 9 8 8 9 9 9 11 11 10 12 12 13 13 12 11 18 19 19 18 19 17 16 16 16 16 15 15 15 14 14 15 14 13 12 12 11 10 11 10
8 8 8 7 7 6 6 7 9 10 12 13 13 11 8 8 15 17 16 17 18 17 16 16 15 13 13 12 11 10 11 10 10 11 12 12 11 10 11 9 7 8 10
6 5 7 6 6 8 6 7 10 11 13 15 13 11 10 13 15 14 15 14 14 13 12 11 11 11 10 10 8 7 7 7 8 8 9 10 9 10 8 9 8 8 8
6 6 5 6 6 6 7 7 8 11 9 11 10 10 9 10 11 12 12 11 11 10 9 7 8 9 8 7 6 5 4 5 5 5 5 6 6 6 6 5 6 6 7
7 6 5 5 4 5 6 9 9 10 9 7 7 8 8 9 8 8 8 9 8 8 8 5 5 6 7 6 7 7 6 5 4 2 1 2 2 3 2 3 4 4 5
6 5 5 6 4 4 7 7 7 7 7 7 6 6 6 6 7 7 6 4 5 6 7 8 7 5 3 4 7 8 9 6 4 3 1 1 1 2 2 1 2 3 4
6 6 6 5 6 5 6 7 6 6 6 6 6 5 5 3 3 4 4 3 2 2 4 5 6 5 3 3 7 9 10 7 4 2 4 5 3 2 2 3 3 3 3
6 5 5 4 4 3 3 5 7 6 5 4 4 4 3 2 1 1 1 1 3 2 1 0 3 5 5 6 8 10 10 10 7 4 4 5 5 5 4 3 3 3 3

GFSGL_925_spd_114.txt.gz
Wind_Speed
29 26 24 19 14 8 18 20 27 29 30 31 32 32 33 31 33 34 31 29 27 25 26 27 29 27 28 29 29 30 26 22 6 9 22 26 25 25 32 36 31 28 28
27 25 25 24 20 15 8 6 22 28 29 32 32 31 32 33 34 34 32 29 25 26 26 26 27 25 27 28 30 29 26 29 17 8 15 21 26 25 28 29 31 25 22
28 28 27 28 28 24 18 14 6 17 24 26 27 30 32 32 32 31 28 25 26 25 25 25 23 28 26 26 29 28 26 26 25 17 14 22 16 24 22 19 18 13 11
29 30 29 28 27 26 24 20 14 8 5 20 23 27 29 30 31 31 26 26 23 24 25 24 24 27 29 28 29 29 27 25 24 23 18 18 21 17 15 15 15 19 23
29 29 29 28 28 29 30 27 22 16 12 8 10 21 27 25 23 21 25 25 23 23 22 21 23 28 34 36 31 30 30 30 25 22 16 16 17 14 19 22 21 22 19
29 30 30 31 32 33 33 31 29 26 22 18 14 8 8 4 13 19 24 27 23 20 19 18 16 21 30 31 33 30 31 28 25 21 19 19 23 24 23 24 23 14 5
28 29 31 30 30 32 32 32 33 31 28 27 25 22 22 24 14 13 17 23 20 19 19 19 20 19 20 23 27 28 30 30 29 28 26 25 24 30 31 26 27 22 15
27 28 30 31 31 31 31 31 31 31 31 31 31 28 27 31 28 12 2 8 12 10 8 11 15 16 16 21 23 21 17 16 21 25 28 24 25 28 32 32 30 22 13
27 27 27 26 28 32 32 31 29 30 33 32 30 33 35 34 28 22 11 12 14 13 6 2 5 9 10 16 18 18 14 11 5 9 13 17 18 19 18 19 21 23 5
27 28 28 27 28 27 29 29 28 29 29 29 37 39 37 39 32 22 19 20 24 23 20 20 14 7 5 9 15 18 19 16 15 14 15 14 10 9 11 13 15 17 12
28 28 29 30 28 28 27 28 28 28 27 29 29 30 33 37 35 31 28 28 26 26 26 26 25 16 9 8 11 15 18 20 20 20 20 21 20 19 16 11 8 11 12
25 27 27 28 30 31 31 31 30 27 25 25 25 27 31 32 31 32 31 30 27 28 25 24 29 28 27 23 23 25 23 23 23 24 26 26 26 28 24 23 21 19 18
25 25 26 26 27 26 26 26 26 28 23 23 23 23 24 28 29 27 28 27 26 27 24 24 24 25 27 26 22 23 24 24 24 25 23 25 26 25 23 26 24 25 26
19 23 25 25 25 25 24 25 26 25 21 20 19 20 21 25 28 26 24 21 21 22 22 25 26 27 28 25 26 27 26 26 28 24 22 22 20 20 19 17 18 19 25
18 18 19 23 22 21 23 24 24 28 26 20 22 22 20 22 22 20 20 19 17 16 18 22 24 26 27 25 27 27 25 24 26 23 23 21 19 18 18 17 19 20 19
16 16 19 17 19 19 20 19 17 18 22 23 22 22 19 18 18 19 18 15 13 11 20 21 21 22 21 21 22 22 22 21 20 19 18 16 16 16 16 17 19 20 18
19 18 20 18 16 17 18 19 19 16 17 19 19 20 20 17 15 14 13 14 14 15 22 21 20 19 18 19 20 20 20 18 16 17 16 15 14 15 15 15 14 15 15
16 17 17 16 14 14 15 16 15 15 17 19 19 18 18 18 18 13 10 10 20 21 20 19 19 18 18 18 19 18 18 19 19 18 18 16 15 16 17 15 14 13 11
14 15 15 14 11 11 12 13 14 13 15 16 18 18 16 14 15 16 15 19 19 19 18 19 18 18 18 17 16 16 17 17 16 16 17 16 15 15 16 15 14 13 12
12 13 14 13 11 9 9 11 12 12 14 16 18 19 17 13 19 19 18 17 17 16 15 15 14 14 13 12 11 11 12 13 14 14 14 14 13 13 14 13 13 13 13
12 12 12 10 10 9 6 7 8 9 11 12 14 14 14 15 15 15 15 15 14 13 12 11 11 11 11 11 10 9 10 11 11 12 12 12 11 12 11 10 11 11 10
13 12 11 10 10 9 7 4 4 6 7 8 9 10 10 12 12 12 12 12 11 10 10 9 10 11 10 10 9 7 7 7 8 9 9 9 9 9 8 8 8 8 8
13 12 12 10 9 8 7 4 2 2 4 4 5 6 7 9 9 9 9 9 10 10 9 7 7 9 10 10 10 9 7 7 6 6 6 6 6 5 5 5 5 6 6
12 12 11 11 10 9 9 6 2 2 2 2 2 2 3 5 5 6 6 6 6 8 9 9 8 9 9 10 10 10 9 7 6 5 4 4 5 5 5 5 5 5 5
11 11 11 10 10 10 10 9 5 4 3 2 3 3 1 1 2 3 4 3 3 3 5 7 7 7 8 9 10 10 11 9 5 4 3 3 3 2 2 2 2 2 2
12 11 11 10 9 9 10 9 8 6 5 4 4 4 4 4 3 3 3 3 2 2 2 2 3 4 5 7 7 9 9 10 8 4 2 1 1 1 1 2 2 3 3

GFSGL_925_spd_117.txt.gz
Wind_Speed
25 23 19 17 15 12 9 4 10 21 25 26 26 27 29 30 33 33 30 29 32 30 31 29 28 25 25 25 25 27 29 27 11 10 21 27 31 40 37 36 30 32 31
26 24 23 23 20 19 18 12 7 6 19 22 24 24 29 30 30 32 32 29 30 29 29 27 26 23 24 27 27 29 29 28 21 12 17 25 24 33 34 29 27 27 23
25 27 29 30 29 27 25 21 16 10 3 11 19 24 27 29 30 32 32 31 32 31 30 26 25 22 24 25 27 26 28 25 25 14 14 21 22 28 24 23 17 13 21
27 30 30 29 27 26 25 26 23 19 14 10 3 12 19 21 24 27 31 32 32 31 25 25 21 25 25 25 27 28 27 25 25 20 16 18 19 22 29 22 17 21 19
31 30 30 29 28 30 31 29 25 26 25 20 13 12 9 5 3 13 19 30 29 27 20 24 25 26 25 25 27 27 26 25 21 20 15 13 16 14 24 26 23 25 19
29 30 28 30 32 31 32 30 31 30 29 29 28 25 24 21 20 10 17 14 21 25 23 22 23 21 21 23 32 34 35 31 25 25 21 20 21 22 22 22 18 12 5
29 28 30 30 30 30 30 32 33 31 32 32 32 30 30 28 25 17 8 7 3 8 12 16 19 19 18 21 25 31 32 33 29 27 26 25 24 28 27 24 26 24 17
28 28 28 28 26 26 28 29 30 30 29 32 35 33 31 33 26 20 12 10 12 16 9 1 7 11 14 19 20 22 20 22 23 24 25 22 23 23 34 34 32 26 17
28 29 28 26 25 25 26 26 26 27 30 31 31 33 32 36 29 24 20 19 22 22 23 22 11 3 2 6 16 19 15 11 7 9 14 19 21 24 27 31 27 24 5
27 26 27 28 30 29 28 26 25 24 24 24 29 31 32 36 36 30 26 24 26 25 26 24 27 17 9 2 7 12 15 9 11 10 8 9 7 7 10 12 18 16 10
25 23 27 27 26 27 26 28 26 24 24 26 26 29 30 35 35 34 30 29 26 28 25 25 30 23 22 15 8 11 13 13 15 16 18 18 19 18 14 10 9 13 14
24 24 24 23 24 25 24 24 24 23 22 23 24 24 27 28 28 28 27 27 26 25 22 25 23 26 24 25 26 22 21 20 21 23 25 23 23 28 28 26 23 22 19
18 21 21 20 22 22 25 26 24 23 22 20 20 20 21 23 23 24 22 23 24 24 23 22 24 26 26 27 23 22 23 24 25 26 23 23 19 24 27 28 28 28 30
18 18 18 19 19 20 20 20 22 23 21 21 21 21 20 22 25 23 19 17 17 18 19 24 27 29 29 27 27 28 26 24 24 22 21 21 17 18 23 21 24 25 30
16 18 18 17 18 17 17 18 16 19 21 18 18 17 21 21 24 21 20 16 12 13 14 17 20 21 23 24 25 25 24 23 21 19 16 15 15 13 16 14 15 17 19
16 17 17 15 15 15 15 13 13 15 17 17 19 19 14 16 15 15 17 15 12 10 15 16 17 17 18 16 16 16 20 19 16 15 13 11 12 11 12 13 14 14 15
14 14 13 13 12 12 12 13 13 11 15 17 18 18 18 17 16 13 12 14 12 14 16 14 14 14 14 14 14 13 14 15 14 14 12 11 10 10 10 12 12 12 14
15 16 14 12 11 11 11 11 10 11 12 13 16 16 16 17 17 13 8 9 14 17 15 14 13 13 12 12 11 12 12 12 13 12 12 10 10 10 11 12 11 11 10
13 13 14 12 11 11 10 9 9 10 11 12 13 15 15 12 13 13 15 15 12 13 12 12 11 11 11 11 10 11 11 13 12 12 12 11 10 10 12 11 11 11 9
12 12 12 10 9 8 7 7 8 8 9 11 12 13 14 12 15 15 15 13 12 11 10 10 9 9 9 9 8 8 8 10 10 10 10 10 10 10 10 9 9 9 9
11 11 12 9 9 8 6 6 5 6 7 8 9 11 13 11 11 11 11 11 11 10 9 8 8 8 9 9 8 8 9 9 9 9 8 8 8 9 9 9 9 9 8
10 10 10 10 10 9 8 5 3 4 4 5 5 7 10 10 10 10 10 10 9 8 8 7 8 9 9 8 8 7 7 6 6 7 6 6 6 6 6 6 7 7 6
10 10 10 10 10 10 8 7 5 3 3 3 3 4 5 6 7 7 7 9 9 8 8 7 7 8 9 9 8 7 5 5 4 5 5 4 4 4 4 4 5 5 5
10 10 11 11 10 10 10 9 8 6 4 2 2 3 3 4 4 4 5 5 6 7 7 7 7 7 8 8 9 8 6 4 4 4 5 4 4 4 4 4 4 5 4
10 10 10 11 10 10 10 10 9 8 5 4 4 3 3 3 3 3 4 4 3 3 4 4 5 5 7 8 8 9 9 7 3 3 3 3 3 3 3 3 3 2 2
10 10 9 10 10 10 11 11 10 8 7 6 5 5 5 4 4 4 4 4 3 2 2 1 1 1 3 4 6 7 8 9 7 2 2 2 2 2 2 2 2 2 3

GFSGL_925_spd_123.txt.gz
Wind_Speed
28 21 23 23 23 27 26 20 13 11 8 6 4 12 14 19 22 24 24 25 27 29 24 23 33 30 24 25 27 27 25 25 14 23 20 20 21 25 28 34 37 40 45
31 33 33 29 39 38 22 19 18 16 14 10 9 2 5 12 14 20 24 25 26 26 28 28 41 31 29 30 28 29 27 26 21 15 20 19 23 27 33 34 37 39 40
35 32 32 34 29 25 27 23 25 23 24 23 20 17 14 13 8 4 4 14 27 28 28 30 34 29 30 30 31 28 26 25 23 20 26 20 20 22 27 30 33 35 34
21 23 27 31 30 33 30 30 33 33 33 32 29 25 23 22 19 14 11 11 12 13 25 31 29 28 28 29 28 28 28 25 24 21 17 16 17 20 25 23 20 25 24
29 30 34 34 37 36 33 34 36 37 35 32 30 33 31 30 28 23 15 14 13 17 18 21 31 33 34 33 28 24 24 21 22 15 15 14 15 13 19 19 22 22 24
33 36 35 38 36 35 37 37 37 33 33 33 33 32 35 33 27 25 20 16 15 16 17 17 12 10 20 27 30 29 25 20 19 16 16 13 20 21 21 23 19 10 4
34 34 37 38 35 33 28 30 32 33 31 33 33 31 32 38 31 27 26 22 21 21 21 21 16 15 14 12 16 26 28 27 29 25 23 22 22 27 24 22 24 24 20
34 34 34 30 27 25 27 30 29 28 29 30 30 31 31 39 36 29 24 22 24 24 25 26 23 22 20 17 14 12 11 12 12 17 20 16 18 20 27 30 32 24 15
27 27 29 25 25 28 30 28 27 29 29 31 31 31 30 33 39 33 24 26 27 27 27 30 30 26 23 16 9 3 3 5 5 6 5 5 8 16 22 27 23 20 3
22 23 25 24 29 28 26 25 22 23 25 23 26 30 28 29 33 33 28 24 24 24 27 31 33 29 24 18 13 5 6 7 7 7 7 7 5 5 3 6 11 17 10
23 24 23 27 25 26 25 24 24 21 22 24 23 23 29 31 32 31 31 30 25 22 23 25 27 27 26 24 20 17 11 7 9 11 14 15 14 16 14 10 5 1 5
20 20 21 20 20 19 20 21 24 24 23 23 23 22 24 27 28 30 28 25 22 20 19 22 23 22 25 27 25 20 16 16 16 21 23 22 22 23 19 20 17 13 10
20 21 20 21 20 20 21 21 22 23 22 21 22 21 23 24 27 27 25 22 21 19 18 18 18 22 21 23 26 23 22 21 20 21 19 18 21 18 19 23 21 22 20
20 20 20 21 21 21 19 20 20 22 21 20 21 20 21 23 26 27 27 25 21 18 16 17 17 17 19 21 22 24 23 22 19 16 15 14 15 17 19 17 17 21 25
18 19 20 18 19 19 17 14 16 15 18 17 17 17 19 20 25 23 21 24 22 18 16 14 17 17 18 19 19 20 21 19 17 17 15 15 15 14 16 16 17 18 18
18 18 19 18 19 18 17 15 13 14 12 14 16 17 15 17 21 22 19 17 20 17 14 15 16 16 16 15 15 15 16 16 15 13 13 13 14 13 12 14 16 16 14
16 15 16 15 16 16 16 16 16 14 12 10 16 17 19 19 21 23 22 17 13 16 15 14 15 16 16 15 15 14 13 13 12 12 12 12 10 10 10 11 12 12 12
15 13 15 15 15 16 15 15 15 15 17 17 14 16 20 20 19 21 22 15 14 15 14 14 14 14 14 14 14 14 13 13 12 12 12 11 11 10 9 10 9 8 8
14 14 15 14 14 14 15 15 15 16 16 17 17 15 21 20 15 16 17 15 14 13 14 13 13 13 13 13 11 11 10 10 11 11 11 11 10 9 9 8 8 8 5
12 12 13 14 14 14 15 15 15 15 16 15 16 11 18 19 16 16 15 14 13 12 12 12 11 11 11 11 11 11 12 11 11 11 9 9 9 8 8 8 7 6 6
12 13 13 13 13 14 15 15 16 16 16 15 15 6 14 13 15 14 14 13 13 12 12 11 11 10 10 11 11 10 10 10 10 10 10 10 9 9 8 7 7 7 6
12 13 14 14 14 15 16 16 16 16 16 15 14 12 11 12 13 13 11 10 11 10 10 10 9 9 9 10 10 9 9 9 9 9 10 8 8 7 6 6 6 5 5
12 14 15 15 14 14 16 15 16 16 16 17 16 14 13 12 12 11 11 10 10 9 9 9 9 8 8 8 8 8 7 7 8 8 9 9 7 8 6 6 5 5 6
13 14 14 15 15 15 15 16 16 16 16 16 16 14 13 12 12 11 10 8 9 9 7 7 6 7 8 7 7 8 8 8 6 5 7 8 8 7 5 4 5 5 5
14 14 15 15 15 15 16 15 16 16 17 17 16 14 13 13 12 11 9 9 8 8 7 6 5 6 6 7 7 8 11 11 8 3 5 5 5 5 5 5 6 4 4
17 17 17 17 17 16 16 16 16 16 16 16 16 14 14 14 13 12 10 9 8 7 8 7 6 6 6 4 5 10 10 12 11 6 7 5 5 4 5 3 4 3 3

GFSGL_925_spd_126.txt.gz
Wind_Speed
18 27 41 39 35 33 33 32 26 25 26 20 19 16 8 2 10 20 25 28 30 28 30 30 29 22 21 34 29 23 23 19 10 26 22 18 18 21 25 27 28 32 34
26 43 45 39 32 30 38 36 32 32 30 26 23 21 18 15 9 2 3 9 19 24 25 25 21 28 28 31 28 30 28 27 20 19 24 23 23 24 26 26 30 30 33
37 43 49 46 40 42 35 39 39 38 34 28 27 28 25 23 18 13 10 8 5 4 13 20 24 24 24 21 21 23 26 24 25 23 20 23 22 22 23 26 29 33 33
38 39 45 42 41 33 37 40 42 41 39 34 31 30 30 28 25 19 15 13 11 10 11 10 12 14 18 25 27 29 27 25 23 23 22 24 22 21 23 21 19 29 30
42 43 43 41 38 41 46 45 39 44 39 36 38 37 34 33 30 25 21 19 19 17 16 15 14 17 16 10 11 17 22 25 26 21 20 17 14 14 16 19 22 21 26
35 32 30 36 31 29 31 31 28 33 36 35 31 32 34 35 31 30 27 24 24 24 25 22 19 21 22 20 18 16 18 13 14 13 9 11 16 18 20 22 21 9 3
31 35 36 32 26 28 28 28 30 35 30 29 30 30 33 38 32 32 29 29 28 28 29 30 26 26 25 22 18 18 12 8 4 10 8 10 15 21 25 23 23 20 17
36 34 34 29 29 27 27 30 30 27 27 29 32 33 35 39 38 30 26 27 28 30 32 34 31 31 29 24 18 17 14 14 16 11 6 8 10 15 17 22 25 25 21
28 29 26 26 25 23 26 26 26 30 28 30 33 30 29 33 36 36 29 26 26 26 29 29 33 32 31 25 19 18 17 18 14 13 11 10 12 14 14 20 20 16 4
27 26 28 27 28 30 29 29 26 27 26 25 26 30 30 31 36 35 31 27 25 24 25 25 29 31 31 30 26 21 20 19 18 14 13 11 11 12 11 8 6 8 5
22 23 26 26 26 26 24 26 27 24 24 28 27 26 29 31 31 33 32 29 25 21 21 23 27 26 29 27 27 25 21 17 18 17 18 19 19 19 18 14 11 6 2
22 22 23 21 20 22 25 26 27 24 23 25 24 24 25 28 28 29 28 25 21 19 19 21 23 24 24 27 28 25 23 24 22 23 23 25 25 24 21 19 16 14 11
24 25 24 27 26 24 25 24 27 27 26 24 24 23 24 25 27 27 24 23 22 21 19 20 20 21 21 25 24 24 25 26 21 20 18 19 19 18 18 19 17 17 18
23 25 26 26 27 26 25 23 24 24 22 21 22 22 23 25 30 32 30 29 28 24 21 20 19 18 19 20 25 25 24 23 20 18 18 19 19 19 22 21 19 14 23
21 22 23 22 23 23 22 20 18 21 21 18 20 20 22 23 27 26 26 26 25 22 17 18 20 20 20 21 20 21 23 22 22 20 19 19 20 20 20 20 20 21 18
18 19 20 19 19 20 20 19 17 16 15 13 13 18 19 19 23 26 25 25 17 19 16 18 18 19 19 20 20 19 20 21 19 18 18 17 16 17 17 19 18 18 14
16 16 17 18 17 16 16 16 16 16 13 12 11 15 20 19 22 23 25 23 18 18 18 18 19 20 19 18 19 19 19 20 19 17 17 17 16 14 14 14 15 15 14
17 15 17 17 18 17 17 17 17 17 16 17 15 12 20 26 22 19 21 19 22 20 21 17 18 18 18 18 18 19 16 16 17 16 16 16 16 14 14 14 12 8 9
17 16 17 17 17 17 17 17 17 18 17 17 17 12 19 26 17 17 17 19 19 18 18 18 16 16 19 18 20 17 19 17 19 17 16 15 16 12 13 12 10 13 12
16 16 17 18 17 17 17 18 18 18 17 17 17 7 16 20 16 17 14 15 16 17 17 17 17 15 15 18 19 18 17 17 16 18 18 16 16 14 11 11 13 12 9
16 15 17 17 17 16 16 18 19 18 18 18 18 15 14 15 13 14 14 13 14 14 15 17 16 15 14 16 17 17 17 16 15 14 17 17 15 14 14 12 11 10 10
16 15 17 18 17 17 16 17 17 17 18 18 19 19 18 13 12 12 12 11 11 12 12 13 14 14 12 14 15 13 14 13 15 15 13 19 15 13 12 10 12 12 11
16 15 15 16 16 16 17 16 16 18 18 18 19 19 19 15 13 10 10 11 7 11 11 10 11 12 12 10 12 12 12 12 9 10 10 15 18 13 12 10 11 11 9
18 17 16 17 16 17 16 16 17 16 17 18 18 18 18 16 15 14 14 7 7 8 11 11 8 9 10 10 9 9 12 14 9 6 6 13 12 10 12 12 9 9 8
17 20 19 17 17 17 18 18 16 16 15 16 17 17 18 17 15 15 13 11 9 9 8 10 8 6 11 10 9 12 13 14 11 4 4 8 9 8 7 8 7 8 6
19 20 21 20 19 18 19 20 20 17 17 16 14 15 17 18 14 13 14 12 9 5 11 10 8 7 9 7 7 12 13 12 8 5 6 10 7 8 8 8 6 8 5

GFSGL_925_spd_129.txt.gz
Wind_Speed
32 27 22 15 28 29 32 31 28 23 15 7 24 31 27 20 19 19 15 18 29 29 29 30 30 31 26 30 27 29 21 25 15 30 29 31 23 32 34 34 33 31 30
32 25 19 22 35 39 40 40 37 27 33 36 33 35 31 20 24 20 14 12 16 17 2 14 20 26 26 29 25 17 22 25 26 23 20 23 22 30 33 34 37 35 33
28 28 19 35 46 45 42 46 50 40 36 39 35 38 37 29 34 23 19 18 16 15 14 14 14 12 7 7 14 21 23 26 29 21 24 22 28 28 30 30 35 34 32
29 31 39 38 39 42 44 46 53 46 48 46 43 40 39 38 36 31 28 24 22 21 19 17 17 18 16 15 14 13 14 19 24 22 22 22 23 26 30 24 25 31 30
36 40 39 36 36 41 53 49 44 45 44 37 41 45 46 44 41 32 29 27 26 26 27 22 21 22 18 15 14 16 17 17 16 18 18 17 16 16 21 19 24 22 26
36 37 37 39 40 42 40 52 48 42 39 39 40 42 43 40 34 37 35 35 31 31 31 28 24 26 24 19 14 14 13 15 11 9 13 20 31 22 22 22 20 13 4
35 35 34 35 35 38 45 44 38 36 31 32 37 41 40 40 36 34 33 31 31 32 34 34 31 31 28 22 17 15 15 16 16 12 10 9 13 16 10 14 22 20 22
33 34 34 34 37 38 37 38 37 34 36 36 40 39 40 43 43 36 32 32 31 31 30 31 29 29 31 24 19 18 19 18 18 15 12 11 8 15 15 16 20 19 19
30 29 32 34 36 35 37 35 34 29 31 34 35 35 35 39 40 37 31 26 25 25 25 27 29 30 28 27 26 23 22 22 16 12 10 9 11 10 13 11 11 10 5
28 26 30 31 36 40 37 33 29 33 32 29 28 34 31 34 35 34 30 27 24 24 26 28 29 28 28 28 26 24 22 24 21 20 19 17 15 14 14 12 11 7 6
25 31 29 34 34 36 40 38 33 32 30 30 28 31 36 32 34 32 30 29 27 21 22 24 26 25 25 26 24 23 20 19 21 21 21 21 21 22 21 19 14 11 7
27 29 31 26 29 27 34 34 32 31 31 28 26 25 31 34 29 29 26 23 22 22 22 23 21 21 22 25 24 21 21 21 21 21 21 20 21 22 18 17 15 14 10
25 28 28 27 24 21 23 27 28 27 27 25 26 26 27 32 31 29 27 25 24 20 19 18 17 19 20 22 25 23 24 23 22 18 17 17 18 16 15 16 12 12 15
20 21 20 22 23 22 19 22 25 23 19 18 20 23 26 28 30 33 31 28 26 20 17 16 18 19 21 20 22 24 23 22 22 20 19 19 17 18 18 17 19 8 18
18 21 23 22 22 22 19 19 18 15 14 16 20 23 23 23 24 23 23 26 21 18 14 18 23 25 25 25 24 24 23 23 22 21 20 18 18 18 17 16 16 15 14
16 20 21 19 19 20 19 18 17 13 12 9 13 18 21 17 18 21 25 23 23 20 23 24 24 22 21 23 23 21 21 22 19 17 18 17 16 15 15 15 14 15 13
20 21 22 23 22 21 21 22 23 22 19 8 11 15 21 23 20 21 21 21 20 21 21 20 22 21 18 18 20 21 19 19 16 17 17 18 15 14 13 13 12 12 12
19 18 21 22 22 21 22 23 22 23 22 21 8 16 19 19 16 16 17 21 22 21 20 18 18 19 18 18 20 21 20 19 18 18 20 19 17 15 16 18 16 6 8
19 19 20 19 20 19 19 20 21 21 19 19 17 15 17 16 14 13 15 18 17 19 19 19 18 18 19 19 20 20 19 18 18 18 18 20 20 16 16 16 15 13 10
18 17 19 21 21 20 20 22 22 21 21 21 21 18 20 17 11 11 10 13 13 13 16 17 17 16 17 18 19 18 17 18 19 18 19 20 21 17 16 16 14 15 12
17 18 18 19 18 20 18 19 19 19 22 21 21 22 22 21 11 11 10 11 10 11 14 13 15 17 18 16 16 17 17 17 18 16 17 20 20 19 15 11 12 13 14
16 17 17 17 16 17 16 19 16 19 18 18 20 20 21 20 17 14 11 11 9 9 12 11 14 14 18 14 14 17 20 19 15 15 14 18 17 18 14 12 10 11 12
15 16 19 19 19 17 18 17 17 19 16 16 16 17 18 18 17 14 13 13 7 10 11 10 13 12 13 16 16 16 17 19 17 14 12 14 14 17 13 11 11 11 12
17 19 21 22 22 20 20 20 21 20 20 19 19 18 17 15 13 12 13 10 11 9 9 10 12 11 12 14 14 13 17 17 17 10 9 11 14 12 9 9 9 9 9
19 21 22 23 23 19 19 20 20 21 22 21 23 24 22 19 17 14 10 9 9 9 9 9 12 11 9 12 13 12 16 17 14 8 9 8 9 9 7 9 6 8 8
17 18 21 21 20 22 22 21 20 22 21 21 21 21 22 24 21 16 14 13 12 9 8 8 7 8 8 10 9 11 15 14 10 7 6 7 6 5 6 9 10 9 8

GFSGL_925_spd_132.txt.gz
Wind_Speed
39 41 36 33 26 19 15 21 23 24 30 29 14 16 19 15 14 27 27 26 29 29 29 30 30 30 27 29 28 26 23 22 8 11 15 15 21 23 27 29 35 41 38
40 42 39 36 33 22 22 25 31 37 36 33 40 26 26 20 27 27 22 18 16 17 13 18 14 17 20 15 21 24 26 22 17 17 21 22 28 30 36 36 36 36 38
41 39 42 35 31 26 27 30 34 42 47 46 49 43 36 33 23 33 30 18 25 22 19 19 15 10 9 3 1 5 5 18 25 19 19 22 25 26 27 31 33 36 43
34 35 34 36 33 32 30 37 40 42 46 48 52 53 49 37 34 32 36 27 26 32 27 26 24 17 13 9 7 5 3 6 7 13 21 19 21 25 28 25 23 32 34
31 32 34 37 39 34 39 39 37 45 46 51 54 52 50 49 40 39 39 34 31 36 31 26 24 22 23 15 11 10 8 7 8 9 11 10 14 13 17 25 26 27 29
31 31 31 30 33 36 36 38 37 36 42 52 48 49 55 38 36 38 38 34 36 33 28 24 33 30 24 22 18 18 16 14 9 5 5 5 7 11 14 17 15 19 5
31 35 36 36 39 39 37 37 42 42 46 47 53 46 44 40 36 38 38 38 37 37 35 32 34 35 26 19 15 18 17 17 15 9 6 7 7 12 15 20 13 12 5
32 36 40 38 36 34 33 32 31 34 36 42 42 37 38 38 36 30 27 29 33 32 33 31 28 27 29 23 21 22 21 18 16 12 11 9 8 12 12 13 19 20 23
27 30 30 32 33 31 28 27 28 30 38 37 33 33 36 37 36 33 27 25 26 28 30 31 34 32 29 23 25 21 22 21 17 15 12 11 10 11 14 12 12 10 4
27 27 26 34 32 28 28 30 32 32 33 35 43 46 35 37 34 33 32 28 26 24 26 28 28 28 24 23 23 20 17 21 18 16 14 13 13 14 16 15 12 7 6
28 28 29 27 29 31 30 30 32 33 38 38 38 39 39 32 34 30 31 32 28 21 21 23 24 21 23 23 23 21 18 15 15 15 16 17 17 17 15 14 13 12 7
26 28 28 28 25 31 33 33 36 34 33 32 32 30 34 37 33 34 31 28 23 24 24 24 22 21 20 23 25 23 20 19 20 17 16 18 17 19 16 10 7 5 8
22 23 23 25 28 29 32 32 34 38 34 29 28 30 31 36 37 34 31 29 27 25 21 21 19 22 23 24 24 24 23 23 18 15 15 18 17 15 15 11 8 8 10
18 20 21 24 27 28 30 30 28 26 22 23 25 27 28 30 28 33 30 30 25 22 20 20 20 19 21 22 23 24 24 22 20 20 19 17 16 17 17 15 15 11 11
16 17 22 23 24 26 26 24 22 19 16 18 24 28 28 28 26 25 26 25 24 19 18 21 25 27 26 26 25 24 25 23 23 22 21 19 18 17 17 15 14 13 14
15 19 21 22 22 22 22 21 21 17 11 14 18 23 23 20 20 20 22 23 22 18 22 24 24 25 21 20 20 21 22 25 24 21 21 20 20 19 17 14 13 11 12
16 17 19 18 17 17 20 21 21 19 18 11 15 18 19 19 19 20 19 22 22 23 23 20 24 24 20 20 21 21 21 23 22 21 21 21 22 20 19 17 14 8 10
16 16 17 17 16 18 19 17 17 19 19 18 13 17 16 15 14 13 16 22 25 25 22 20 17 20 21 20 23 22 21 23 23 22 22 21 21 20 20 19 16 11 9
14 16 16 15 16 17 17 16 15 17 16 15 15 15 16 15 7 5 10 14 14 15 17 17 15 15 17 18 19 19 19 20 21 21 20 20 20 20 20 18 16 12 10
12 11 14 14 14 14 14 15 14 17 16 15 16 17 18 18 16 8 9 10 11 9 11 13 13 15 18 18 18 19 20 22 21 20 18 19 19 18 16 16 15 15 14
11 13 12 13 13 14 13 15 14 15 16 14 15 15 14 13 11 11 10 10 12 9 11 13 14 15 16 17 18 17 19 19 19 16 15 17 18 18 15 14 14 14 14
11 13 15 17 16 15 14 16 16 17 18 17 17 17 16 15 13 12 11 10 11 9 10 11 11 13 13 15 17 16 18 19 20 18 14 14 15 15 15 13 12 14 13
15 16 16 17 18 19 18 17 17 17 18 18 20 19 20 22 18 16 14 13 12 11 10 10 10 12 12 13 16 14 17 20 20 17 15 14 14 13 13 12 10 11 12
16 15 16 17 18 18 19 18 17 16 18 19 19 18 19 19 19 20 17 15 13 12 12 11 11 12 12 11 13 12 15 18 18 13 12 11 10 12 9 9 8 8 10
13 15 17 15 18 17 17 17 17 17 19 20 19 19 18 19 21 22 17 18 15 15 14 13 13 13 11 11 11 11 13 16 15 12 10 9 9 9 9 9 7 7 9
14 14 13 13 13 14 15 18 17 16 16 15 21 21 21 19 19 21 21 21 19 17 15 14 14 12 11 12 11 10 12 14 13 11 9 8 9 9 7 6 5 6 6